     2              OBSERVATION DATA    GPS                 RINEX VERSION / TYPE
teqc 2000Feb29 Duncan Agnew 20040124 18:34:11UTC            PGM / RUN BY / DATE
                                                            COMMENT
L2: 1 -> 1; 150 -> 5; 250 -> 9                              COMMENT
L2: 1 -> 1; 150 -> 5; 250 -> 9                              COMMENT
L2: 1 -> 1; 150 -> 5; 250 -> 9                              COMMENT
L2: 1 -> 1; 150 -> 5; 250 -> 9                              COMMENT
L2: 1 -> 1; 150 -> 5; 250 -> 9                              COMMENT
Original Marker Name: SVN1                                  COMMENT
Campaign Name: PFO Seismic Vault                            COMMENT
4-Character Station Name: SVN1                              COMMENT
6-Character Antenna Code: DMRCHT                            COMMENT
Vertical Measurement Point: BCR                             COMMENT
Vertical Offset to Rinex Ref. Point: 0.0348                 COMMENT
Radial Measurement Point: ECF                               COMMENT
Radial Offset to Rinex Ref. Point: 0.1897                   COMMENT
Antenna Height from Field Measurement: 0.9090 m             COMMENT
Additional Antenna Identification Info.:                    COMMENT
Turborogue and Ashtech Choke Ring                           COMMENT
Original XYZ: 0.0000 0.0000 0.0000                          COMMENT
New XYZ position is based on association with SCEC monument COMMENT
E1D0K5S3+0030. Position of that monument is believed to be  COMMENT
valid to within 1 m horizontally; vertical accuracy         COMMENT
should be no worse than 3-times this value.                 COMMENT
                                                            COMMENT
Revised Rinex header created by UCSD GPS archive for        COMMENT
GSAC on 21-Jul-2005 (2005:202) 16:57:39 GMT                 COMMENT
For assistance contact dagnew@ucsd.edu                      COMMENT
or anderson@python.ucsd.edu                                 COMMENT
                                                            COMMENT
SVN1                                                        MARKER NAME
SJB SCRIPPS INSTITUTION OF OCEANOGRAPHY                     OBSERVER / AGENCY
378 ASHTECH Z-XII3 CC00                                     REC # / TYPE / VERS
653 DORNE-MARGOL. TYPE T                                    ANT # / TYPE
 -2369309.0000 -4761384.0000  3511288.0000                  APPROX POSITION XYZ
        0.8542        0.0000        0.0000                  ANTENNA: DELTA H/E/N
     1     1     0                                          WAVELENGTH FACT L1/2
     7    C1    L1    L2    P1    P2    S1    S2            # / TYPES OF OBSERV
     0                                                      INTERVAL
  2004     1    22    19    50    0.000000                  TIME OF FIRST OBS
  2004     1    22    23    59   30.000000                  TIME OF LAST OBS
                                                            END OF HEADER
 04  1 22 19 50  0.0000000  0  1G 9
  21073992.319     -198186.72359   -141112.10547  21073992.409    21074002.079
       243.000         211.000
 04  1 22 19 50 30.0000000  0  1G 9
  21077447.897    -1755447.52349  -1354562.13247  21077447.936    21077457.442
       243.000         211.000
 04  1 22 19 51  0.0000000  0  2G24G 9
  21294620.068    -1784871.78259  -1358144.45647  21294620.051    21294631.312
       240.000         201.000
  21078550.813    -1749652.29149  -1350046.40247  21078551.023    21078560.228
       242.000         211.000
 04  1 22 19 51 30.0000000  0  3G24G 4G 9
  21281066.268    -1856098.26549  -1413645.51447  21281065.925    21281077.011
       240.000         202.000
                     28834.63259     29742.62243
       245.000          74.000
  21079768.580    -1743253.40349  -1345060.29847  21079768.630    21079777.830
       244.000         211.000
 04  1 22 19 52  0.0000000  0  3G24G 4G 9
  21247757.863    -2031135.65449  -1550038.19247  21247757.574    21247768.255
       240.000         203.000
                    -72459.38249     88869.04843
       245.000          74.000
  21061262.720    -1840502.51249  -1420838.86747  21061262.921    21061272.156
       243.000         211.000
 04  1 22 19 52 30.0000000  0  3G24G 4G 9
  21221968.061    -2166661.25549  -1655642.45647  21221967.717    21221978.758
       240.000         203.000
                   -134069.35249     40350.24643
       245.000          74.000
  21050306.187    -1898079.38649  -1465704.00347  21050306.316    21050315.903
       242.000         211.000
 04  1 22 19 53  0.0000000  0  3G24G 4G 9
  21201944.540    -2271884.97849  -1737634.86347  21201944.040    21201955.472
       240.000         203.000
                   -165207.77749     15532.55943
       245.000          78.000
  21045146.030    -1925196.58849  -1486834.33047  21045145.929    21045155.527
       242.000         211.000
 04  1 22 19 53 30.0000000  0  3G24G 4G 9
  21185114.976    -2360324.27649  -1806548.50547  21185114.590    21185125.821
       240.000         203.000
                   -179394.76149    143143.26447                  20431787.231
       245.000         196.000
  21043209.383    -1935373.68149  -1494764.57647  21043209.659    21043219.249
       243.000         211.000
 04  1 22 19 54  0.0000000  0  5G28G 5G24G 4G 9
                  -1242785.32659   -971069.67645                  23638135.769
       212.000         144.000
  22644241.089     -137407.83559    -76909.67746  22644241.118    22644253.130
       223.000         171.000
  21174553.402    -2415825.30749  -1849795.96447  21174552.932    21174564.117
       239.000         203.000
  20435377.915     -160478.88349    157882.90547  20435378.262    20435386.597
       245.000         212.000
  21047569.859    -1912459.62049  -1476909.49447  21047570.110    21047579.572
       242.000         211.000
 04  1 22 19 54 30.0000000  0  5G28G 5G24G 4G 9
  23654357.496    -1157477.18449   -904596.00345  23654356.490    23654369.794
       214.000         153.000
  22630022.962     -212126.29349   -135131.76046  22630022.801    22630033.736
       223.000         173.000
  21163126.805    -2475871.84549  -1896585.37747  21163126.702    21163137.301
       240.000         203.000
  20438143.397     -145946.35249    169206.95148  20438143.757    20438152.212
       244.000         214.000
  21051094.024    -1893940.33849  -1462478.92047  21051094.261    21051103.375
       242.000         211.000
 04  1 22 19 55  0.0000000  0  6G28G 5G24G 4G 9G 7
  23669940.734    -1075588.41849   -840786.84445  23669939.972    23669953.274
       210.000         154.000
  22615131.386     -290382.66649   -196110.68646  22615130.731    22615142.339
       222.000         173.000
  21151093.566    -2539106.89649  -1945859.36247  21151093.573    21151104.339
       240.000         204.000
  20440332.478     -134442.78149    178170.77448  20440333.052    20440341.144
       245.000         215.000
  21054039.575    -1878461.53849  -1450417.55147  21054039.572    21054049.074
       243.000         210.000
  22421280.356    -1153131.77459   -898271.73946  22421279.681    22421289.273
       229.000         184.000
 04  1 22 19 55 30.0000000  0  6G28G 5G24G 4G 9G 7
  23685187.124     -995467.12949   -778354.94745  23685187.296    23685199.032
       212.000         153.000
  22599881.163     -370522.88949   -258557.52546  22599880.258    22599892.016
       220.000         172.000
  21138768.334    -2603876.42849  -1996329.05247  21138767.995    21138779.014
       241.000         204.000
  20442259.440     -124316.68849    186061.22748  20442259.788    20442268.278
       245.000         215.000
  21056720.830    -1864371.60849  -1439438.41947  21056720.915    21056730.514
       242.000         210.000
  22433283.412    -1090052.35549   -849119.00246  22433282.981    22433292.351
       228.000         184.000
 04  1 22 19 56  0.0000000  0  6G28G 5G24G 4G 9G 7
  23700269.285     -916210.34849   -716596.68345  23700268.715    23700281.252
       211.000         152.000
  22584444.557     -451642.06449   -321767.19646  22584443.885    22584455.617
       221.000         172.000
  21126323.297    -2669275.12049  -2047288.99047  21126323.131    21126334.023
       241.000         204.000
  20444096.062     -114665.37749    193581.72748  20444096.616    20444104.742
       246.000         215.000
  21059309.643    -1850767.66649  -1428837.98247  21059309.983    21059319.412
       243.000         211.000
  22445089.484    -1028010.17749   -800774.48746  22445088.988    22445099.156
       227.000         183.000
 04  1 22 19 56 30.0000000  0  6G28G 5G24G 4G 9G 7
  23715280.146     -837328.13049   -655130.30145  23715280.433    23715292.780
       212.000         150.000
  22568915.429     -533248.09049   -385356.23946  22568915.475    22568926.214
       223.000         173.000
  21113852.222    -2734810.68049  -2098355.58047  21113852.154    21113862.685
       241.000         204.000
  20445935.595     -104998.81249    201114.11148  20445935.813    20445944.206
       246.000         215.000
  21061899.209    -1837159.85949  -1418234.53047  21061899.261    21061909.279
       242.000         211.000
  22456791.637     -966514.95349   -752856.17946  22456791.807    22456800.873
       226.000         177.000
 04  1 22 19 57  0.0000000  0  6G28G 5G24G 4G 9G 7
  23730270.896     -758552.13149   -593746.69345  23730271.255    23730284.472
       213.000         151.000
  22553345.162     -615070.45549   -449113.86446  22553345.154    22553355.931
       225.000         175.000
  21101406.690    -2800212.35349  -2149317.84547  21101406.630    21101417.714
       241.000         204.000
  20447828.949      -95049.24649    208867.01948  20447829.332    20447837.634
       246.000         215.000
  21064540.525    -1823279.99649  -1407419.08847  21064540.882    21064550.449
       243.000         211.000
  22468440.858     -905298.64849   -705155.22746  22468441.022    22468450.192
       227.000         181.000
 04  1 22 19 57 30.0000000  0  6G28G 5G24G 4G 9G 7
  23745269.101     -679737.22349   -532332.77245  23745268.792    23745281.735
       210.000         150.000
  22537761.554     -696962.87349   -512926.07146  22537760.953    22537772.533
       225.000         176.000
  21089014.658    -2865333.06749  -2200061.16747  21089014.349    21089025.421
       241.000         205.000
  20449803.694      -84672.19749    216953.03648  20449804.335    20449812.309
       246.000         215.000
  21067261.054    -1808983.67549  -1396279.13147  21067261.079    21067270.725
       242.000         211.000
  22480064.598     -844216.74749   -657558.99346  22480064.425    22480073.773
       227.000         181.000
 04  1 22 19 58  0.0000000  0  6G28G 5G24G 4G 9G 7
  23760289.783     -600803.19149   -470825.99545  23760289.534    23760303.228
       212.000         149.000
  22522180.332     -778842.50649   -576728.33146  22522180.499    22522191.049
       225.000         177.000
  21076691.599    -2930090.54549  -2250521.46447  21076691.290    21076702.209
       240.000         205.000
  20451875.056      -73787.39549    225434.70748  20451875.421    20451883.518
       245.000         215.000
  21070076.010    -1794190.93349  -1384752.35547  21070076.160    21070085.899
       242.000         211.000
  22491677.872     -783188.94649   -610004.93046  22491677.126    22491687.116
       226.000         181.000
 04  1 22 19 58 30.0000000  0  6G28G 5G24G 4G 9G 7
  23775341.963     -521703.97449   -409190.52945  23775341.903    23775355.635
       209.000         148.000
  22506610.915     -860661.00149   -640482.95046  22506611.197    22506621.970
       226.000         177.000
  21064446.971    -2994436.10049  -2300660.77847  21064446.777    21064457.785
       241.000         205.000
  20454051.645      -62349.21049    234347.58548  20454051.915    20454060.211
       245.000         215.000
  21072994.260    -1778856.02449  -1372803.10947  21072994.489    21073004.205
       242.000         210.000
  22503289.506     -722169.07649   -562457.03746  22503288.538    22503298.870
       225.000         181.000
 04  1 22 19 59  0.0000000  0  7G28G 5G24G 4G 9G17G 7
  23790429.932     -442416.65149   -347408.49945  23790429.888    23790444.062
       210.000         147.000
  22491057.942     -942393.04049   -704170.20346  22491057.755    22491069.012
       226.000         177.000
  21052285.556    -3058344.53849  -2350459.49747  21052285.486    21052296.121
       241.000         206.000
  20456337.907      -50334.94349    243709.35548  20456338.222    20456346.480
       246.000         215.000
  21076020.040    -1762955.73049  -1360413.31347  21076020.115    21076029.926
       242.000         210.000
                   -998092.52859   -753175.00045                  23759388.776
       215.000         145.000
  22514904.065     -661134.30549   -514897.52446  22514904.056    22514913.799
       228.000         181.000
 04  1 22 19 59 30.0000000  0  7G28G 5G24G 4G 9G17G 7
  23805556.195     -362927.93749   -285469.53445  23805556.486    23805569.834
       210.000         147.000
  22475524.157    -1024023.50949   -767778.28846  22475523.499    22475534.112
       223.000         176.000
  21040210.223    -3121800.76249  -2399905.83347  21040210.056    21040220.858
       241.000         206.000
  20458736.221      -37731.97449    253529.85448  20458736.471    20458744.669
       246.000         215.000
  21079155.753    -1746477.48149  -1347573.16147  21079156.034    21079165.475
       243.000         210.000
  23740392.276    -1097828.31549   -830890.92245  23740391.439    23740409.592
       214.000         158.000
  22526524.132     -600071.57549   -467316.23946  22526523.742    22526533.681
       227.000         181.000
 04  1 22 20  0  0.0000000  0  7G28G 5G24G 4G 9G17G 7
  23820721.786     -283232.39049   -223369.41045  23820722.027    23820735.911
       214.000         148.000
  22460011.193    -1105544.39949   -831301.01146  22460010.318    22460021.193
       223.000         175.000
  21028222.478    -3184796.46949  -2448993.31947  21028222.345    21028233.334
       241.000         206.000
  20461247.603      -24534.65949    263813.47148  20461248.193    20461256.232
       246.000         215.000
  21082402.542    -1729415.80949  -1334278.40047  21082402.726    21082412.229
       242.000         210.000
  23721436.188    -1197447.96549   -908516.36145  23721434.663    23721452.161
       215.000         159.000
  22538150.598     -538975.09249   -419708.65646  22538150.533    22538160.279
       227.000         181.000
 04  1 22 20  0 30.0000000  0  7G28G 5G24G 4G 9G17G 7
  23835927.428     -203327.82549   -161106.45145  23835928.580    23835941.128
       215.000         148.000
  22444519.817    -1186952.05149   -894735.47846  22444518.873    22444529.796
       222.000         175.000
  21016323.170    -3247327.53549  -2497718.75447  21016322.862    21016333.582
       241.000         206.000
  20463872.335      -10741.91449    274561.05948  20463872.696    20463880.651
       245.000         215.000
  21085760.580    -1711769.41149  -1320528.00547  21085760.911    21085770.543
       242.000         210.000
  23702501.478    -1296947.07049   -986047.86945  23702500.820    23702518.007
       214.000         159.000
  22549783.733     -477842.99749   -372073.30746  22549783.530    22549793.319
       227.000         181.000
 04  1 22 20  1  0.0000000  0  7G28G 5G24G 4G 9G17G 7
  23851174.134     -123207.72149    -98675.48945  23851175.095    23851188.650
       212.000         147.000
  22429051.715    -1268237.31949   -958074.59446  22429051.411    22429061.745
       224.000         176.000
  21004513.988    -3309385.20249  -2546075.31747  21004513.888    21004524.490
       241.000         207.000
  20466611.506        3652.47749    285777.46348  20466612.019    20466619.799
       245.000         215.000
  21089231.167    -1693531.94349  -1306317.02747  21089231.159    21089241.079
       242.000         211.000
  23683591.815    -1396316.16849  -1063478.07445  23683591.471    23683608.706
       215.000         159.000
  22561424.862     -416668.83249   -324405.18846  22561424.291    22561433.755
       226.000         181.000
 04  1 22 20  1 30.0000000  0  7G28G 5G24G 4G 9G17G 7
  23866461.066      -42875.73149    -36079.55845  23866461.812    23866476.176
       218.000         146.000
  22413606.625    -1349401.58749  -1021319.42146  22413605.774    22413617.115
       225.000         177.000
  20992794.470    -3370971.23149  -2594064.35647  20992794.281    20992805.215
       242.000         207.000
  20469464.461       18644.64149    297459.66448  20469464.664    20469472.814
       246.000         215.000
  21092813.385    -1674707.39849  -1291648.59247  21092813.439    21092823.263
       243.000         211.000
  23664707.065    -1495556.20249  -1140807.71045  23664706.884    23664723.269
       217.000         160.000
  22573073.393     -355456.06949   -276706.98046  22573073.267    22573082.772
       227.000         181.000
 04  1 22 20  2  0.0000000  0  7G28G 5G24G 4G 9G17G 7
  23881789.213       37671.66949     26684.28145  23881789.811    23881802.517
       217.000         146.000
  22398185.503    -1430439.24749  -1084465.59946  22398184.869    22398195.987
       224.000         178.000
  20981165.838    -3432079.77349  -2641681.35047  20981165.871    20981176.356
       242.000         207.000
  20472431.684       34237.47549    309609.91948  20472431.920    20472440.159
       244.000         214.000
  21096507.923    -1655292.77049  -1276520.36247  21096508.021    21096517.983
       242.000         211.000
  23645848.086    -1594660.93849  -1218031.91545  23645846.761    23645863.872
       216.000         160.000
  22584729.989     -294201.40549   -228976.12946  22584730.007    22584738.733
       226.000         181.000
 04  1 22 20  2 30.0000000  0  7G28G 5G24G 4G 9G17G 7
  23897157.657      118431.78049     89613.90345  23897158.342    23897171.706
       217.000         146.000
  22382788.479    -1511350.75549  -1147513.46646  22382787.768    22382799.215
       226.000         178.000
  20969628.104    -3492711.23149  -2688926.58547  20969627.969    20969638.422
       242.000         207.000
  20475512.596       50427.95549    322225.87848  20475513.007    20475521.220
       245.000         215.000
  21100314.187    -1635290.94049  -1260934.56347  21100314.456    21100324.118
       243.000         211.000
  23627014.705    -1693630.29349  -1295150.63745  23627013.619    23627030.049
       217.000         160.000
  22596393.968     -232907.30849   -181214.54246  22596393.222    22596403.372
       225.000         180.000
 04  1 22 20  3  0.0000000  0  7G28G 5G24G 4G 9G17G 7
  23912566.810      199405.29449    152709.77245  23912567.794    23912581.023
       216.000         146.000
  22367416.158    -1592133.17349  -1210460.76646  22367415.790    22367426.548
       226.000         178.000
  20958181.618    -3552863.02749  -2735798.04447  20958181.653    20958192.132
       242.000         208.000
  20478707.275       67215.88349    335307.37448  20478707.476    20478715.983
       245.000         215.000
  21104232.239    -1614701.95149  -1244891.24447  21104232.474    21104242.048
       241.000         210.000
  23608207.561    -1792461.12849  -1372161.43645  23608206.769    23608223.102
       216.000         161.000
  22608065.514     -171573.15849   -133421.76346  22608064.802    22608074.707
       226.000         180.000
 04  1 22 20  3 30.0000000  0  7G28G 5G24G 4G 9G17G 7
  23928016.127      280590.16549    215970.36245  23928016.489    23928030.547
       216.000         146.000
  22352068.482    -1672785.89749  -1273306.99146  22352068.395    22352078.198
       226.000         179.000
  20946826.459    -3612534.88549  -2782295.51947  20946826.564    20946836.982
       242.000         208.000
  20482015.172       84599.04549    348852.68648  20482015.656    20482023.758
       245.000         215.000
  21108261.524    -1593528.16649  -1228392.23847  21108261.744    21108271.403
       242.000         210.000
  23589426.935    -1891152.40449  -1449063.48545  23589425.610    23589442.554
       216.000         162.000
  22619744.088     -110200.93049    -85599.30346  22619743.158    22619753.482
       223.000         179.000
 04  1 22 20  4  0.0000000  0  7G28G 5G24G 4G 9G17G 7
  23943505.337      361985.73349    279395.09245  23943506.016    23943519.237
       217.000         147.000
  22336745.687    -1753307.63649  -1336051.13846  22336744.983    22336756.616
       226.000         180.000
  20935562.827    -3671725.22249  -2828417.78447  20935562.492    20935573.354
       242.000         208.000
  20485436.181      102576.10449    362860.77548  20485436.737    20485444.787
       246.000         215.000
  21112401.862    -1571770.78449  -1211438.47347  21112402.148    21112411.718
       242.000         210.000
  23570673.161    -1989702.16849  -1525855.25345  23570672.123    23570689.269
       217.000         162.000
  22631429.894      -48791.09549    -37747.54846  22631429.727    22631439.625
       227.000         178.000
 04  1 22 20  4 30.0000000  0  7G28G 5G24G 4G 9G17G 7
  23959033.966      443588.08149    342981.08545  23959035.205    23959048.596
       214.000         147.000
  22321447.406    -1833700.06049  -1398694.51546  22321447.234    22321458.016
       226.000         180.000
  20924390.438    -3730435.82749  -2874166.22547  20924390.156    20924400.887
       242.000         207.000
  20488969.239      121142.34849    377327.96848  20488969.761    20488977.759
       246.000         216.000
  21116652.343    -1549434.37849  -1194033.52147  21116652.486    21116662.327
       242.000         210.000
  23551946.219    -2088111.86149  -1602537.87146  23551945.587    23551962.592
       216.000         163.000
  22643122.349       12652.36249     10130.41946  22643122.263    22643132.428
       226.000         178.000
 04  1 22 20  5  0.0000000  0  7G28G 5G24G 4G 9G17G 7
  23974603.006      525403.07649    406732.74445  23974603.517    23974618.824
       216.000         147.000
  22306175.152    -1913955.19449  -1461230.92546  22306174.846    22306185.669
       225.000         180.000
  20913310.793    -3788658.93949  -2919534.80847  20913310.486    20913321.099
       242.000         207.000
  20492615.468      140303.36949    392258.61348  20492616.047    20492624.055
       246.000         215.000
  21121014.017    -1526513.50649  -1176173.15347  21121014.406    21121024.092
       242.000         210.000
  23533247.756    -2186372.53049  -1679104.37946  23533246.752    23533264.389
       218.000         164.000
  22654822.247       74135.32849     58039.15646  22654822.533    22654832.274
       227.000         178.000
 04  1 22 20  5 30.0000000  0  7G28G 5G24G 4G 9G17G 7
  23990214.089      607438.53249    470656.17245  23990214.160    23990229.546
       215.000         149.000
  22290931.224    -1994062.29649  -1523651.97246  22290931.060    22290941.893
       227.000         181.000
  20902325.949    -3846384.40049  -2964515.62147  20902326.211    20902336.567
       243.000         208.000
  20496376.212      160066.29349    407658.27348  20496376.764    20496384.945
       246.000         215.000
  21125488.346    -1503000.75349  -1157851.58347  21125488.689    21125498.427
       242.000         210.000
  23514579.540    -2284473.92549  -1755546.77646  23514578.076    23514595.839
       219.000         164.000
  22666531.319      135666.00949    105985.07346  22666531.557    22666540.385
       227.000         178.000
 04  1 22 20  6  0.0000000  0  7G28G 5G24G 4G 9G17G 7
  24005869.090      689704.74149    534759.36945  24005870.672    24005884.144
       216.000         150.000
  22275717.980    -2074008.70749  -1585947.81746  22275718.121    22275728.529
       227.000         182.000
  20891438.215    -3903599.87049  -3009099.04047  20891438.168    20891448.760
       242.000         208.000
  20500253.358      180440.96349    423534.61848  20500253.890    20500261.946
       245.000         215.000
  21130077.246    -1478886.19549  -1139061.07947  21130077.672    21130087.228
       242.000         210.000
  23495944.107    -2382402.85649  -1831854.79246  23495944.086    23495960.686
       218.000         164.000
  22678251.302      197254.73149    153976.22446  22678251.253    22678260.444
       225.000         178.000
 04  1 22 20  6 30.0000000  0  7G28G 5G24G 4G 9G17G 7
  24021567.550      772197.95649    599039.44745  24021568.614    24021582.159
       215.000         150.000
  22260535.030    -2153796.30249  -1648119.91246  22260535.012    22260545.299
       228.000         182.000
  20880647.234    -3960306.95649  -3053286.31647  20880647.259    20880657.818
       242.000         208.000
  20504246.138      201423.02349    439884.25248  20504246.825    20504254.949
       245.000         215.000
  21134779.819    -1454174.45649  -1119805.23847  21134780.186    21134790.079
       241.000         210.000
  23477341.490    -2480160.16649  -1908029.10146  23477340.975    23477357.179
       219.000         165.000
  22689981.591      258898.04249    202009.93546  22689981.563    22689991.040
       226.000         177.000
 04  1 22 20  7  0.0000000  0  7G28G 5G24G 4G 9G17G 7
  24037306.176      854904.00449    663485.37245  24037307.119    24037322.083
       213.000         150.000
  22245380.059    -2233436.63849  -1710177.25246  22245380.024    22245390.160
       228.000         182.000
  20869950.662    -4016517.85849  -3097086.96047  20869950.574    20869961.016
       242.000         208.000
  20508351.724      222997.53849    456695.55348  20508352.273    20508360.248
       246.000         215.000
  21139593.268    -1428880.25749  -1100095.53947  21139593.654    21139603.159
       242.000         209.000
  23458769.411    -2577757.29849  -1984078.57846  23458768.113    23458784.641
       219.000         165.000
  22701719.788      320581.72949    250075.09746  22701720.266    22701729.241
       225.000         177.000
 04  1 22 20  7 30.0000000  0  7G28G 5G24G 4G 9G17G 7
  24053083.062      937811.27449    728088.09045  24053083.457    24053097.583
       210.000         149.000
  22230251.353    -2312938.99949  -1772127.08046  22230250.638    22230262.471
       230.000         183.000
  20859346.752    -4072241.87449  -3140508.21247  20859346.615    20859357.139
       242.000         208.000
  20512567.736      245152.46149    473959.12148  20512568.075    20512576.194
       246.000         215.000
  21144515.278    -1403015.53949  -1079941.26547  21144515.347    21144525.469
       241.000         209.000
  23440225.983    -2675203.01549  -2060010.07246  23440224.240    23440241.570
       219.000         165.000
  22713463.457      382294.55149    298162.96346  22713462.537    22713472.306
       224.000         177.000
 04  1 22 20  8  0.0000000  0  7G28G 5G24G 4G 9G17G 7
  24068898.081     1020918.62049    792846.75545  24068898.199    24068912.644
       209.000         149.000
  22215149.116    -2392302.00549  -1833968.33246  22215148.623    22215159.289
       229.000         183.000
  20848835.546    -4127478.64749  -3183549.80147  20848835.142    20848845.630
       242.000         208.000
  20516893.754      267885.43249    491673.11748  20516894.200    20516902.301
       246.000         215.000
  21149545.406    -1376582.42649  -1059344.08847  21149545.474    21149555.374
       242.000         209.000
  23421711.368    -2772496.12049  -2135822.65146  23421709.898    23421726.789
       219.000         165.000
  22725212.266      444035.24849    346272.54346  22725211.433    22725222.034
       223.000         176.000
 04  1 22 20  8 30.0000000  0  7G28G 5G24G 4G 9G17G 7
  24084751.047     1104226.43149    857761.66145  24084750.444    24084765.640
       208.000         148.000
  22200073.896    -2471522.68149  -1895698.67646  22200073.289    22200083.257
       229.000         182.000
  20838417.449    -4182225.59749  -3226209.70747  20838417.294    20838427.646
       242.000         208.000
  20521329.787      291196.41949    509837.51048  20521329.959    20521338.101
       245.000         215.000
  21154683.740    -1349581.19349  -1038304.23047  21154683.857    21154693.675
       242.000         209.000
  23403226.386    -2869633.24549  -2211513.69046  23403225.414    23403242.710
       218.000         165.000
  22736966.573      505804.65149    394404.48246  22736966.146    22736976.807
       223.000         176.000
 04  1 22 20  9  0.0000000  0  7G28G 5G24G 4G 9G17G 7
  24100642.629     1187736.90349    922834.40945  24100642.083    24100657.682
       210.000         146.000
  22185026.652    -2550596.63449  -1957314.68246  22185025.896    22185036.634
       229.000         182.000
  20828093.540    -4236478.15649  -3268484.37447  20828093.281    20828103.976
       242.000         209.000
  20525876.117      315087.33549    528453.79848  20525876.521    20525884.491
       246.000         215.000
  21159930.479    -1322009.91649  -1016820.18147  21159931.035    21159940.203
       242.000         209.000
  23384772.362    -2966609.01749  -2287079.01146  23384771.689    23384788.843
       220.000         165.000
  22748726.836      567605.46949    442560.91046  22748727.214    22748736.993
       224.000         176.000
 04  1 22 20  9 30.0000000  0  7G28G 5G24G 4G 9G17G 7
  24116573.127     1271451.88549    988066.50545  24116573.264    24116589.604
       202.000         144.000
  22170008.190    -2629519.07349  -2018812.61846  22170007.343    22170018.707
       228.000         183.000
  20817864.511    -4290232.29649  -3310370.65547  20817864.392    20817874.769
       243.000         209.000
  20530533.015      339559.36749    547522.90248  20530533.258    20530541.542
       245.000         215.000
  21165286.009    -1293867.18049   -994890.83447  21165285.987    21165295.738
       242.000         209.000
  23366350.028    -3063418.87549  -2362515.02846  23366348.484    23366365.762
       218.000         166.000
  22760493.804      629439.70349    490743.36846  22760494.188    22760503.595
       226.000         176.000
 04  1 22 20 10  0.0000000  0  7G28G 5G24G 4G 9G17G 7
  24132542.509     1355370.95549   1053457.58545  24132544.107    24132558.023
       202.000         142.000
  22155018.846    -2708288.30749  -2080191.17446  22155018.710    22155028.908
       230.000         184.000
  20807730.499    -4343486.82849  -3351867.63347  20807730.298    20807740.637
       242.000         210.000
  20535300.142      364610.82849    567043.51848  20535300.347    20535308.647
       246.000         215.000
  21170749.896    -1265154.43849   -972517.32147  21170749.975    21170759.543
       242.000         208.000
  23347959.464    -3160060.95249  -2437820.32046  23347959.724    23347974.981
       221.000         167.000
  22772267.050      691306.96549    538951.57346  22772267.038    22772276.494
       225.000         177.000
 04  1 22 20 10 30.0000000  0  7G28G 5G24G 4G 9G17G 7
  24148551.225     1439495.39049   1119008.81745  24148552.575    24148567.406
       205.000         143.000
  22140059.455    -2786900.75149  -2141447.56446  22140058.736    22140068.987
       229.000         184.000
  20797692.115    -4396238.79549  -3392972.99047  20797691.748    20797702.331
       243.000         210.000
  20540177.699      390242.28949    587016.07848  20540177.941    20540185.799
       246.000         215.000
  21176322.367    -1235871.39349   -949699.41747  21176322.367    21176331.945
       241.000         208.000
  23329601.944    -3256530.85249  -2512991.43946  23329601.903    23329617.185
       223.000         167.000
  22784046.724      753208.76849    587186.69346  22784045.494    22784055.272
       226.000         177.000
 04  1 22 20 11  0.0000000  0  7G28G 5G24G 4G 9G17G 7
  24164598.713     1523822.41849   1184717.88445  24164600.255    24164614.914
       205.000         143.000
  22125129.788    -2865356.33849  -2202581.72046  22125129.042    22125139.902
       228.000         184.000
  20787749.298    -4448488.47049  -3433686.95447  20787749.191    20787759.499
       243.000         210.000
  20545164.987      416450.49349    607438.04948  20545165.168    20545173.542
       245.000         214.000
  21182002.715    -1206021.29149   -926439.65047  21182002.865    21182012.420
       241.000         208.000
  23311277.108    -3352828.50449  -2588028.33346  23311276.549    23311291.755
       222.000         168.000
  22795832.361      815142.84849    635446.96546  22795831.324    22795841.895
       225.000         176.000
 04  1 22 20 11 30.0000000  0  7G28G 5G24G 4G 9G17G 7
  24180684.837     1608353.69349   1250586.06845  24180684.810    24180700.763
       203.000         142.000
  22110230.725    -2943651.04149  -2263590.50746  22110230.136    22110241.217
       227.000         184.000
  20777902.700    -4500232.52349  -3474006.92647  20777902.417    20777912.794
       243.000         210.000
  20550262.136      443236.19249    628310.02348  20550262.479    20550270.491
       246.000         214.000
  21187791.205    -1175603.06749   -902737.18547  21187791.107    21187800.941
       241.000         208.000
  23292985.848    -3448949.54749  -2662927.62246  23292985.252    23293000.001
       222.000         168.000
  22807624.518      877111.06149    683733.82746  22807624.470    22807633.465
       225.000         176.000
 04  1 22 20 12  0.0000000  0  7G28G 5G24G 4G 9G17G 7
  24196809.605     1693087.71949   1316612.29245  24196811.216    24196824.746
       203.000         142.000
  22095362.460    -3021783.74049  -2324473.07046  22095361.749    22095372.650
       228.000         184.000
  20768152.494    -4551470.10149  -3513932.24747  20768152.387    20768162.625
       243.000         210.000
  20555468.854      470597.49449    649630.51548  20555469.005    20555477.381
       245.000         215.000
  21193687.241    -1144619.09249   -878593.87447  21193687.306    21193697.154
       241.000         208.000
  23274728.540    -3544892.32049  -2737687.98946  23274727.262    23274742.916
       224.000         169.000
  22819423.052      939112.41949    732046.51446  22819422.113    22819431.968
       226.000         175.000
 04  1 22 20 12 30.0000000  0  7G28G 5G24G 4G 9G17G 7
  24212972.510     1778023.16549   1382795.46545  24212973.507    24212988.852
       202.000         140.000
  22080525.259    -3099753.43849  -2385228.61046  22080525.051    22080534.947
       229.000         184.000
  20758498.745    -4602200.73549  -3553462.54147  20758498.441    20758509.209
       243.000         211.000
  20560784.516      498531.66749    671397.39648  20560784.715    20560793.206
       245.000         215.000
  21199690.626    -1113071.44549   -854011.33747  21199690.590    21199700.592
       241.000         208.000
  23256505.347    -3640655.79349  -2812308.64946  23256504.347    23256519.117
       224.000         169.000
  22831227.630     1001145.78949    780384.13946  22831228.000    22831236.658
       225.000         175.000
 04  1 22 20 13  0.0000000  0  7G28G 5G24G 4G 9G17G 7
  24229174.374     1863163.52049   1449138.27545  24229175.011    24229191.261
       201.000         141.000
  22065720.339    -3177553.84949  -2445852.23446  22065719.141    22065730.608
       230.000         184.000
  20748942.441    -4652419.14649  -3592593.70047  20748942.076    20748952.445
       244.000         210.000
  20566209.829      527041.81849    693613.08548  20566209.909    20566218.456
       246.000         215.000
  21205801.788    -1080957.19149   -828987.28447  21205801.709    21205811.735
       242.000         208.000
  23238317.441    -3736233.58949  -2886784.62446  23238316.628    23238330.925
       224.000         169.000
  22843039.103     1063215.06949    828749.75546  22843039.043    22843048.279
       226.000         175.000
 04  1 22 20 13 30.0000000  0  7G28G 5G24G 4G 9G17G 7
  24245414.316     1948504.13949   1515637.05545  24245414.319    24245430.686
       199.000         141.000
  22050947.214    -3255186.71149  -2506345.30446  22050946.268    22050956.999
       229.000         183.000
  20739483.142    -4702127.92949  -3631327.76347  20739483.175    20739492.973
       243.000         210.000
  20571743.632      556122.48549    716273.32748  20571744.078    20571752.290
       245.000         214.000
  21212019.749    -1048281.74349   -803525.93947  21212019.614    21212029.745
       241.000         208.000
  23220164.365    -3831627.21649  -2961117.09846  23220163.265    23220178.215
       222.000         169.000
  22854856.600     1125316.05049    877140.06746  22854855.992    22854865.764
       225.000         174.000
 04  1 22 20 14  0.0000000  0  7G28G 5G24G 4G 9G17G 7
  24261692.654     2034046.46549   1582293.03245  24261693.589    24261708.978
       202.000         141.000
  22036206.651    -3332648.35549  -2566704.96146  22036206.282    22036217.048
       230.000         183.000
  20730121.487    -4751323.78049  -3669662.13647  20730121.406    20730131.416
       243.000         211.000
  20577386.199      585774.16449    739378.52148  20577386.442    20577394.688
       245.000         214.000
  21218344.517    -1015044.75649   -777627.03047  21218344.516    21218354.535
       241.000         208.000
  23202047.041    -3926832.57749  -3035302.86846  23202045.698    23202061.419
       221.000         169.000
  22866680.532     1187450.40449    925556.39746  22866679.597    22866690.273
       225.000         174.000
 04  1 22 20 14 30.0000000  0  7G28G 5G24G 4G 9G17G 7
  24278009.122     2119787.90949   1649104.18545  24278010.903    24278026.063
       205.000         143.000
  22021498.779    -3409938.51749  -2626930.98346  22021498.164    22021509.157
       231.000         184.000
  20720857.335    -4800007.45449  -3707597.41147  20720857.489    20720867.185
       243.000         211.000
  20583136.711      615993.47549    762926.02648  20583137.151    20583145.687
       245.000         214.000
  21224775.596     -981249.36649   -751293.00647  21224775.873    21224785.785
       241.000         208.000
  23183965.663    -4021849.40449  -3109341.72446  23183964.256    23183979.620
       220.000         169.000
  22878510.472     1249616.16949    973997.20346  22878510.307    22878519.424
       224.000         173.000
 04  1 22 20 15  0.0000000  0  7G28G 5G24G 4G 9G17G 7
  24294363.809     2205729.59649   1716071.38845  24294364.162    24294380.285
       205.000         143.000
  22006824.226    -3487053.75149  -2687020.69546  22006823.773    22006833.850
       231.000         185.000
  20711691.105    -4848175.97049  -3745131.25447  20711690.585    20711701.144
       243.000         211.000
  20588995.384      646780.50249    786915.91848  20588995.785    20589004.130
       246.000         214.000
  21231313.001     -946895.50949   -724523.80747  21231312.878    21231323.049
       241.000         207.000
  23165920.845    -4116674.12249  -3183230.89946  23165919.658    23165934.249
       222.000         170.000
  22890346.484     1311814.58449   1022463.44846  22890346.143    22890355.546
       222.000         172.000
 04  1 22 20 15 30.0000000  0  7G28G 5G24G 4G 9G17G 7
  24310756.015     2291869.62049   1783193.15545  24310756.304    24310772.286
       206.000         143.000
  21992183.216    -3563992.96749  -2746973.25746  21992182.629    21992193.118
       231.000         186.000
  20702622.945    -4895829.02049  -3782263.45047  20702622.852    20702633.033
       243.000         211.000
  20594961.499      678132.53849    811346.07748  20594961.835    20594970.175
       246.000         214.000
  21237956.077     -911985.56749   -697321.29647  21237956.249    21237966.234
       241.000         207.000
  23147913.008    -4211305.34549  -3256969.30046  23147912.264    23147926.943
       223.000         170.000
  22902188.374     1374044.47049   1070954.22746  22902186.686    22902196.826
       221.000         171.000
 04  1 22 20 16  0.0000000  0  7G28G 5G24G 4G 9G17G 7
  24327185.790     2378206.85549   1850468.61145  24327186.010    24327202.998
       207.000         144.000
  21977575.722    -3640755.18049  -2806787.88846  21977575.361    21977585.968
       232.000         186.000
  20693653.031    -4942966.25449  -3818993.70947  20693652.852    20693662.900
       243.000         211.000
  20601034.801      710047.61249    836214.96248  20601035.090    20601043.258
       247.000         214.000
  21244704.685     -876521.92449   -669687.33647  21244704.697    21244714.743
       241.000         208.000
  23129942.215    -4305741.66149  -3330555.82146  23129941.954    23129956.359
       222.000         171.000
  22914035.930     1436304.87849   1119468.78946  22914035.983    22914045.649
       219.000         170.000
 04  1 22 20 16 30.0000000  0  7G28G 5G24G 4G 9G17G 7
  24343653.182     2464742.49449   1917898.72245  24343654.629    24343669.065
       206.000         146.000
  21963002.741    -3717336.13749  -2866461.29246  21963002.720    21963012.651
       232.000         187.000
  20684781.747    -4989584.71249  -3855319.72747  20684781.574    20684791.692
       243.000         211.000
  20607215.230      742525.98949    861522.78148  20607215.671    20607223.799
       247.000         214.000
  21251558.742     -840504.12749   -641621.56947  21251559.242    21251568.743
       242.000         208.000
  23112009.295    -4399978.76849  -3403987.12346  23112008.519    23112023.348
       222.000         171.000
  22925889.764     1498597.69249   1168008.60446  22925888.847    22925899.244
       220.000         171.000
 04  1 22 20 17  0.0000000  0  7G28G 5G24G 4G 9G17G 7
  24360157.646     2551473.72449   1985481.23945  24360157.754    24360175.469
       201.000         145.000
  21948464.307    -3793735.93649  -2925993.52747  21948463.625    21948474.683
       233.000         188.000
  20676009.088    -5035685.10649  -3891242.05347  20676008.957    20676019.210
       243.000         211.000
  20613502.219      775564.12049    887266.76448  20613502.529    20613510.571
       247.000         214.000
  21258517.548     -803935.85249   -613126.85847  21258517.395    21258527.600
       241.000         208.000
  23094114.365    -4494016.57449  -3477263.10246  23094113.308    23094128.532
       222.000         172.000
  22937749.457     1560920.59749   1216571.88246  22937749.117    22937759.361
       221.000         170.000
 04  1 22 20 17 30.0000000  0  7G28G 5G24G 4G 9G17G 7
  24376699.368     2638400.44749   2053216.08945  24376698.443    24376716.660
       203.000         143.000
  21933960.842    -3869951.98549  -2985382.58846  21933960.235    21933970.458
       232.000         187.000
  20667335.317    -5081265.85549  -3926759.47247  20667335.272    20667345.238
       243.000         211.000
  20619895.499      809160.83949    913446.01148  20619895.753    20619903.836
       247.000         213.000
  21265580.767     -766818.22949   -584204.08447  21265580.865    21265590.544
       241.000         207.000
  23076257.786    -4587852.60949  -3550381.88346  23076256.590    23076270.976
       223.000         173.000
  22949614.983     1623273.89349   1265158.81846  22949614.872    22949624.964
       221.000         171.000
 04  1 22 20 18  0.0000000  0  7G28G 5G24G 4G 9G17G 7
  24393277.944     2725521.73949   2121102.53845  24393278.195    24393295.911
       204.000         143.000
  21919492.677    -3945982.56049  -3044627.12946  21919492.551    21919502.131
       231.000         186.000
  20658760.633    -5126325.98249  -3961871.20447  20658760.758    20658770.772
       244.000         212.000
  20626394.690      843314.38349    940059.14948  20626395.104    20626403.383
       247.000         213.000
  21272748.272     -729152.98049   -554854.59347  21272748.603    21272758.181
       241.000         207.000
  23058440.070    -4681484.83649  -3623341.85846  23058439.774    23058454.021
       224.000         173.000
  22961486.160     1685657.21849   1313769.16746  22961486.324    22961495.712
       220.000         171.000
 04  1 22 20 18 30.0000000  0  7G28G 5G24G 4G 9G17G 7
  24409893.440     2812836.75549   2189139.97045  24409893.802    24409911.070
       199.000         143.000
  21905060.188    -4021825.63849  -3103725.56546  21905059.973    21905070.041
       233.000         187.000
  20650285.309    -5170864.33749  -3996576.35647  20650285.055    20650295.288
       245.000         212.000
  20632999.530      878022.95649    967104.77948  20632999.861    20633007.804
       247.000         213.000
  21280019.759     -690941.48249   -525079.44447  21280019.739    21280029.606
       241.000         207.000
  23040661.487    -4774910.94549  -3696141.21546  23040660.553    23040675.751
       223.000         174.000
  22973363.031     1748070.35249   1362402.73946  22973362.512    22973372.674
       220.000         170.000
 04  1 22 20 19  0.0000000  0  7G28G 5G24G 4G 9G17G 7
  24426545.820     2900345.21349   2257328.09745  24426546.794    24426563.457
       204.000         142.000
  21890664.004    -4097478.65149  -3162675.91147  21890663.429    21890673.587
       233.000         188.000
  20641909.406    -5214879.50949  -4030873.83047  20641909.064    20641919.459
       245.000         212.000
  20639709.748      913285.28449    994581.91348  20639710.026    20639718.093
       247.000         213.000
  21287394.802     -652185.37449   -494879.93447  21287394.963    21287404.757
       241.000         207.000
  23022922.513    -4868128.80849  -3768778.30146  23022921.623    23022936.066
       224.000         174.000
  22985245.495     1810513.46949   1411059.68546  22985244.696    22985255.121
       220.000         170.000
 04  1 22 20 19 30.0000000  0  7G28G 5G24G 4G 9G17G 7
  24443234.961     2988045.38449   2325665.62845  24443235.880    24443252.078
       206.000         141.000
  21876303.924    -4172940.77349  -3221477.49647  21876303.160    21876313.391
       231.000         188.000
  20633633.070    -5258371.56349  -4064763.68047  20633632.843    20633643.144
       245.000         212.000
  20646524.800      949098.69649   1022488.46548  20646524.998    20646533.250
       246.000         213.000
  21294872.996     -612887.24349   -464258.06347  21294872.896    21294882.814
       240.000         206.000
  23005223.560    -4961136.90749  -3841251.93246  23005223.075    23005237.377
       225.000         175.000
  22997133.636     1872985.42049   1459739.08446  22997133.536    22997143.111
       220.000         170.000
 04  1 22 20 20  0.0000000  0  7G28G 5G24G 4G 9G17G 7
  24459960.304     3075936.20649   2394151.72645  24459961.691    24459978.508
       207.000         144.000
  21861980.463    -4248210.16749  -3280128.89747  21861980.216    21861990.944
       231.000         188.000
  20625456.349    -5301340.12249  -4098245.60947  20625456.064    20625466.433
       245.000         212.000
  20653444.351      985461.12249   1050822.81948  20653444.538    20653452.860
       247.000         213.000
  21302454.021     -573049.09049   -433215.41147  21302454.348    21302463.743
       241.000         206.000
  22987564.742    -5053933.85149  -3913561.02446  22987564.550    22987578.460
       226.000         176.000
  23009027.303     1935485.70149   1508440.57346  23009027.562    23009036.481
       220.000         169.000
 04  1 22 20 20 30.0000000  0  7G28G 5G24G 4G 9G17G 7
  24476721.721     3164017.07249   2462785.87445  24476722.098    24476739.057
       206.000         143.000
  21847694.259    -4323284.70849  -3338628.47047  21847693.816    21847704.556
       232.000         189.000
  20617379.600    -5343783.61649  -4131318.39947  20617379.415    20617389.631
       244.000         212.000
  20660468.038     1022371.10849   1079583.84148  20660468.465    20660476.885
       247.000         214.000
  21310137.470     -532672.49949   -401753.18947  21310137.369    21310147.300
       240.000         206.000
  22969946.620    -5146517.07849  -3985703.60046  22969944.848    22969959.639
       224.000         176.000
  23020926.055     1998014.34849   1557164.13346  23020925.695    23020935.399
       218.000         169.000
 04  1 22 20 21  0.0000000  0  7G28G 5G24G 4G 9G17G 7
  24493519.633     3252288.84949   2531568.80845  24493521.688    24493537.170
       206.000         143.000
  21833445.756    -4398161.16249  -3396973.69247  21833445.490    21833455.326
       232.000         190.000
  20609403.140    -5385699.83749  -4163980.32447  20609402.837    20609413.088
       244.000         212.000
  20667595.974     1059828.41149   1108771.33848  20667596.241    20667604.822
       247.000         214.000
  21317923.242     -491757.84649   -369871.69947  21317923.189    21317933.447
       240.000         205.000
  22952369.793    -5238883.02149  -4057676.85646  22952368.826    22952383.523
       224.000         175.000
  23032830.494     2060572.63249   1605910.80446  23032830.783    23032840.028
       220.000         169.000
 04  1 22 20 21 30.0000000  0  6G 5G24G 4G 9G17G 7
  21819235.573    -4472835.87149  -3455161.70547  21819234.608    21819245.436
       232.000         190.000
  20601527.430    -5427086.60349  -4196229.69147  20601527.409    20601537.221
       245.000         212.000
  20674827.897     1097832.23249   1138384.69248  20674828.404    20674836.619
       247.000         214.000
  21325811.396     -450305.62849   -337571.33347  21325811.538    21325821.434
       241.000         206.000
  22934834.912    -5331028.49149  -4129478.32246  22934833.965    22934848.519
       225.000         176.000
  23044740.947     2123161.47949   1654681.28446  23044740.698    23044750.379
       220.000         170.000
 04  1 22 20 22  0.0000000  0  6G 5G24G 4G 9G17G 7
  21805063.971    -4547308.05249  -3513191.90147  21805063.359    21805073.750
       232.000         190.000
  20593752.522    -5467943.82149  -4228066.41847  20593752.292    20593762.577
       245.000         212.000
  20682163.247     1136379.52849   1168421.54048  20682163.636    20682171.947
       247.000         214.000
  21333801.305     -408318.91249   -304854.46347  21333801.217    21333811.401
       240.000         206.000
  22917342.211    -5422952.51249  -4201107.23846  22917341.165    22917355.652
       224.000         176.000
  23056656.791     2185779.81549   1703474.76646  23056656.219    23056666.641
       219.000         169.000
 04  1 22 20 22 30.0000000  0  6G 5G24G 4G 9G17G 7
  21790930.679    -4621578.60749  -3571064.98947  21790930.183    21790940.251
       232.000         190.000
  20586077.965    -5508273.84849  -4259492.34847  20586077.665    20586087.451
       245.000         212.000
  20689601.072     1175465.57949   1198878.19948  20689601.427    20689609.511
       247.000         213.000
  21341891.904     -365802.49249   -271724.85247  21341892.195    21341902.079
       240.000         205.000
  22899891.447    -5514655.90249  -4272564.22346  22899890.456    22899905.252
       224.000         176.000
  23068577.722     2248424.20049   1752288.54946  23068576.597    23068587.125
       216.000         168.000
 04  1 22 20 23  0.0000000  0  6G 5G24G 4G 9G17G 7
  21776836.663    -4695642.96249  -3628777.40647  21776836.160    21776846.398
       232.000         190.000
  20578504.344    -5548073.25349  -4290504.80847  20578504.368    20578514.036
       245.000         212.000
  20697141.643     1215091.45449   1229755.50248  20697141.837    20697150.105
       246.000         213.000
  21350083.574     -322755.45749   -238181.77047  21350083.785    21350093.893
       240.000         206.000
  22882483.587    -5606133.84249  -4343845.55046  22882482.017    22882497.403
       224.000         176.000
  23080503.772     2311097.36949   1801124.75446  23080503.420    23080513.064
       217.000         168.000
 04  1 22 20 23 30.0000000  0  6G 5G24G 4G 9G17G 7
  21762781.657    -4769502.11649  -3686329.91947  21762780.810    21762791.252
       233.000         190.000
  20571031.321    -5587344.39649  -4321105.63647  20571031.022    20571041.143
       245.000         212.000
  20704783.928     1255251.99449   1261049.43048  20704784.296    20704792.402
       246.000         213.000
  21358375.226     -279182.74649   -204229.07147  21358375.684    21358385.441
       241.000         206.000
  22865118.316    -5697387.59149  -4414952.17346  22865117.469    22865131.875
       224.000         177.000
  23092434.906     2373796.07549   1849980.85846  23092434.380    23092444.782
       217.000         167.000
 04  1 22 20 24  0.0000000  0  6G 5G24G 4G 9G17G 7
  21748766.554    -4843151.17149  -3743718.72047  21748765.903    21748776.036
       232.000         191.000
  20563659.491    -5626083.27749  -4351291.70447  20563659.425    20563669.161
       245.000         212.000
  20712528.136     1295947.99149   1292760.60047  20712528.235    20712536.344
       246.000         212.000
  21366767.157     -235083.56449   -169866.12847  21366767.055    21366777.370
       240.000         206.000
  22847796.716    -5788412.34849  -4485880.37546  22847796.270    22847810.127
       224.000         177.000
  23104371.571     2436522.93249   1898858.90346  23104372.056    23104382.171
       219.000         168.000
 04  1 22 20 24 30.0000000  0  6G 5G24G 4G 9G17G 7
  21734791.585    -4916589.72849  -3800943.49547  21734791.347    21734801.093
       233.000         191.000
  20556388.787    -5664291.00249  -4381063.89048  20556388.408    20556398.460
       245.000         213.000
  20720373.534     1337176.03949   1324886.34847  20720373.954    20720382.065
       246.000         212.000
  21375258.477     -190461.38949   -135095.66947  21375258.856    21375268.770
       240.000         206.000
  22830518.712    -5879207.79149  -4556629.88346  22830518.061    22830532.241
       225.000         178.000
  23116313.281     2499275.92549   1947757.30246  23116313.029    23116322.701
       219.000         167.000
 04  1 22 20 25  0.0000000  0  6G 5G24G 4G 9G17G 7
  21720857.214    -4989815.48349  -3858002.45047  21720857.054    21720867.253
       234.000         192.000
  20549219.306    -5701966.59349  -4410421.42248  20549219.232    20549228.971
       245.000         213.000
  20728319.914     1378934.41949   1357425.34548  20728320.342    20728328.520
       246.000         213.000
  21383849.091     -145317.93249    -99919.01347  21383849.409    21383859.325
       240.000         206.000
  22813284.892    -5969771.31149  -4627198.66746  22813284.162    22813298.392
       226.000         178.000
  23128260.019     2562055.58749   1996676.47746  23128259.789    23128269.069
       217.000         167.000
 04  1 22 20 25 30.0000000  0  6G 5G24G 4G 9G17G 7
  21706963.670    -5062826.44249  -3914894.03047  21706962.722    21706973.947
       233.000         193.000
  20542151.368    -5739109.02049  -4439363.50348  20542151.115    20542160.850
       244.000         213.000
  20736366.821     1421221.29749   1390376.15747  20736367.042    20736375.452
       245.000         212.000
  21392538.601      -99655.02749    -64337.59247  21392538.893    21392548.892
       240.000         205.000
  22796095.818    -6060100.80849  -4697585.10746  22796095.442    22796108.958
       228.000         180.000
  23140211.606     2624861.78149   2045616.33246  23140211.465    23140220.968
       217.000         167.000
 04  1 22 20 26  0.0000000  0  6G 5G24G 4G 9G17G 7
  21693111.635    -5135619.04649  -3971615.46247  21693111.142    21693121.265
       233.000         192.000
  20535185.143    -5775716.54949  -4467888.79248  20535184.897    20535194.824
       244.000         213.000
  20744514.227     1464036.13449   1423738.36047  20744514.591    20744522.906
       246.000         212.000
  21401326.765      -53473.20549    -28351.82547  21401326.920    21401336.685
       240.000         205.000
  22778951.840    -6150193.08049  -4767786.70846  22778951.060    22778965.322
       228.000         180.000
  23152168.492     2687695.59949   2094577.71046  23152168.627    23152178.002
       218.000         167.000
 04  1 22 20 26 30.0000000  0  6G 5G24G 4G 9G17G 7
  21679301.046    -5208194.06549  -4028167.35547  21679300.333    21679310.841
       233.000         192.000
  20528320.300    -5811791.46749  -4495999.06048  20528320.160    20528330.091
       244.000         213.000
  20752761.131     1507373.91149   1457508.05247  20752761.282    20752769.770
       245.000         212.000
  21410212.717       -6777.58549      8034.30547  21410212.918    21410222.784
       239.000         205.000
  22761852.743    -6240049.01649  -4837804.12746  22761852.098    22761865.962
       228.000         180.000
  23164130.162     2750554.07249   2143558.29746  23164129.537    23164139.201
       217.000         167.000
 04  1 22 20 27  0.0000000  0  6G 5G24G 4G 9G17G 7
  21665532.675    -5280546.72649  -4084545.98647  21665532.304    21665542.433
       233.000         192.000
  20521557.476    -5847330.06449  -4523691.40948  20521557.172    20521567.124
       243.000         213.000
  20761107.692     1551235.49149   1491685.90947  20761108.284    20761116.524
       246.000         212.000
  21419196.540       40432.61249     44821.41747  21419196.619    21419206.686
       240.000         205.000
  22744799.506    -6329663.65849  -4907633.52846  22744798.823    22744812.614
       227.000         180.000
  23176096.883     2813439.90749   2192560.21546  23176096.113    23176106.318
       218.000         167.000
 04  1 22 20 27 30.0000000  0  6G 5G24G 4G 9G17G 7
  21651807.019    -5352675.50749  -4140750.17347  21651806.636    21651816.821
       233.000         192.000
  20514896.756    -5882332.25149  -4550965.78248  20514896.533    20514906.256
       244.000         213.000
  20769553.553     1595618.27449   1526269.89948  20769553.917    20769562.210
       246.000         213.000
  21428277.802       88154.74349     82007.43447  21428277.902    21428287.895
       240.000         205.000
  22727792.430    -6419035.68149  -4977273.87946  22727791.687    22727805.804
       228.000         181.000
  23188068.745     2876352.25349   2241582.78146  23188068.744    23188078.393
       220.000         167.000
 04  1 22 20 28  0.0000000  0  6G 5G24G 4G 9G17G 7
  21638124.394    -5424578.15749  -4196778.14747  21638123.988    21638134.317
       234.000         193.000
  20508338.279    -5916797.25949  -4577821.56948  20508338.123    20508347.855
       244.000         213.000
  20778098.197     1640520.41849   1561258.58748  20778098.452    20778106.772
       246.000         213.000
  21437456.213      136387.15249    119591.06447  21437456.198    21437466.477
       240.000         205.000
  22710832.067    -6508163.05049  -5046723.58646  22710831.109    22710844.815
       228.000         181.000
  23200045.696     2939291.36949   2290626.20946  23200044.883    23200055.043
       218.000         168.000
 04  1 22 20 28 30.0000000  0  6G 5G24G 4G 9G17G 7
  21624484.964    -5496253.64649  -4252629.11347  21624484.601    21624494.421
       234.000         193.000
  20501881.941    -5950725.30449  -4604258.94448  20501881.523    20501891.658
       244.000         213.000
  20786741.031     1685938.96449   1596649.67048  20786741.288    20786749.755
       246.000         213.000
  21446731.050      185126.75649    157569.91247  21446731.237    21446741.400
       240.000         205.000
  22693918.400    -6597044.45349  -5115981.63046  22693917.208    22693930.778
       227.000         181.000
  23212027.574     3002256.20049   2339689.66546  23212027.558    23212036.615
       221.000         168.000
 04  1 22 20 29  0.0000000  0  6G 5G24G 4G 9G17G 7
  21610889.393    -5567698.66449  -4308300.48547  21610888.833    21610899.200
       233.000         194.000
  20495527.921    -5984115.60849  -4630277.30748  20495527.871    20495537.588
       245.000         214.000
  20795481.914     1731872.36349   1632441.93848  20795482.277    20795490.649
       247.000         213.000
  21456102.224      234372.04149    195942.79647  21456102.539    21456112.532
       240.000         205.000
  22677051.801    -6685677.50149  -5185046.14246  22677050.465    22677064.499
       227.000         180.000
  23224014.554     3065247.23449   2388773.55646  23224014.579    23224024.031
       220.000         168.000
 04  1 22 20 29 30.0000000  0  6G 5G24G 4G 9G17G 7
  21597337.642    -5638913.25149  -4363792.31447  21597337.494    21597347.271
       235.000         194.000
  20489276.172    -6016968.88049  -4655877.20548  20489276.149    20489285.734
       245.000         214.000
  20804320.111     1778317.17049   1668632.69248  20804320.728    20804328.844
       246.000         213.000
  21465568.891      284119.36349    234706.87147  21465569.176    21465579.010
       239.000         205.000
  22660232.689    -6774061.59049  -5253916.66446  22660231.838    22660245.374
       227.000         181.000
  23236006.190     3128262.98249   2437876.68346  23236005.828    23236015.291
       219.000         168.000
 04  1 22 20 30  0.0000000  0  6G 5G24G 4G 9G17G 7
  21583830.460    -5709894.05049  -4419101.96047  21583830.045    21583840.010
       235.000         194.000
  20483126.914    -6049283.22249  -4681057.15348  20483126.597    20483136.318
       245.000         214.000
  20813255.447     1825272.35649   1705221.15448  20813255.713    20813263.659
       247.000         213.000
  21475130.876      334367.76449    273861.41547  21475130.936    21475141.045
       240.000         204.000
  22643461.549    -6862193.45149  -5322590.63646  22643460.758    22643475.172
       227.000         181.000
  23248002.424     3191304.50449   2486999.89946  23248002.053    23248012.121
       218.000         168.000
 04  1 22 20 30 30.0000000  0  6G 5G24G 4G 9G17G 7
  21570368.094    -5780638.58949  -4474227.51447  21570368.015    21570377.245
       234.000         195.000
  20477080.393    -6081057.58149  -4705816.33048  20477080.142    20477089.757
       244.000         214.000
  20822287.535     1872736.29849   1742206.04647  20822287.890    20822295.931
       246.000         212.000
  21484787.877      385115.49149    313405.03647  21484787.911    21484798.637
       239.000         204.000
  22626738.837    -6950071.03749  -5391066.47146  22626737.526    22626751.285
       228.000         181.000
  23260003.821     3254372.08449   2536143.40846  23260003.465    23260013.741
       218.000         168.000
 04  1 22 20 31  0.0000000  0  6G 5G24G 4G 9G17G 7
  21556950.745    -5851147.35849  -4529169.35847  21556950.264    21556959.928
       235.000         195.000
  20471136.138    -6112294.57549  -4730156.78948  20471135.947    20471145.503
       244.000         214.000
  20831415.524     1920704.20949   1779583.63447  20831415.701    20831423.934
       246.000         212.000
  21494539.005      436357.70849    353333.97647  21494539.350    21494549.584
       239.000         204.000
  22610064.478    -7037694.78849  -5459344.52346  22610063.429    22610077.110
       228.000         182.000
  23272009.718     3317463.16549   2585305.24346  23272008.983    23272019.810
       217.000         167.000
 04  1 22 20 31 30.0000000  0  6G 5G24G 4G 9G17G 7
  21543579.366    -5921414.57949  -4583922.96847  21543578.621    21543589.151
       234.000         195.000
  20465294.937    -6142989.98449  -4754075.23548  20465294.731    20465304.335
       244.000         214.000
  20840639.686     1969177.43049   1817354.98747  20840639.865    20840648.192
       246.000         212.000
  21504384.401      488095.63749    393649.19147  21504384.624    21504394.852
       238.000         203.000
  22593439.420    -7125059.22149  -5527420.50446  22593438.318    22593451.467
       228.000         182.000
  23284020.581     3380580.96749   2634487.88846  23284019.599    23284031.041
       215.000         166.000
 04  1 22 20 32  0.0000000  0  6G 5G24G 4G 9G17G 7
  21530253.816    -5991440.25449  -4638488.36547  21530253.476    21530263.394
       234.000         196.000
  20459556.461    -6173145.47749  -4777572.96848  20459556.344    20459565.785
       244.000         214.000
  20849959.165     2018151.68449   1855516.74647  20849959.543    20849967.857
       246.000         212.000
  21514323.337      540325.07849    434347.39347  21514323.434    21514333.706
       239.000         203.000
  22576863.499    -7212164.88849  -5595294.85246  22576863.123    22576876.813
       228.000         183.000
  23296036.072     3443723.38249   2683689.71146  23296035.670    23296046.070
       217.000         165.000
 04  1 22 20 32 30.0000000  0  6G 5G24G 4G 9G17G 7
  21516974.642    -6061222.53849  -4692864.10047  21516974.169    21516984.048
       234.000         196.000
  20453920.826    -6202760.79649  -4800649.78448  20453920.755    20453930.243
       245.000         214.000
  20859373.621     2067624.86249   1894067.27747  20859373.866    20859381.986
       245.000         212.000
  21524355.433      593043.90949    475426.93947  21524355.569    21524365.776
       239.000         203.000
  22560337.479    -7299009.59849  -5662965.84846  22560336.464    22560349.618
       230.000         184.000
  23308056.365     3506890.50349   2732910.80246  23308056.119    23308066.197
       216.000         164.000
 04  1 22 20 33  0.0000000  0  6G 5G24G 4G 9G17G 7
  21503742.645    -6130756.81049  -4747046.58247  21503742.169    21503752.021
       234.000         195.000
  20448388.518    -6231833.07749  -4823303.46048  20448388.175    20448398.076
       244.000         214.000
  20868883.011     2117597.05949   1933006.64047  20868883.073    20868891.557
       244.000         211.000
  21534480.672      646251.97349    516887.70047  21534480.849    21534491.312
       238.000         203.000
  22543861.870    -7385588.97849  -5730430.11246  22543861.220    22543874.527
       229.000         184.000
  23320081.785     3570084.49949   2782152.81846  23320081.274    23320091.844
       217.000         165.000
 04  1 22 20 33 30.0000000  0  6G 5G24G 4G 9G17G 7
  21490557.511    -6200044.66049  -4801037.05147  21490556.937    21490567.229
       235.000         196.000
  20442958.748    -6260366.01849  -4845536.86948  20442958.694    20442968.280
       244.000         214.000
  20878486.104     2168062.13749   1972330.06647  20878485.995    20878494.747
       243.000         211.000
  21544697.776      699943.23049    558724.98047  21544697.926    21544708.438
       238.000         203.000
  22527436.232    -7471905.40249  -5797689.46646  22527435.231    22527449.014
       231.000         184.000
  23332111.750     3633301.43949   2831412.70546  23332111.375    23332121.889
       217.000         165.000
 04  1 22 20 34  0.0000000  0  6G 5G24G 4G 9G17G 7
  21477420.120    -6269081.75449  -4854832.12747  21477419.552    21477429.535
       237.000         196.000
  20437632.316    -6288356.55349  -4867347.62648  20437632.132    20437641.801
       244.000         214.000
  20888183.079     2219020.48449   2012037.85147  20888183.322    20888191.546
       244.000         211.000
  21555006.952      754117.90449    600938.95047  21555007.399    21555017.801
       239.000         203.000
  22511061.522    -7557954.09249  -5864740.20046  22511060.387    22511074.277
       230.000         185.000
  23344146.512     3696543.84649   2880692.44446  23344146.334    23344156.483
       219.000         165.000
 04  1 22 20 34 30.0000000  0  6G 5G24G 4G 9G17G 7
  21464330.834    -6337866.41449  -4908430.49947  21464330.403    21464340.000
       236.000         197.000
  20432408.972    -6315805.15249  -4888736.09248  20432409.058    20432418.606
       244.000         214.000
  20897973.390     2270469.33249   2052127.86047  20897973.584    20897982.234
       244.000         211.000
  21565407.654      808773.25249    643527.46147  21565407.979    21565418.376
       239.000         203.000
  22494738.005    -7643733.86649  -5931581.38546  22494737.437    22494750.068
       230.000         186.000
  23356186.008     3759811.15349   2929991.59846  23356186.269    23356195.611
       219.000         167.000
 04  1 22 20 35  0.0000000  0  6G 5G24G 4G 9G17G 7
  21451290.170    -6406395.68049  -4961829.86647  21451289.821    21451299.674
       237.000         197.000
  20427289.102    -6342710.59349  -4909701.32148  20427289.232    20427298.434
       245.000         215.000
  20907856.876     2322407.35649   2092599.04547  20907857.172    20907865.742
       244.000         211.000
  21575899.462      863907.79849    686489.37247  21575899.695    21575910.239
       239.000         203.000
  22478466.252    -7729242.05049  -5998210.94646  22478465.182    22478478.589
       232.000         186.000
  23368230.400     3823104.20049   2979310.79446  23368229.831    23368240.732
       219.000         167.000
 04  1 22 20 35 30.0000000  0  6G 5G24G 4G 9G17G 7
  21438297.816    -6474671.06549  -5015031.41247  21438297.505    21438307.495
       237.000         198.000
  20422271.893    -6369076.26649  -4930245.94748  20422271.815    20422281.087
       245.000         215.000
  20917832.335     2374828.37249   2133446.58847  20917832.976    20917840.964
       244.000         211.000
  21586481.323      919515.65549    729820.09047  21586481.710    21586492.057
       239.000         203.000
  22462245.873    -7814480.27649  -6064630.15546  22462244.732    22462259.283
       232.000         187.000
  23380278.836     3886419.01849   3028646.96946  23380277.950    23380288.413
       218.000         166.000
 04  1 22 20 36  0.0000000  0  6G 5G24G 4G 9G17G 7
  21425355.398    -6542683.82749  -5068028.31047  21425354.776    21425364.834
       237.000         198.000
  20417358.719    -6394895.14649  -4950364.50948  20417358.697    20417368.044
       245.000         215.000
  20927900.565     2427736.96949   2174674.06147  20927900.696    20927909.352
       244.000         211.000
  21597154.121      975601.01349    773522.88747  21597154.531    21597164.743
       239.000         203.000
  22446078.311    -7899440.10849  -6130832.43947  22446077.734    22446090.807
       231.000         188.000
  23392332.735     3949762.58749   3078005.53846  23392332.575    23392342.736
       217.000         166.000
 04  1 22 20 36 30.0000000  0  6G 5G24G 4G 9G17G 7
  21412462.201    -6610437.52849  -5120823.34047  21412461.451    21412471.725
       236.000         198.000
  20412548.513    -6420172.98149  -4970061.48048  20412548.317    20412557.818
       245.000         215.000
  20938059.974     2481125.09149   2216275.18647  20938060.213    20938068.705
       244.000         210.000
  21607916.191     1032155.48349    817591.22747  21607916.721    21607927.170
       239.000         204.000
  22429963.114    -7984125.75249  -6196821.06547  22429962.300    22429976.105
       232.000         188.000
  23404390.931     4013128.96049   3127381.89146  23404390.558    23404400.517
       218.000         165.000
 04  1 22 20 37  0.0000000  0  6G 5G24G 4G 9G17G 7
  21399619.103    -6677928.06349  -5173413.31347  21399618.732    21399628.292
       237.000         199.000
  20407841.615    -6444907.53049  -4989335.10648  20407841.425    20407850.855
       244.000         215.000
  20948310.616     2534992.36249   2258249.67847  20948310.806    20948319.159
       244.000         210.000
  21618767.470     1089178.95449    862025.01347  21618767.589    21618778.068
       238.000         203.000
  22413900.775    -8068532.96849  -6262592.73747  22413899.840    22413913.731
       232.000         188.000
  23416453.787     4076520.12049   3176777.55546  23416452.737    23416463.844
       217.000         164.000
 04  1 22 20 37 30.0000000  0  6G 5G24G 4G 9G17G 7
  21386826.654    -6745152.47949  -5225795.91947  21386826.258    21386836.314
       237.000         199.000
  20403238.335    -6469097.78549  -5008184.60848  20403238.232    20403247.504
       245.000         215.000
  20958652.143     2589337.44649   2300596.47647  20958652.417    20958660.872
       244.000         210.000
  21629707.676     1146669.89049    906823.05847  21629707.945    21629718.487
       238.000         203.000
  22397891.978    -8152659.05249  -6328145.34247  22397890.893    22397904.771
       232.000         188.000
  23428521.529     4139937.23049   3226193.44046  23428521.302    23428531.987
       217.000         164.000
 04  1 22 20 38  0.0000000  0  6G 5G24G 4G 9G17G 7
  21374084.665    -6812111.76549  -5277971.92647  21374084.509    21374094.090
       237.000         199.000
  20398738.162    -6492746.08949  -5026611.81348  20398738.018    20398747.349
       244.000         215.000
  20969083.611     2644155.19149   2343311.58747  20969084.025    20969092.135
       244.000         210.000
  21640735.859     1204622.90349    951981.15747  21640736.350    21640746.809
       238.000         203.000
  22381936.508    -8236505.16049  -6393479.78747  22381935.788    22381949.209
       232.000         189.000
  23440593.796     4203377.17949   3275627.12046  23440594.334    23440604.175
       219.000         164.000
 04  1 22 20 38 30.0000000  0  6G 5G24G 4G 9G17G 7
  21361394.068    -6878801.52749  -5329937.91547  21361393.815    21361402.982
       237.000         200.000
  20394341.519    -6515850.34149  -5044615.07748  20394341.501    20394350.829
       244.000         215.000
  20979605.051     2699445.51649   2386394.94047  20979605.331    20979613.546
       244.000         209.000
  21651851.921     1263037.82549    997499.17247  21651851.965    21651862.490
       238.000         202.000
  22366035.071    -8320067.10449  -6458592.80547  22366034.047    22366047.594
       230.000         189.000
  23452671.034     4266842.31549   3325080.40646  23452670.664    23452680.953
       219.000         165.000
 04  1 22 20 39  0.0000000  0  6G 5G24G 4G 9G17G 7
  21348754.980    -6945220.03049  -5381692.53347  21348754.475    21348764.290
       238.000         200.000
  20390048.160    -6538411.79049  -5062195.37848  20390047.934    20390057.629
       244.000         215.000
  20990215.711     2755204.79949   2429843.71247  20990215.826    20990224.342
       244.000         209.000
  21663055.161     1321911.11149   1043374.35047  21663055.449    21663066.079
       238.000         202.000
  22350187.791    -8403344.43049  -6523484.04147  22350186.958    22350199.858
       231.000         189.000
  23464752.692     4330331.46649   3374552.40546  23464752.840    23464762.438
       218.000         165.000
 04  1 22 20 39 30.0000000  0  6G 5G24G 4G 9G17G 7
  21336167.925    -7011365.26949  -5433234.22147  21336167.299    21336177.314
       237.000         200.000
  20385858.180    -6560430.10749  -5079352.46448  20385858.124    20385867.648
       245.000         215.000
  21000915.126     2811430.91849   2473656.24847  21000915.539    21000923.612
       244.000         209.000
  21674345.331     1381240.58149   1089604.99547  21674345.543    21674356.240
       238.000         202.000
  22334395.160    -8486334.79949  -6588151.68047  22334394.191    22334407.105
       232.000         189.000
  23476838.894     4393844.73049   3424043.20646  23476839.182    23476849.338
       218.000         165.000
 04  1 22 20 40  0.0000000  0  6G 5G24G 4G 9G17G 7
  21323633.300    -7077234.84049  -5484561.10447  21323633.156    21323642.738
       238.000         200.000
  20381771.805    -6581904.13049  -5096085.42048  20381771.623    20381781.138
       245.000         215.000
  21011703.179     2868122.29949   2517831.34147  21011703.810    21011711.664
       245.000         209.000
  21685721.928     1441024.47249   1136189.74247  21685722.217    21685732.932
       238.000         202.000
  22318657.499    -8569035.99549  -6652593.98247  22318656.975    22318669.588
       231.000         189.000
  23488929.847     4457383.07849   3473553.57546  23488929.213    23488940.555
       219.000         165.000
 04  1 22 20 40 30.0000000  0  6G 5G24G 4G 9G17G 7
  21311151.656    -7142826.70549  -5535671.59247  21311151.657    21311161.011
       239.000         201.000
  20377788.851    -6602834.45349  -5112394.71848  20377788.760    20377798.240
       244.000         215.000
  21022579.173     2925275.79349   2562366.51847  21022579.411    21022587.842
       244.000         209.000
  21697184.382     1501259.63149   1183126.13747  21697184.901    21697195.645
       238.000         202.000
  22302975.022    -8651446.89849  -6716810.08147  22302973.783    22302986.946
       231.000         189.000
  23501025.510     4520945.72149   3523082.85046  23501025.988    23501035.595
       220.000         165.000
 04  1 22 20 41  0.0000000  0  6G 5G24G 4G 9G17G 7
  21298723.090    -7208139.44949  -5586564.59447  21298722.561    21298732.248
       239.000         202.000
  20373909.241    -6623221.78149  -5128280.90348  20373909.176    20373918.514
       245.000         216.000
  21033542.543     2982888.65849   2607259.65047  21033543.091    21033551.269
       244.000         209.000
  21708732.139     1561942.96649   1230411.74847  21708732.367    21708742.884
       237.000         201.000
  22287348.120    -8733566.16849  -6780798.94647  22287347.610    22287359.782
       232.000         190.000
  23513125.829     4584532.23049   3572630.73246  23513125.852    23513135.494
       219.000         165.000
 04  1 22 20 41 30.0000000  0  6G 5G24G 4G 9G17G 7
  21286348.175    -7273169.70749  -5637237.46947  21286347.728    21286357.357
       239.000         202.000
  20370133.267    -6643064.82549  -5143742.97248  20370132.990    20370142.594
       245.000         216.000
  21044593.189     3040959.89549   2652509.95047  21044593.591    21044601.750
       244.000         209.000
  21720364.856     1623073.35849   1278045.70447  21720364.734    21720375.871
       237.000         201.000
  22271777.311    -8815390.80649  -6844558.23547  22271776.690    22271789.834
       232.000         190.000
  23525230.810     4648143.92749   3622198.19946  23525230.812    23525241.257
       218.000         165.000
 04  1 22 20 42  0.0000000  0  7G10G 5G24G 4G 9G17G 7
  24578926.307    -1287910.61459   -561955.84145  24578925.214    24578947.659
       207.000         144.000
  21274026.388    -7337920.83849  -5687692.84247  21274025.778    21274035.580
       239.000         202.000
  20366459.683    -6662369.37349  -5158785.43548  20366459.543    20366468.980
       244.000         215.000
  21055729.416     3099481.13549   2698110.90547  21055729.981    21055738.159
       244.000         209.000
  21732081.091     1684642.46349   1326021.52847  21732081.493    21732092.316
       238.000         201.000
  22256261.703    -8896924.84549  -6908091.07047  22256260.541    22256273.987
       232.000         190.000
  23537339.388     4711775.26549   3671781.00146  23537339.219    23537349.638
       217.000         163.000
 04  1 22 20 42 30.0000000  0  7G10G 5G24G 4G 9G17G 7
  24560051.064    -1387098.04049   -639244.16745  24560048.662    24560070.757
       209.000         146.000
  21261758.630    -7402388.01449  -5737926.95747  21261758.001    21261767.582
       240.000         202.000
  20362889.120    -6681132.26249  -5173405.82848  20362888.985    20362898.481
       244.000         215.000
  21066951.480     3158453.16749   2744063.12047  21066951.933    21066959.824
       245.000         209.000
  21743880.961     1746650.76649   1374339.57647  21743881.174    21743892.008
       237.000         200.000
  22240802.348    -8978163.31649  -6971393.60747  22240801.444    22240814.427
       233.000         191.000
  23549452.301     4775429.14349   3721381.34545  23549450.954    23549462.850
       214.000         162.000
 04  1 22 20 43  0.0000000  0  7G10G 5G24G 4G 9G17G 7
  24541159.602    -1486371.10749   -716599.26445  24541157.990    24541179.306
       209.000         145.000
  21249546.367    -7466563.63049  -5787933.88147  21249545.836    21249555.537
       239.000         202.000
  20359422.687    -6699348.23749  -5187600.05348  20359422.425    20359431.962
       244.000         215.000
  21078259.830     3217878.63949   2790368.67147  21078260.404    21078268.421
       244.000         209.000
  21755764.954     1809101.14749   1423002.10547  21755765.307    21755776.118
       237.000         200.000
  22225400.667    -9059099.18649  -7034460.34747  22225399.696    22225412.428
       232.000         191.000
  23561570.382     4839110.94049   3771003.45945  23561570.874    23561580.966
       215.000         160.000
 04  1 22 20 43 30.0000000  0  7G10G 5G24G 4G 9G17G 7
  24522251.860    -1585729.69349   -794020.96845  24522250.319    24522272.123
       208.000         146.000
  21237389.503    -7530447.90249  -5837713.77347  21237388.592    21237398.811
       239.000         202.000
  20356059.712    -6717020.39649  -5201370.52748  20356059.473    20356069.001
       245.000         215.000
  21089653.550     3277752.80049   2837023.85047  21089653.926    21089662.154
       244.000         209.000
  21767732.058     1871988.43049   1472005.07047  21767732.303    21767743.216
       237.000         199.000
  22210056.400    -9139733.35749  -7097291.99247  22210055.658    22210068.424
       232.000         191.000
  23573693.655     4902818.27949   3820645.46945  23573693.911    23573703.704
       218.000         161.000
 04  1 22 20 44  0.0000000  0  7G10G 5G24G 4G 9G17G 7
  24503328.429    -1685169.81649   -871506.19245  24503327.329    24503348.826
       210.000         144.000
  21225288.688    -7594037.65549  -5887264.17747  21225288.129    21225297.597
       239.000         202.000
  20352800.519    -6734147.39149  -5214716.19848  20352800.340    20352809.892
       244.000         215.000
  21101132.301     3338074.27949   2884027.57947  21101132.680    21101140.894
       244.000         209.000
  21779782.011     1935311.19449   1521347.36147  21779782.340    21779792.583
       236.000         199.000
  22194770.050    -9220062.92549  -7159886.29447  22194769.151    22194781.812
       232.000         191.000
  23585822.035     4966552.43549   3870308.37545  23585821.595    23585832.678
       215.000         161.000
 04  1 22 20 44 30.0000000  0  7G10G 5G24G 4G 9G17G 7
  24484390.085    -1784689.39649   -949053.35345  24484388.630    24484409.731
       208.000         143.000
  21213244.249    -7657331.53749  -5936584.04347  21213243.997    21213253.658
       239.000         202.000
  20349644.874    -6750730.32049  -5227637.92448  20349644.814    20349654.025
       244.000         215.000
  21112695.628     3398839.79749   2931377.31647  21112695.975    21112704.156
       244.000         208.000
  21791914.326     1999065.88549   1571026.21747  21791914.402    21791925.126
       236.000         198.000
  22179541.863    -9300086.96249  -7222242.51547  22179540.743    22179553.654
       231.000         191.000
  23597955.094     5030312.45749   3919991.43445  23597954.946    23597965.761
       215.000         160.000
 04  1 22 20 45  0.0000000  0  7G10G 5G24G 4G 9G17G 7
  24465437.083    -1884286.71949  -1026661.05645  24465435.182    24465455.975
       209.000         142.000
  21201256.289    -7720328.77049  -5985672.73947  21201256.256    21201265.450
       240.000         203.000
  20346592.504    -6766770.52949  -5240136.75048  20346592.657    20346601.573
       245.000         215.000
  21124342.665     3460045.41649   2979069.98347  21124343.062    21124351.351
       243.000         208.000
  21804127.868     2063248.48349   1621038.50247  21804128.576    21804138.892
       237.000         198.000
  22164371.765    -9379805.26349  -7284360.50247  22164370.885    22164383.466
       233.000         191.000
  23610092.981     5094096.98249   3969693.56945  23610093.692    23610103.577
       218.000         160.000
 04  1 22 20 45 30.0000000  0  7G10G 5G24G 4G 9G17G 7
  24446469.885    -1983958.86349  -1104327.09245  24446468.062    24446489.440
       208.000         140.000
  21189325.153    -7783027.14849  -6034528.56947  21189324.216    21189334.222
       240.000         203.000
  20343643.448    -6782267.83449  -5252212.53248  20343643.209    20343652.480
       244.000         216.000
  21136073.100     3521689.09149   3027103.99547  21136073.461    21136081.549
       243.000         208.000
  21816422.559     2127856.74649   1671382.48147  21816423.095    21816433.649
       237.000         198.000
  22149260.395    -9459215.90749  -7346238.76447  22149259.697    22149271.759
       233.000         192.000
  23622235.647     5157906.37449   4019415.09745  23622235.287    23622245.112
       217.000         160.000
 04  1 22 20 46  0.0000000  0  7G10G 5G24G 4G 9G17G 7
  24427488.972    -2083702.41549  -1182048.76645  24427486.133    24427507.013
       210.000         138.000
  21177451.264    -7845424.20649  -6083149.61747  21177450.606    21177460.761
       241.000         203.000
  20340797.631    -6797222.47749  -5263865.46348  20340797.699    20340806.910
       245.000         216.000
  21147886.453     3583768.44749   3075477.48747  21147886.753    21147895.242
       242.000         207.000
  21828797.736     2192888.15349   1722056.17847  21828798.287    21828809.374
       237.000         199.000
  22134207.890    -9538317.06249  -7407875.86547  22134206.787    22134219.187
       233.000         192.000
  23634383.245     5221741.17849   4069156.40445  23634383.327    23634394.050
       217.000         160.000
 04  1 22 20 46 30.0000000  0  7G10G 5G24G 4G 9G17G 7
  24408494.698    -2183515.44649  -1259824.54445  24408491.973    24408513.367
       210.000         140.000
  21165635.095    -7907518.56349  -6131534.78547  21165634.616    21165644.317
       241.000         204.000
  20338054.874    -6811635.71249  -5275096.51448  20338054.718    20338064.177
       245.000         216.000
  21159782.007     3646279.94649   3124187.72347  21159782.128    21159790.847
       241.000         207.000
  21841252.803     2258339.13849   1773056.81247  21841253.675    21841264.053
       237.000         199.000
  22119214.386    -9617107.82449  -7469271.10247  22119213.687    22119225.841
       234.000         193.000
  23646535.325     5285600.31049   4118916.70145  23646535.234    23646545.710
       217.000         159.000
 04  1 22 20 47  0.0000000  0  7G10G 5G24G 4G 9G17G 7
  24389487.990    -2283393.07849  -1337650.68945  24389486.000    24389506.833
       212.000         140.000
  21153877.251    -7969306.21449  -6179680.96547  21153876.966    21153886.500
       241.000         205.000
  20335415.506    -6825505.60249  -5285904.17848  20335415.495    20335424.904
       245.000         216.000
  21171759.613     3709223.25149   3173234.43247  21171759.766    21171768.523
       242.000         207.000
  21853787.595     2324209.16549   1824383.98347  21853788.117    21853798.755
       237.000         199.000
  22104280.582    -9695584.59549  -7530421.67247  22104279.496    22104292.106
       234.000         193.000
  23658692.446     5349485.84549   4168697.55345  23658692.838    23658702.597
       216.000         159.000
 04  1 22 20 47 30.0000000  0  7G10G 5G24G 4G 9G17G 7
  24370469.224    -2383334.62349  -1415526.62645  24370466.687    24370487.766
       209.000         140.000
  21142177.853    -8030787.01249  -6227588.03747  21142177.445    21142187.221
       241.000         205.000
  20332879.041    -6838834.55549  -5296290.33548  20332878.891    20332888.298
       244.000         216.000
  21183818.540     3772593.66149   3222613.95747  21183818.677    21183827.803
       242.000         207.000
  21866401.098     2390493.28249   1876033.79847  21866401.435    21866412.523
       235.000         198.000
  22089406.450    -9773747.89249  -7591327.99447  22089405.383    22089417.612
       234.000         193.000
  23670854.008     5413395.97249   4218497.58045  23670853.319    23670865.077
       212.000         155.000
 04  1 22 20 48  0.0000000  0  7G10G 5G24G 4G 9G17G 7
  24351439.277    -2483336.00649  -1493449.15445  24351436.851    24351457.686
       209.000         141.000
  21130537.402    -8091957.57549  -6275253.36847  21130536.804    21130546.708
       241.000         205.000
  20330445.724    -6851621.70549  -5306254.31348  20330445.505    20330454.972
       244.000         216.000
  21195958.555     3836390.08049   3272325.42447  21195959.043    21195967.445
       242.000         207.000
  21879093.119     2457190.09149   1928005.19547  21879093.539    21879104.458
       235.000         198.000
  22074592.550    -9851594.76249  -7651987.74347  22074591.828    22074603.926
       234.000         193.000
  23683020.554     5477331.89449   4268317.70245  23683020.666    23683031.326
       212.000         155.000
 04  1 22 20 48 30.0000000  0  7G10G 5G24G 4G 9G17G 7
  24332398.261    -2583394.28949  -1571416.07845  24332395.683    24332416.644
       211.000         141.000
  21118956.400    -8152815.88549  -6322675.38347  21118956.121    21118965.558
       240.000         205.000
  20328115.367    -6863867.70849  -5315796.61448  20328115.279    20328124.486
       245.000         216.000
  21208179.146     3900609.67149   3322366.64047  21208179.663    21208188.478
       243.000         207.000
  21891863.157     2524296.70249   1980295.92147  21891863.708    21891874.609
       236.000         197.000
  22059839.103    -9929123.87849  -7712399.89747  22059838.442    22059850.591
       235.000         194.000
  23695192.071     5541293.54849   4318157.88045  23695192.090    23695202.145
       213.000         155.000
 04  1 22 20 49  0.0000000  0  7G10G 5G24G 4G 9G17G 7
  24313346.792    -2683507.40549  -1649425.73645  24313344.622    24313365.581
       210.000         142.000
  21107435.013    -8213361.01549  -6369853.36747  21107434.797    21107444.279
       241.000         205.000
  20325887.791    -6875573.43249  -5324917.92548  20325887.821    20325896.968
       245.000         216.000
  21220479.668     3965249.10149   3372735.00847  21220480.207    21220488.880
       243.000         207.000
  21904710.567     2591809.77249   2032903.37447  21904710.864    21904721.438
       235.000         197.000
  22045146.344   -10006334.19349  -7772563.63547  22045145.373    22045157.755
       234.000         194.000
  23707368.340     5605280.21749   4368017.53645  23707368.161    23707378.720
       211.000         154.000
 04  1 22 20 49 30.0000000  0  7G10G 5G24G 4G 9G17G 7
  24294285.703    -2783671.75949  -1727475.28845  24294283.787    24294303.561
       212.000         144.000
  21095973.865    -8273589.81649  -6416784.85347  21095973.791    21095982.940
       241.000         206.000
  20323763.136    -6886738.72049  -5333618.11748  20323763.072    20323772.225
       245.000         217.000
  21232859.724     4030306.51649   3423429.07347  21232860.287    21232868.626
       242.000         206.000
  21917634.786     2659727.09949   2085825.82747  21917634.827    21917646.195
       235.000         196.000
  22030514.681   -10083223.45249  -7832477.20447  22030513.913    22030525.896
       235.000         195.000
  23719549.565     5669292.78449   4417897.37445  23719548.878    23719559.984
       213.000         153.000
 04  1 22 20 50  0.0000000  0  7G10G 5G24G 4G 9G17G 7
  24275215.258    -2883884.88149  -1805562.85345  24275212.640    24275234.262
       206.000         144.000
  21084573.198    -8333500.83249  -6463468.71647  21084572.924    21084582.385
       241.000         206.000
  20321741.051    -6897364.87549  -5341898.21148  20321741.211    20321750.153
       245.000         217.000
  21245318.763     4095778.84049   3474446.43747  21245319.571    21245327.509
       242.000         206.000
  21930635.384     2728045.28249   2139060.64247  21930636.047    21930647.205
       236.000         196.000
  22015944.375   -10159790.93949  -7892140.04347  22015943.939    22015955.558
       235.000         195.000
  23731735.543     5733330.65449   4467796.92945  23731735.591    23731747.010
       212.000         153.000
 04  1 22 20 50 30.0000000  0  7G10G 5G24G 4G 9G17G 7
  24256135.995    -2984143.76449  -1883686.10745  24256134.807    24256154.208
       213.000         145.000
  21073233.467    -8393091.52349  -6509902.97447  21073233.154    21073242.360
       241.000         205.000
  20319821.504    -6907451.97749  -5349758.25848  20319821.310    20319830.505
       245.000         217.000
  21257856.233     4161663.45249   3525785.06447  21257856.862    21257864.682
       243.000         206.000
  21943711.847     2796761.78749   2192605.83947  21943712.274    21943723.230
       235.000         196.000
  22001435.591   -10236034.98549  -7951550.84347  22001434.824    22001446.870
       235.000         196.000
  23743926.555     5797394.06549   4517716.39345  23743927.191    23743937.790
       213.000         154.000
 04  1 22 20 51  0.0000000  0  7G10G 5G24G 4G 9G17G 7
  24237048.921    -3084445.66149  -1961842.90945  24237046.812    24237067.068
       214.000         147.000
  21061955.017    -8452360.07149  -6556086.21147  21061954.482    21061963.651
       240.000         205.000
  20318004.458    -6917000.44449  -5357198.59848  20318004.448    20318013.452
       245.000         216.000
  21270471.666     4227957.64749   3577442.84847  21270472.129    21270480.348
       243.000         206.000
  21956863.442     2865873.73649   2246459.17347  21956863.959    21956875.407
       234.000         196.000
  21986988.566   -10311953.94649  -8010708.33947  21986987.465    21986999.928
       235.000         196.000
  23756122.444     5861482.98449   4567655.71745  23756122.778    23756132.774
       215.000         155.000
 04  1 22 20 51 30.0000000  0  7G10G 5G24G 4G 9G17G 7
  24217954.207    -3184787.88349  -2040031.14745  24217952.430    24217972.336
       214.000         149.000
  21050738.114    -8511305.06049  -6602017.32147  21050737.538    21050747.200
       241.000         205.000
  20316289.708    -6926011.38349  -5364220.07948  20316289.695    20316298.754
       245.000         216.000
  21283164.486     4294658.48349   3629417.49447  21283165.281    21283173.053
       243.000         206.000
  21970089.713     2935377.70349   2300617.97447  21970089.843    21970101.400
       234.000         196.000
  21972603.584   -10387546.95749  -8069611.84647  21972603.003    21972614.784
       235.000         196.000
  23768323.239     5925596.92349   4617614.55045  23768323.282    23768333.304
       212.000         154.000
 04  1 22 20 52  0.0000000  0  7G10G 5G24G 4G 9G17G 7
  24198852.577    -3285166.54449  -2118247.79545  24198851.094    24198869.862
       211.000         149.000
  21039583.367    -8569923.47049  -6647693.95647  21039582.980    21039592.341
       242.000         207.000
  20314677.368    -6934484.34349  -5370822.36348  20314677.232    20314686.632
       245.000         216.000
  21295934.367     4361764.11049   3681707.56547  21295934.881    21295943.135
       244.000         206.000
  21983390.275     3005272.00349   2355080.90947  21983390.765    21983402.070
       235.000         195.000
  21958281.063   -10462811.51149  -8128259.41247  21958280.569    21958292.242
       235.000         197.000
  23780528.846     5989736.87649   4667593.62945  23780529.332    23780538.793
       212.000         153.000
 04  1 22 20 52 30.0000000  0  8G10G 5G24G 4G 9G17G 7G30
  24179744.378    -3385578.68149  -2196490.51645  24179743.462    24179760.673
       211.000         149.000
  21028491.329    -8628212.84149  -6693114.19947  21028490.929    21028500.336
       241.000         207.000
  20313167.284    -6942419.69549  -5377005.73448  20313167.057    20313176.444
       245.000         216.000
  21308780.777     4429272.28149   3734311.30047  21308781.348    21308789.064
       242.000         206.000
  21996764.566     3075553.85949   2409845.84847  21996764.927    21996776.385
       234.000         196.000
  21944021.355   -10537745.97549  -8186649.77147  21944020.491    21944032.864
       235.000         197.000
  23792739.364     6053903.18549   4717593.23145  23792739.489    23792748.977
       210.000         153.000
                   -602046.10159   -451676.88344                  23707829.939
       209.000         116.000
 04  1 22 20 53  0.0000000  0  8G10G 5G24G 4G 9G17G 7G30
  24160630.412    -3486021.96449  -2274757.51145  24160629.174    24160648.323
       213.000         150.000
  21017461.993    -8686172.14549  -6738277.24747  21017461.474    21017471.078
       241.000         207.000
  20311759.295    -6949818.68849  -5382771.15948  20311759.232    20311768.416
       245.000         216.000
  21321703.082     4497179.30949   3787225.84247  21321703.722    21321711.818
       243.000         206.000
  22010211.896     3146219.59849   2464909.90347  22010212.477    22010223.963
       235.000         196.000
  21929824.630   -10612349.80049  -8244782.49047  21929824.119    21929836.392
       236.000         197.000
  23804954.617     6118095.15249   4767612.85445  23804953.574    23804964.969
       211.000         153.000
  23688852.661     -701700.62949   -529329.56945  23688853.188    23688866.373
       207.000         135.000
 04  1 22 20 53 30.0000000  0  8G10G 5G24G 4G 9G17G 7G30
  24141511.633    -3586491.22649  -2353044.78945  24141509.940    24141529.078
       212.000         149.000
  21006496.300    -8743796.81849  -6783179.54047  21006496.115    21006505.257
       242.000         208.000
  20310453.673    -6956679.57949  -5388117.28348  20310453.576    20310462.631
       245.000         216.000
  21334701.269     4565485.07149   3840451.09547  21334701.733    21334710.072
       243.000         205.000
  22023732.271     3217268.93249   2520272.86447  22023732.427    22023744.561
       235.000         196.000
  21915691.616   -10686618.81349  -8302654.31747  21915691.033    21915702.617
       235.000         197.000
  23817175.362     6182315.23249   4817654.35745  23817175.123    23817186.143
       210.000         153.000
  23669899.193     -801298.47949   -606938.07545  23669899.979    23669913.682
       205.000         137.000
 04  1 22 20 54  0.0000000  0  8G10G 5G24G 4G 9G17G 7G30
  24122388.056    -3686984.43449  -2431350.73745  24122385.820    24122404.563
       210.000         149.000
  20995594.534    -8801086.01549  -6827820.43647  20995594.103    20995603.244
       243.000         208.000
  20309250.080    -6963004.39249  -5393045.68248  20309250.029    20309259.072
       245.000         216.000
  21347774.574     4634185.83249   3893984.12947  21347774.843    21347783.153
       242.000         205.000
  22037324.806     3288697.61449   2575931.46347  22037325.437    22037337.113
       234.000         196.000
  21901622.279   -10760553.04749  -8360265.28147  21901621.173    21901633.416
       235.000         197.000
  23829401.156     6246562.39549   4867716.97045  23829400.509    23829411.468
       207.000         152.000
  23650957.325     -900839.04649   -684501.95045  23650958.402    23650970.354
       207.000         136.000
 04  1 22 20 54 30.0000000  0  8G10G 5G24G 4G 9G17G 7G30
  24103259.906    -3787500.29349  -2509674.35045  24103256.843    24103277.183
       208.000         149.000
  20984756.790    -8858038.84649  -6872199.22747  20984756.545    20984765.772
       243.000         209.000
  20308148.074    -6968795.41549  -5397558.14348  20308147.932    20308156.975
       245.000         216.000
  21360922.184     4703277.19749   3947821.53647  21360922.661    21360931.106
       242.000         204.000
  22050988.655     3360501.06749   2631882.07147  22050989.318    22051001.016
       235.000         196.000
  21887616.620   -10834152.49049  -8417615.37147  21887616.129    21887627.706
       235.000         197.000
  23841631.768     6310834.93449   4917799.38345  23841631.412    23841642.605
       210.000         153.000
  23632026.591    -1000322.11949   -762021.02945  23632027.618    23632039.785
       209.000         136.000
 04  1 22 20 55  0.0000000  0  8G10G 5G24G 4G 9G17G 7G30
  24084128.088    -3888035.16149  -2588012.78845  24084125.617    24084145.140
       209.000         148.000
  20973983.461    -8914652.90849  -6916314.04047  20973983.114    20973992.163
       242.000         209.000
  20307147.633    -6974052.62949  -5401654.64648  20307147.554    20307156.767
       245.000         216.000
  21374143.757     4772757.12249   4001961.71747  21374143.718    21374152.604
       241.000         204.000
  22064723.398     3432677.29349   2688123.16347  22064723.710    22064735.482
       234.000         195.000
  21873675.106   -10907415.11949  -8474703.01047  21873674.640    21873686.348
       236.000         198.000
  23853867.396     6375133.77149   4967902.26745  23853866.122    23853878.652
       209.000         154.000
  23613107.079    -1099745.10149   -839493.29645  23613105.827    23613119.590
       208.000         137.000
 04  1 22 20 55 30.0000000  0  8G10G 5G24G 4G 9G17G 7G30
  24064993.531    -3988585.54649  -2666363.33745  24064991.573    24065009.757
       211.000         149.000
  20963275.027    -8970925.62749  -6960162.87247  20963274.467    20963283.738
       242.000         208.000
  20306248.811    -6978775.90349  -5405335.09548  20306248.657    20306257.836
       245.000         216.000
  21387438.933     4842623.56749   4056403.06547  21387439.274    21387447.608
       241.000         204.000
  22078528.650     3505223.77849   2744652.76847  22078528.643    22078541.036
       234.000         194.000
  21859798.119   -10980338.96049  -8531526.65347  21859797.337    21859809.113
       237.000         199.000
  23866108.062     6439459.56549   5018026.15945  23866108.387    23866119.180
       211.000         155.000
  23594199.310    -1199105.39849   -916916.70345  23594198.936    23594212.282
       208.000         141.000
 04  1 22 20 56  0.0000000  0  8G10G 5G24G 4G 9G17G 7G30
  24045856.707    -4089147.99749  -2744723.30445  24045854.591    24045874.136
       214.000         150.000
  20952632.088    -9026854.25549  -7003743.58347  20952631.565    20952640.934
       242.000         208.000
  20305451.461    -6982965.65949  -5408599.81748  20305451.508    20305460.254
       245.000         216.000
  21400807.226     4912874.53749   4111144.05147  21400807.619    21400816.169
       241.000         203.000
  22092403.847     3578137.91949   2801468.82747  22092404.507    22092415.854
       234.000         194.000
  21845985.966   -11052921.99949  -8588084.74347  21845985.359    21845997.037
       237.000         199.000
  23878354.338     6503812.93349   5068171.54245  23878354.729    23878365.928
       212.000         156.000
  23575303.777    -1298400.73649   -994289.46645  23575303.737    23575316.635
       209.000         144.000
 04  1 22 20 56 30.0000000  0  8G10G 5G24G 4G 9G17G 7G30
  24026718.224    -4189720.54649  -2823091.17545  24026717.070    24026736.384
       211.000         151.000
  20942054.849    -9082437.74949  -7047055.34947  20942054.287    20942063.451
       242.000         208.000
  20304755.426    -6986623.36849  -5411449.95648  20304755.151    20304764.489
       245.000         216.000
  21414247.930     4983506.13549   4166181.64647  21414248.364    21414257.115
       241.000         203.000
  22106348.424     3651416.18549   2858568.62647  22106349.323    22106360.546
       234.000         193.000
  21832238.627   -11125164.12049  -8644377.17647  21832238.046    21832249.748
       236.000         199.000
  23890605.595     6568192.92049   5118337.65245  23890605.328    23890616.527
       211.000         156.000
  23556420.713    -1397630.21449  -1071610.91845  23556421.369    23556434.603
       210.000         146.000
 04  1 22 20 57  0.0000000  0  8G10G 5G24G 4G 9G17G 7G30
  24007578.494    -4290299.18349  -2901463.80345  24007577.300    24007595.849
       213.000         153.000
  20931543.884    -9137673.18149  -7090095.91047  20931543.474    20931552.589
       243.000         208.000
  20304160.539    -6989749.24349  -5413885.68248  20304160.332    20304169.523
       245.000         216.000
  21427760.812     5054516.63449   4221514.47947  21427761.210    21427769.507
       241.000         203.000
  22120361.856     3725056.48649   2915950.52747  22120362.492    22120373.825
       234.000         193.000
  21818556.638   -11197063.05349  -8700402.19547  21818556.268    21818567.545
       238.000         199.000
  23902862.028     6632600.51949   5168525.27945  23902861.833    23902873.357
       210.000         155.000
  23537550.949    -1496790.92249  -1148878.80545  23537551.202    23537564.294
       211.000         148.000
 04  1 22 20 57 30.0000000  0  8G10G 5G24G 4G 9G17G 7G30
  23988438.146    -4390881.60849  -2979839.36045  23988436.121    23988455.140
       214.000         154.000
  20921099.294    -9192559.60649  -7132864.51147  20921098.915    20921107.975
       243.000         208.000
  20303666.588    -6992344.84449  -5415908.21148  20303666.424    20303675.726
       245.000         216.000
  21441345.141     5125902.62349   4277139.91247  21441345.525    21441353.643
       240.000         202.000
  22134443.426     3799054.92549   2973611.51447  22134443.953    22134455.747
       234.000         194.000
  21804940.165   -11268618.00349  -8756159.17347  21804939.485    21804950.622
       236.000         200.000
  23915123.809     6697035.08849   5218733.94545  23915123.225    23915134.221
       211.000         156.000
  23518694.581    -1595882.00449  -1226092.42645  23518694.287    23518707.566
       210.000         148.000
 04  1 22 20 58  0.0000000  0  8G10G 5G24G 4G 9G17G 7G30
  23969297.735    -4491463.75649  -3058214.72345  23969296.591    23969314.924
       214.000         155.000
  20910721.719    -9247093.95949  -7175358.76547  20910721.149    20910730.575
       243.000         209.000
  20303273.588    -6994409.92849  -5417517.34948  20303273.456    20303282.753
       245.000         216.000
  21455000.501     5197662.09749   4333056.37247  21455000.802    21455009.332
       240.000         202.000
  22148592.718     3873409.57149   3031550.09247  22148593.048    22148605.509
       234.000         194.000
  21791389.300   -11339827.18249  -8811646.72247  21791388.296    21791400.117
       236.000         200.000
  23927390.673     6761497.44349   5268964.23945  23927390.432    23927401.793
       213.000         155.000
  23499851.950    -1694900.62549  -1303249.56745  23499851.941    23499865.593
       211.000         148.000
 04  1 22 20 58 30.0000000  0  8G10G 5G24G 4G 9G17G 7G30
  23950157.952    -4592043.04649  -3136587.86645  23950156.672    23950175.430
       214.000         156.000
  20900411.486    -9301274.45149  -7217577.28747  20900411.226    20900420.276
       243.000         209.000
  20302981.263    -6995945.71449  -5418714.04448  20302981.219    20302990.411
       245.000         216.000
  21468726.385     5269792.05349   4389261.51947  21468726.710    21468735.291
       239.000         202.000
  22162809.105     3948116.88449   3089763.48047  22162809.146    22162821.778
       234.000         194.000
  21777904.578   -11410689.22549  -8866863.77847  21777903.811    21777915.451
       237.000         200.000
  23939662.617     6825987.39749   5319216.05345  23939662.227    23939673.981
       210.000         155.000
  23481023.278    -1793845.14049  -1380348.96645  23481023.536    23481035.476
       211.000         149.000
 04  1 22 20 59  0.0000000  0  8G10G 5G24G 4G 9G17G 7G30
  23931019.267    -4692616.07049  -3214956.14345  23931017.801    23931036.192
       214.000         157.000
  20890169.083    -9355098.39349  -7259517.98147  20890168.547    20890177.889
       243.000         209.000
  20302789.639    -6996952.80849  -5419498.77348  20302789.681    20302798.872
       245.000         217.000
  21482522.169     5342290.11849   4445753.49147  21482522.679    21482531.261
       239.000         201.000
  22177092.128     4023174.22549   3148249.59447  22177092.818    22177105.340
       234.000         194.000
  21764486.329   -11481202.63849  -8921809.17247  21764485.700    21764497.326
       237.000         200.000
  23951939.922     6890505.45749   5369489.76245  23951939.927    23951950.981
       212.000         152.000
  23462209.028    -1892713.16149  -1457388.78445  23462208.921    23462222.151
       211.000         149.000
 04  1 22 20 59 30.0000000  0  8G10G 5G24G 4G 9G17G 7G30
  23911882.355    -4793179.66649  -3293317.07645  23911879.740    23911899.484
       213.000         157.000
  20879994.901    -9408563.74449  -7301179.24847  20879994.401    20880003.381
       243.000         209.000
  20302698.488    -6997431.70449  -5419871.92148  20302698.424    20302707.749
       245.000         217.000
  21496387.746     5415154.01449   4502530.53947  21496388.470    21496396.993
       240.000         201.000
  22191441.378     4098579.15249   3207006.55747  22191441.665    22191454.125
       234.000         194.000
  21751134.632   -11551365.71649  -8976481.57247  21751134.053    21751145.350
       238.000         201.000
  23964222.754     6955051.90649   5419785.59045  23964223.263    23964233.876
       210.000         151.000
  23443409.532    -1991502.60749  -1534367.35145  23443409.505    23443422.523
       211.000         150.000
 04  1 22 21  0  0.0000000  0  8G10G 5G24G 4G 9G17G 7G30
  23892747.911    -4893730.61849  -3371668.15245  23892746.806    23892764.265
       215.000         157.000
  20869889.315    -9461668.71649  -7342559.71447  20869889.056    20869898.023
       243.000         209.000
  20302707.712    -6997382.94349  -5419833.90848  20302707.718    20302716.754
       245.000         217.000
  21510322.444     5488380.90949   4559590.43747  21510323.003    21510331.730
       240.000         201.000
  22205856.097     4174328.64649   3266032.01347  22205856.525    22205868.736
       233.000         193.000
  21737849.855   -11621177.06849  -9030879.90847  21737849.080    21737860.509
       237.000         201.000
  23976511.050     7019627.16149   5470103.85845  23976511.516    23976522.715
       212.000         152.000
  23424625.665    -2090211.29449  -1611283.00345  23424625.859    23424639.175
       211.000         150.000
 04  1 22 21  0 30.0000000  0  8G10G 5G24G 4G 9G17G 7G30
  23873616.152    -4994266.52249  -3450007.52145  23873615.220    23873632.826
       216.000         157.000
  20859852.726    -9514411.67649  -7383658.08447  20859852.395    20859861.543
       244.000         210.000
  20302816.996    -6996808.50549  -5419386.27348  20302816.812    20302826.196
       244.000         216.000
  21524325.552     5561967.56549   4616930.67647  21524326.159    21524334.128
       240.000         201.000
  22220335.635     4250419.00049   3325323.07547  22220335.602    22220347.915
       233.000         192.000
  21724632.082   -11690636.12549  -9085003.73147  21724631.231    21724643.051
       238.000         201.000
  23988804.977     7084230.49349   5520443.99945  23988804.686    23988816.346
       211.000         152.000
  23405857.396    -2188838.04249  -1688134.81945  23405857.232    23405870.305
       211.000         150.000
 04  1 22 21  1  0.0000000  0  8G10G 5G24G 4G 9G17G 7G30
  23854488.099    -5094783.99149  -3528332.52645  23854486.543    23854504.259
       216.000         157.000
  20849885.370    -9566790.18949  -7424472.47447  20849884.865    20849894.358
       244.000         210.000
  20303026.253    -6995708.77949  -5418529.32948  20303026.397    20303035.400
       245.000         217.000
  21538396.699     5635911.61849   4674549.40647  21538397.368    21538405.558
       240.000         201.000
  22234879.601     4326847.59349   3384877.69347  22234880.033    22234892.418
       233.000         192.000
  21711481.676   -11759741.46349  -9138851.92647  21711480.984    21711492.147
       238.000         201.000
  24001104.079     7148862.38149   5570806.38345  24001103.941    24001115.338
       212.000         152.000
  23387105.293    -2287380.49349  -1764920.93945  23387105.664    23387118.630
       213.000         151.000
 04  1 22 21  1 30.0000000  0  8G10G 5G24G 4G 9G17G 7G30
  23835364.186    -5195279.99449  -3606640.80145  23835363.291    23835380.405
       215.000         156.000
  20839987.722    -9618802.45449  -7465001.47647  20839987.367    20839996.448
       244.000         211.000
  20303335.297    -6994084.68749  -5417263.78448  20303335.303    20303344.467
       245.000         217.000
  21552535.342     5710210.13349   4732444.33847  21552535.790    21552543.970
       240.000         200.000
  22249487.344     4403611.42849   3444693.53147  22249487.930    22249499.572
       233.000         191.000
  21698398.847   -11828491.71049  -9192423.42947  21698398.102    21698409.677
       239.000         201.000
  24013408.909     7213523.07449   5621191.21645  24013408.143    24013419.838
       212.000         152.000
  23368369.691    -2385836.69149  -1841639.84345  23368370.014    23368383.160
       215.000         154.000
 04  1 22 21  2  0.0000000  0  8G10G 5G24G 4G 9G17G 7G30
  23816244.841    -5295751.62249  -3684930.09245  23816243.428    23816260.810
       214.000         155.000
  20830160.117    -9670446.78349  -7505243.76947  20830159.810    20830168.700
       244.000         211.000
  20303743.904    -6991937.52649  -5415590.65548  20303743.771    20303753.179
       245.000         217.000
  21566740.870     5784860.17649   4790613.18947  21566741.276    21566749.302
       240.000         200.000
  22264158.280     4480707.09149   3504767.94647  22264158.484    22264170.874
       233.000         192.000
  21685383.763   -11896885.67849  -9245717.32747  21685383.092    21685394.525
       239.000         202.000
  24025719.092     7278212.37549   5671598.34745  24025719.211    24025729.906
       212.000         150.000
  23349650.870    -2484204.86249  -1918290.15445  23349650.583    23349664.325
       216.000         155.000
 04  1 22 21  2 30.0000000  0  8G10G 5G24G 4G 9G17G 7G30
  23797130.787    -5396195.26549  -3763197.61145  23797130.040    23797146.973
       212.000         154.000
  20820403.065    -9721720.51549  -7545197.28647  20820402.645    20820411.551
       244.000         211.000
  20304251.845    -6989267.97349  -5413510.46748  20304251.799    20304261.144
       245.000         217.000
  21581012.818     5859859.63249   4849054.30947  21581013.135    21581021.499
       240.000         200.000
  22278891.823     4558132.10049   3565098.98747  22278892.354    22278904.526
       233.000         192.000
  21672436.823   -11964921.86849  -9298732.41947  21672436.195    21672447.679
       240.000         202.000
  24038034.671     7342930.89549   5722028.25345  24038035.015    24038044.774
       214.000         151.000
  23330949.125    -2582482.62649  -1994870.01845  23330948.301    23330962.460
       214.000         156.000
 04  1 22 21  3  0.0000000  0  8G10G 5G24G 4G 9G17G 7G30
  23778022.962    -5496607.41549  -3841440.54945  23778021.508    23778038.447
       213.000         153.000
  20810716.897    -9772621.45449  -7584860.31247  20810716.531    20810725.329
       243.000         211.000
  20304859.196    -6986076.58049  -5411023.64748  20304859.208    20304868.317
       246.000         217.000
  21595350.764     5935206.00049   4907765.74747  21595350.950    21595359.129
       239.000         199.000
  22293687.616     4635883.73549   3625684.54347  22293688.191    22293700.454
       234.000         192.000
  21659558.270   -12032598.85049  -9351467.61947  21659557.770    21659568.874
       240.000         203.000
  24050355.971     7407678.96049   5772481.18145  24050355.735    24050366.234
       214.000         152.000
  23312264.827    -2680667.65649  -2071377.63045  23312264.605    23312277.934
       215.000         155.000
 04  1 22 21  3 30.0000000  0  8G10G 5G24G 4G 9G17G 7G30
  23758921.678    -5596984.95249  -3919656.51145  23758920.232    23758937.918
       212.000         151.000
  20801102.092    -9823147.24849  -7624231.01147  20801101.737    20801110.642
       244.000         211.000
  20305565.646    -6982364.10249  -5408130.78248  20305565.609    20305574.782
       247.000         217.000
  21609754.232     6010896.92849   4966745.66847  21609754.208    21609762.790
       238.000         198.000
  22308545.031     4713959.24949   3686522.46347  22308545.216    22308557.719
       232.000         192.000
  21646748.433   -12099914.90949  -9403921.56947  21646747.908    21646759.175
       239.000         203.000
  24062682.814     7472457.09449   5822957.54045  24062681.222    24062694.291
       212.000         152.000
  23293598.791    -2778757.56349  -2147811.12145  23293598.747    23293612.012
       216.000         155.000
 04  1 22 21  4  0.0000000  0  8G10G 5G24G 4G 9G17G 7G30
  23739827.261    -5697324.98949  -3997843.27545  23739826.690    23739842.681
       212.000         151.000
  20791559.037    -9873296.25049  -7663308.11347  20791558.504    20791567.618
       244.000         211.000
  20306370.975    -6978131.84949  -5404832.89948  20306371.002    20306379.948
       247.000         217.000
  21624222.629     6086929.32449   5025991.67347  21624222.852    21624231.342
       238.000         198.000
  22323463.283     4792355.17949   3747610.05847  22323464.147    22323476.371
       233.000         192.000
  21634007.338   -12166869.35349  -9456093.73047  21634006.759    21634018.103
       241.000         204.000
  24075015.402     7537265.01849   5873457.09445  24075015.434    24075026.832
       213.000         152.000
  23274951.171    -2876750.80749  -2224169.27545  23274950.637    23274964.338
       217.000         156.000
 04  1 22 21  4 30.0000000  0  8G10G 5G24G 4G 9G17G 7G30
  23720740.694    -5797624.66949  -4075998.59745  23720739.204    23720756.888
       213.000         151.000
  20782087.994    -9923066.58449  -7702090.14447  20782087.490    20782096.588
       244.000         211.000
  20307274.969    -6973381.33749  -5401131.17248  20307274.966    20307284.054
       247.000         217.000
  21638755.434     6163300.17149   5085501.41747  21638755.741    21638764.294
       238.000         197.000
  22338442.082     4871068.38949   3808944.88247  22338442.318    22338455.169
       231.000         192.000
  21621335.225   -12233461.29349  -9507983.41747  21621334.472    21621345.806
       240.000         204.000
  24087353.661     7602102.66049   5923979.80445  24087353.152    24087365.347
       214.000         151.000
  23256322.327    -2974645.50249  -2300450.64845  23256322.793    23256334.696
       220.000         158.000
 04  1 22 21  5  0.0000000  0  8G10G 5G24G 4G 9G17G 7G30
  23701662.595    -5897880.45949  -4154119.68745  23701661.491    23701678.353
       214.000         152.000
  20772689.476    -9972455.91649  -7740575.29347  20772689.057    20772698.078
       244.000         211.000
  20308277.468    -6968113.31749  -5397026.18848  20308277.532    20308286.449
       247.000         217.000
  21653352.236     6240007.05149   5145272.99747  21653352.846    21653360.705
       238.000         197.000
  22353480.570     4950096.21049   3870524.85547  22353480.957    22353493.905
       232.000         191.000
  21608732.447   -12299689.00249  -9559589.30247  21608731.826    21608742.977
       240.000         204.000
  24099697.705     7666970.58149   5974526.11445  24099696.537    24099708.467
       211.000         150.000
  23237712.787    -3072439.21449  -2376653.34545  23237713.236    23237725.264
       220.000         159.000
 04  1 22 21  5 30.0000000  0  8G10G 5G24G 4G 9G17G 7G30
  23682593.204    -5998088.99349  -4232203.95045  23682591.903    23682608.802
       211.000         153.000
  20763363.816   -10021462.32449  -7778762.06147  20763363.353    20763372.484
       244.000         211.000
  20309378.254    -6962328.68849  -5392518.65248  20309378.220    20309387.243
       246.000         217.000
  21668012.638     6317047.43649   5205304.46247  21668013.057    21668021.657
       238.000         197.000
  22368578.432     5029435.64649   3932347.63747  22368578.595    22368591.715
       231.000         190.000
  21596199.101   -12365551.62749  -9610910.71247  21596198.643    21596209.748
       240.000         204.000
  24112047.316     7731869.02649   6025096.21145  24112046.847    24112058.156
       213.000         148.000
  23219122.841    -3170129.82649  -2452775.69245  23219122.626    23219135.625
       220.000         160.000
 04  1 22 21  6  0.0000000  0  8G10G 5G24G 4G 9G17G 7G30
  23663533.164    -6098247.51849  -4310249.25845  23663531.458    23663549.035
       212.000         153.000
  20754111.414   -10070084.05249  -7816649.07347  20754110.798    20754120.188
       244.000         212.000
  20310577.057    -6956028.80249  -5387609.62048  20310576.820    20310585.939
       247.000         217.000
  21682735.883     6394418.34149   5265593.47247  21682736.134    21682744.998
       237.000         197.000
  22383734.937     5109083.43549   3994410.69647  22383735.712    22383747.886
       233.000         190.000
  21583735.479   -12431047.76649  -9661946.54347  21583734.711    21583745.806
       238.000         204.000
  24124403.034     7796797.96249   6075690.07245  24124402.584    24124414.322
       213.000         148.000
  23200552.753    -3267715.42749  -2528816.20245  23200552.402    23200564.731
       219.000         159.000
 04  1 22 21  6 30.0000000  0  8G10G 5G24G 4G 9G17G 7G30
  23644483.348    -6198353.67149  -4388253.74345  23644482.016    23644499.309
       214.000         155.000
  20744932.350   -10118320.04949  -7854235.51847  20744931.693    20744940.798
       243.000         211.000
  20311873.571    -6949215.48349  -5382300.51348  20311873.543    20311882.571
       247.000         217.000
  21697521.205     6472116.15349   5326137.20147  21697521.688    21697530.306
       237.000         197.000
  22398949.589     5189035.89949   4056711.16047  22398950.179    22398962.904
       231.000         190.000
  21571341.650   -12496177.17049  -9712696.62147  21571340.931    21571351.978
       239.000         204.000
  24136764.481     7861756.81049   6126307.22745  24136765.125    24136776.822
       215.000         150.000
  23182002.800    -3365194.77849  -2604773.92545  23182002.384    23182014.195
       220.000         160.000
 04  1 22 21  7  0.0000000  0  8G10G 5G24G 4G 9G17G 7G30
  23625444.340    -6298402.98049  -4466213.92545  23625442.766    23625460.348
       216.000         157.000
  20735827.437   -10166166.50749  -7891518.42647  20735827.146    20735835.675
       244.000         211.000
  20313267.865    -6941888.23349  -5376590.92948  20313267.757    20313276.810
       246.000         217.000
  21712368.510     6550139.71249   5386934.76747  21712368.940    21712377.809
       237.000         197.000
  22414221.844     5269291.18949   4119247.59647  22414222.477    22414234.775
       232.000         190.000
  21559018.120   -12560937.39249  -9763159.01847  21559017.363    21559028.939
       239.000         205.000
  24149132.184     7926747.15949   6176948.92445  24149132.553    24149143.421
       212.000         151.000
  23163473.798    -3462564.35849  -2680646.11745  23163473.681    23163485.427
       219.000         160.000
 04  1 22 21  7 30.0000000  0  8G10G 5G24G 4G 9G17G 7G30
  23606416.717    -6398392.26549  -4544127.33745  23606415.838    23606432.254
       216.000         158.000
  20726796.926   -10213622.14349  -7928496.80147  20726796.347    20726805.292
       244.000         211.000
  20314759.557    -6934049.04549  -5370482.44348  20314759.105    20314768.400
       247.000         217.000
  21727277.313     6628486.01849   5447983.81847  21727277.889    21727286.651
       238.000         197.000
  22429551.032     5349845.86049   4182017.31347  22429551.884    22429563.708
       231.000         189.000
  21546764.931   -12625327.76949  -9813333.23447  21546764.395    21546775.134
       240.000         205.000
  24161505.532     7991768.64649   6227614.89445  24161505.618    24161516.834
       211.000         151.000
  23144966.001    -3559822.54449  -2756431.50445  23144965.754    23144979.157
       219.000         161.000
 04  1 22 21  8  0.0000000  0  8G10G 5G24G 4G 9G17G 7G30
  23587401.306    -6498318.36349  -4621991.50145  23587400.512    23587416.830
       217.000         160.000
  20717841.135   -10260684.68749  -7965168.87647  20717840.587    20717849.419
       243.000         211.000
  20316348.493    -6925698.69549  -5363975.64948  20316348.185    20316357.306
       246.000         216.000
  21742247.039     6707152.31149   5509282.22447  21742247.605    21742256.162
       238.000         197.000
  22444936.668     5430697.24149   4245018.22747  22444936.874    22444949.690
       230.000         188.000
  21534582.472   -12689346.87749  -9863218.14447  21534581.819    21534592.747
       240.000         206.000
  24173884.920     8056821.74849   6278305.49645  24173883.269    24173895.940
       210.000         150.000
  23126479.842    -3656966.80549  -2832128.12145  23126478.662    23126491.992
       217.000         162.000
 04  1 22 21  8 30.0000000  0  8G10G 5G24G 4G 9G17G 7G30
  23568398.343    -6598178.51149  -4699804.27145  23568396.099    23568414.369
       218.000         161.000
  20708960.484   -10307352.61749  -8001533.45647  20708960.045    20708969.171
       243.000         211.000
  20318034.348    -6916839.15549  -5357072.09148  20318034.427    20318043.348
       246.000         216.000
  21757277.080     6786135.45249   5570827.51447  21757277.520    21757286.483
       238.000         197.000
  22460378.078     5511841.57149   4308247.41346  22460378.823    22460390.978
       230.000         187.000
  21522470.749   -12752994.05549  -9912813.24447  21522470.144    21522480.777
       240.000         206.000
  24186269.973     8121906.26849   6329020.57445  24186268.924    24186280.916
       208.000         149.000
  23108015.514    -3753995.79049  -2907734.91945  23108015.404    23108027.789
       216.000         161.000
 04  1 22 21  9  0.0000000  0  8G10G 5G24G 4G 9G17G 7G30
  23549408.636    -6697968.16049  -4777562.11645  23549407.424    23549423.882
       216.000         161.000
  20700155.462   -10353622.60249  -8037587.94347  20700154.811    20700164.302
       242.000         211.000
  20319817.264    -6907470.00049  -5349771.42948  20319817.353    20319826.279
       247.000         217.000
  21772367.161     6865434.24949   5632618.77647  21772367.274    21772376.283
       237.000         197.000
  22475874.860     5593277.18649   4371703.58646  22475875.215    22475888.029
       231.000         187.000
  21510430.282   -12816266.80949  -9962116.58847  21510429.460    21510440.317
       240.000         206.000
  24198661.330     8187023.56549   6379761.16945  24198661.415    24198672.470
       210.000         149.000
  23089573.926    -3850905.75949  -2983248.99745  23089574.240    23089586.877
       218.000         161.000
 04  1 22 21  9 30.0000000  0  8G10G 5G24G 4G 9G17G 7G30
  23530432.746    -6797685.11449  -4855263.32045  23530431.251    23530447.955
       216.000         161.000
  20691426.356   -10399493.84449  -8073331.72347  20691425.994    20691435.171
       243.000         212.000
  20321696.785    -6897593.16549  -5342075.17548  20321696.812    20321705.618
       246.000         217.000
  21787516.566     6945044.87249   5694653.02547  21787516.896    21787525.401
       238.000         197.000
  22491426.292     5675000.03149   4435383.57346  22491426.649    22491439.419
       230.000         187.000
  21498460.971   -12879165.18649 -10011128.19847  21498460.605    21498471.145
       240.000         206.000
  24211059.035     8252172.99949   6430526.82045  24211059.093    24211070.839
       207.000         149.000
  23071155.115    -3947695.67749  -3058669.54245  23071154.782    23071167.218
       217.000         161.000
 04  1 22 21 10  0.0000000  0  8G10G 5G24G 4G 9G17G 7G30
  23511471.443    -6897326.09749  -4932905.30145  23511469.708    23511486.179
       218.000         161.000
  20682773.653   -10444964.05149  -8108763.00647  20682773.204    20682782.392
       243.000         212.000
  20323672.650    -6887209.80149  -5333984.21948  20323672.744    20323681.601
       247.000         217.000
  21802724.904     7024964.70449   5756928.21947  21802725.697    21802733.815
       239.000         197.000
  22507031.926     5757007.23249   4499285.14247  22507033.035    22507045.180
       231.000         188.000
  21486563.219   -12941688.11849 -10059847.24447  21486562.682    21486573.634
       241.000         207.000
  24223462.747     8317354.83049   6481317.73345  24223461.626    24223474.806
       204.000         148.000
  23052759.680    -4044363.25649  -3133994.76045  23052759.786    23052772.275
       218.000         162.000
 04  1 22 21 10 30.0000000  0  8G10G 5G24G 4G 9G17G 7G30
  23492525.042    -6996888.13949  -5010485.78345  23492523.185    23492540.185
       219.000         161.000
  20674197.508   -10490031.46249  -8143880.42447  20674197.161    20674206.144
       243.000         212.000
  20325744.608    -6876321.80149  -5325500.04148  20325744.610    20325753.569
       247.000         217.000
  21817991.541     7105190.80949   5819442.05447  21817991.879    21818000.785
       238.000         197.000
  22522691.047     5839295.49549   4563405.71547  22522691.585    22522704.420
       230.000         188.000
  21474737.125   -13003834.68949 -10108273.02347  21474736.769    21474747.338
       241.000         207.000
  24235872.367     8382568.98049   6532133.79845  24235871.955    24235883.688
       204.000         146.000
  23034388.038    -4140906.56449  -3209223.13146  23034388.475    23034400.837
       219.000         163.000
 04  1 22 21 11  0.0000000  0  8G10G 5G24G 4G 9G17G 7G30
  23473594.664    -7096367.60649  -5088001.90745  23473593.210    23473609.685
       220.000         162.000
  20665698.484   -10534693.91049  -8178682.28347  20665698.045    20665707.424
       243.000         211.000
  20327912.358    -6864929.98149  -5316623.27848  20327912.289    20327921.221
       247.000         217.000
  21833315.944     7185721.01249   5882192.84747  21833316.340    21833324.866
       237.000         197.000
  22538403.074     5921862.04449   4627743.13946  22538403.738    22538416.386
       230.000         187.000
  21462982.908   -13065603.25249 -10156404.26347  21462982.027    21462993.049
       241.000         208.000
  24248288.610     8447816.06249   6582975.54645  24248288.669    24248300.247
       207.000         147.000
  23016040.399    -4237323.09649  -3284352.71046  23016040.337    23016052.633
       219.000         165.000
 04  1 22 21 11 30.0000000  0  8G10G 5G24G 4G 9G17G 7G30
  23454680.508    -7195761.87549  -5165451.66146  23454679.064    23454695.122
       220.000         163.000
  20657276.709   -10578950.46649  -8213167.86847  20657276.455    20657285.580
       243.000         212.000
  20330175.668    -6853036.07149  -5307355.27548  20330175.422    20330184.596
       246.000         217.000
  21848697.617     7266551.82049   5945177.87647  21848697.851    21848705.805
       238.000         196.000
  22554167.292     6004703.09949   4692294.46546  22554167.215    22554181.423
       230.000         187.000
  21451300.549   -13126993.64849 -10204240.83547  21451300.014    21451310.713
       241.000         207.000
  24260711.189     8513095.79249   6633842.72445  24260710.929    24260721.874
       207.000         146.000
  22997717.243    -4333611.20749  -3359382.22446  22997717.711    22997729.788
       220.000         167.000
 04  1 22 21 12  0.0000000  0  8G10G 5G24G 4G 9G17G 7G30
  23435783.107    -7295067.26049  -5242832.15246  23435781.526    23435797.391
       222.000         163.000
  20648932.728   -10622798.21049  -8247334.90247  20648932.362    20648941.550
       243.000         212.000
  20332534.303    -6840641.04849  -5297696.80148  20332534.489    20332543.368
       246.000         217.000
  21864136.033     7347681.13749   6008395.51747  21864136.413    21864144.672
       237.000         195.000
  22569983.214     6087816.12149   4757057.70146  22569983.516    22569996.687
       230.000         187.000
  21439690.553   -13188004.17849 -10251781.40947  21439690.011    21439700.770
       240.000         207.000
  24273139.934     8578408.79849   6684735.82145  24273140.834    24273152.334
       209.000         146.000
  22979419.047    -4429768.20249  -3434309.56646  22979419.279    22979432.215
       219.000         167.000
 04  1 22 21 12 30.0000000  0  8G10G 5G24G 4G 9G17G 7G30
  23416903.218    -7394280.26349  -5320140.64646  23416902.096    23416917.998
       220.000         163.000
  20640666.912   -10666235.50349  -8281182.10247  20640666.364    20640675.680
       243.000         212.000
  20334988.268    -6827745.62949  -5287648.39948  20334988.351    20334996.960
       247.000         217.000
  21879630.657     7429106.31549   6071843.69647  21879631.187    21879639.627
       236.000         195.000
  22585850.390     6171198.18249   4822030.58846  22585850.991    22585863.744
       230.000         186.000
  21428153.018   -13248633.90649 -10299025.24547  21428152.289    21428162.798
       240.000         207.000
  24285575.226     8643755.32049   6735655.04745  24285575.086    24285586.612
       210.000         147.000
  22961146.311    -4525791.77949  -3509132.93346  22961147.199    22961158.738
       218.000         166.000
 04  1 22 21 13  0.0000000  0  8G10G 5G24G 4G 9G17G 7G30
  23398041.613    -7493397.30749  -5397374.38345  23398040.983    23398055.898
       219.000         161.000
  20632479.605   -10709259.79849  -8314707.47947  20632479.482    20632488.470
       243.000         212.000
  20337537.105    -6814351.42349  -5277211.33248  20337537.186    20337546.048
       247.000         217.000
  21895181.213     7510825.07349   6135520.64247  21895181.631    21895190.260
       237.000         195.000
  22601768.315     6254846.45349   4887210.90646  22601768.951    22601781.765
       231.000         186.000
  21416688.175   -13308881.47349 -10345971.30147  21416687.446    21416698.148
       240.000         207.000
  24298016.918     8709136.02349   6786600.89445  24298015.814    24298028.304
       209.000         147.000
  22942899.332    -4621679.38449  -3583850.33846  22942899.041    22942911.173
       218.000         165.000
 04  1 22 21 13 30.0000000  0  8G10G 5G24G 4G 9G17G 7G30
  23379198.725    -7592415.66749  -5474531.21045  23379198.038    23379213.219
       218.000         160.000
  20624371.217   -10751869.65349  -8347909.92947  20624370.935    20624379.783
       243.000         212.000
  20340180.496    -6800460.39349  -5266387.13448  20340180.396    20340189.330
       247.000         217.000
  21910787.052     7592834.12449   6199423.78747  21910787.388    21910796.008
       236.000         194.000
  22617736.233     6338757.31549   4952595.82946  22617736.947    22617749.428
       230.000         186.000
  21405296.132   -13368746.28849 -10392619.11247  21405295.332    21405306.335
       239.000         207.000
  24310464.917     8774550.62649   6837573.14445  24310465.775    24310477.037
       207.000         146.000
  22924678.451    -4717429.44649  -3658460.56946  22924678.196    22924691.173
       219.000         165.000
 04  1 22 21 14  0.0000000  0  8G10G 5G24G 4G 9G17G 7G30
  23360375.379    -7691331.86749  -5551608.43345  23360374.219    23360389.375
       217.000         161.000
  20616342.065   -10794063.06549  -8380787.87648  20616341.684    20616350.605
       243.000         213.000
  20342918.251    -6786073.32049  -5255176.40948  20342917.951    20342927.038
       247.000         217.000
  21926447.578     7675131.03749   6263551.24647  21926447.796    21926456.531
       236.000         194.000
  22633753.489     6422928.03449   5018183.25746  22633753.748    22633766.580
       229.000         186.000
  21393977.133   -13428227.17749 -10438967.74947  21393976.398    21393987.243
       239.000         207.000
  24322919.543     8839999.55449   6888572.16445  24322918.044    24322931.101
       207.000         144.000
  22906484.460    -4813039.35549  -3732961.56846  22906484.721    22906496.906
       222.000         167.000
 04  1 22 21 14 30.0000000  0  8G10G 5G24G 4G 9G17G 7G30
  23341572.070    -7790142.62749  -5628603.48745  23341570.637    23341586.564
       220.000         161.000
  20608392.534   -10835838.12749  -8413339.83448  20608391.937    20608400.969
       244.000         213.000
  20345750.125    -6771191.46249  -5243580.14548  20345750.000    20345758.778
       247.000         217.000
  21942162.397     7757713.23049   6327901.00347  21942162.767    21942171.494
       236.000         193.000
  22649819.534     6507355.65949   5083970.86446  22649819.656    22649832.930
       228.000         185.000
  21382731.393   -13487323.36049 -10485016.61047  21382730.614    21382741.550
       240.000         207.000
  24335380.638     8905483.17449   6939598.21745  24335379.907    24335392.875
       209.000         143.000
  22888317.604    -4908506.93349  -3807351.66146  22888317.388    22888329.453
       221.000         168.000
 04  1 22 21 15  0.0000000  0  8G10G 5G24G 4G 9G17G 7G30
  23322789.461    -7888845.17549  -5705514.22445  23322787.290    23322803.571
       220.000         162.000
  20600522.843   -10877193.26049  -8445564.56848  20600522.295    20600531.338
       245.000         213.000
  20348675.845    -6755816.66049  -5231599.76348  20348675.855    20348684.897
       247.000         217.000
  21957930.967     7840577.63749   6392470.67347  21957931.340    21957939.807
       235.000         193.000
  22665933.797     6592036.66249   5149955.91846  22665934.340    22665947.544
       227.000         184.000
  21371559.063   -13546033.84449 -10530764.93247  21371558.368    21371569.568
       240.000         207.000
  24347848.372     8971001.19949   6990651.07845  24347849.025    24347859.672
       208.000         143.000
  22870178.080    -5003830.17349  -3881629.26046  22870177.366    22870190.464
       223.000         169.000
 04  1 22 21 15 30.0000000  0  8G10G 5G24G 4G 9G17G 7G30
  23304028.188    -7987435.45249  -5782337.50046  23304026.278    23304042.119
       218.000         163.000
  20592733.520   -10918126.21449  -8477460.33348  20592733.058    20592742.166
       245.000         213.000
  20351695.200    -6739949.88749  -5219236.02848  20351695.245    20351704.206
       247.000         217.000
  21973752.845     7923722.27649   6457258.69447  21973753.217    21973761.709
       235.000         193.000
  22682095.799     6676968.51649   5216136.42146  22682096.092    22682109.276
       227.000         183.000
  21360460.348   -13604357.60549 -10576211.91247  21360459.572    21360470.443
       240.000         207.000
  24360322.859     9036554.67049   7041731.56345  24360321.890    24360335.308
       206.000         143.000
  22852066.534    -5099006.19649  -3955792.15246  22852066.244    22852077.548
       222.000         171.000
 04  1 22 21 16  0.0000000  0  8G10G 5G24G 4G 9G17G 7G30
  23285288.608    -8085910.57449  -5859071.02646  23285287.091    23285303.410
       218.000         164.000
  20585024.920   -10958635.02849  -8509025.59848  20585024.674    20585033.582
       246.000         214.000
  20354807.905    -6723592.56249  -5206490.04448  20354807.930    20354816.577
       247.000         217.000
  21989627.409     8007144.10749   6522262.71047  21989627.588    21989636.804
       235.000         193.000
  22698304.997     6762147.94249   5282509.83746  22698305.210    22698318.763
       228.000         183.000
  21349435.379   -13662293.54749 -10621356.69147  21349434.944    21349445.565
       240.000         208.000
  24372803.839     9102143.52049   7092839.58245  24372803.959    24372816.233
       208.000         144.000
  22833983.322    -5194033.19849  -4029838.91946  22833983.392    22833994.281
       223.000         171.000
 04  1 22 21 16 30.0000000  0  8G10G 5G24G 4G 9G17G 7G30
  23266571.753    -8184267.04949  -5935712.10646  23266570.388    23266585.413
       219.000         166.000
  20577397.461   -10998717.64049  -8540258.75848  20577397.114    20577406.092
       246.000         215.000
  20358013.619    -6706746.29849  -5193363.06648  20358013.401    20358022.381
       245.000         217.000
  22005554.264     8090840.63349   6587480.77547  22005554.691    22005563.205
       236.000         193.000
  22714560.904     6847572.08249   5349073.94446  22714561.546    22714575.069
       228.000         183.000
  21338484.435   -13719840.86949 -10666198.64847  21338483.615    21338494.662
       240.000         208.000
  24385291.641     9167767.96449   7143975.36245  24385291.244    24385303.485
       208.000         144.000
  22815928.921    -5288908.82449  -4103767.75346  22815928.811    22815939.667
       224.000         173.000
 04  1 22 21 17  0.0000000  0  8G10G 5G24G 4G 9G17G 7G30
  23247877.926    -8282501.96149  -6012258.48446  23247876.950    23247892.048
       220.000         167.000
  20569851.378   -11038372.64949  -8571158.71448  20569851.188    20569859.955
       247.000         215.000
  20361312.008    -6689412.86449  -5179856.47448  20361311.897    20361320.930
       246.000         217.000
  22021532.844     8174808.57349   6652910.35047  22021532.880    22021542.171
       235.000         192.000
  22730862.624     6933237.27949   5415825.87946  22730862.222    22730876.443
       226.000         182.000
  21327607.446   -13776999.23049 -10710737.52047  21327606.935    21327617.704
       241.000         208.000
  24397786.416     9233427.85149   7195138.78945  24397786.204    24397799.814
       207.000         143.000
  22797903.717    -5383631.12749  -4177577.12646  22797903.460    22797915.177
       225.000         174.000
 04  1 22 21 17 30.0000000  0  8G10G 5G24G 4G 9G17G 7G30
  23229208.095    -8380611.34449  -6088707.03746  23229206.955    23229222.325
       218.000         167.000
  20562387.071   -11077597.73449  -8601723.66648  20562386.656    20562395.694
       246.000         215.000
  20364702.987    -6671592.93249  -5165970.79248  20364702.820    20364711.753
       245.000         217.000
  22037562.680     8259046.15549   6718550.01847  22037562.603    22037572.087
       235.000         192.000
  22747209.575     7019141.14149   5482763.78046  22747209.994    22747223.608
       227.000         181.000
  21316804.922   -13833766.75249 -10754971.84647  21316804.273    21316815.250
       240.000         208.000
  24410287.923     9299124.16949   7246330.58245  24410289.079    24410301.664
       209.000         142.000
  22779908.302    -5478197.16349  -4251264.75146  22779908.717    22779919.046
       225.000         175.000
 04  1 22 21 18  0.0000000  0  8G10G 5G24G 4G 9G17G 7G30
  23210562.555    -8478592.65049  -6165055.80946  23210560.853    23210576.434
       220.000         167.000
  20555004.783   -11116391.67549  -8631952.66048  20555004.357    20555013.194
       246.000         215.000
  20368186.067    -6653288.77849  -5151707.79548  20368185.928    20368195.036
       244.000         217.000
  22053643.240     8343549.96649   6784397.14347  22053643.680    22053652.664
       234.000         191.000
  22763601.329     7105279.81349   5549884.66146  22763601.267    22763615.850
       227.000         181.000
  21306076.672   -13890143.33949 -10798901.54047  21306075.721    21306087.089
       240.000         208.000
  24422796.645     9364856.62149   7297550.52245  24422796.630    24422809.559
       209.000         143.000
  22761942.903    -5572605.16049  -4324829.25446  22761942.845    22761953.973
       223.000         174.000
 04  1 22 21 18 30.0000000  0  8G10G 5G24G 4G 9G17G 7G30
  23191941.927    -8576443.25449  -6241302.73746  23191940.474    23191955.817
       219.000         166.000
  20547704.697   -11154753.45549  -8661844.90748  20547704.230    20547713.057
       246.000         215.000
  20371760.954    -6634502.44049  -5137069.06748  20371761.013    20371769.736
       245.000         217.000
  22069773.799     8428316.79549   6850449.21247  22069773.863    22069782.829
       234.000         191.000
  22780037.040     7191649.52249   5617185.56446  22780037.448    22780051.111
       226.000         181.000
  21295422.849   -13946128.79649 -10842526.47147  21295422.356    21295432.957
       241.000         209.000
  24435312.111     9430624.59949   7348798.12845  24435312.365    24435325.337
       206.000         144.000
  22744007.730    -5666853.67749  -4398269.46846  22744007.611    22744018.681
       222.000         173.000
 04  1 22 21 19  0.0000000  0  9G10G 6G 5G24G 4G 9G17G 7G30
  23173345.636    -8674165.55249  -6317449.68946  23173344.258    23173358.629
       220.000         167.000
  24819553.508    -4222982.65658  -3272128.65245  24819551.262    24819572.597
       194.000         135.000
  20540486.177   -11192686.81649  -8691403.31848  20540485.828    20540494.563
       246.000         215.000
  20375426.239    -6615241.34949  -5122060.39448  20375426.456    20375435.180
       245.000         217.000
  22085952.767     8513337.90749   6916699.44247  22085952.853    22085961.779
       234.000         190.000
  22796515.101     7278241.40149   5684659.59346  22796515.870    22796528.993
       227.000         182.000
  21284842.579   -14001728.26249 -10885850.62047  21284841.901    21284852.739
       240.000         208.000
  24447833.216     9496422.66949   7400069.20745  24447833.707    24447845.299
       209.000         143.000
  22726102.272    -5760946.19249  -4471588.15246  22726101.697    22726113.619
       221.000         171.000
 04  1 22 21 19 30.0000000  0  9G10G 6G 5G24G 4G 9G17G 7G30
  23154776.446    -8771745.52849  -6393485.74346  23154775.203    23154790.398
       220.000         168.000
  24806156.647    -4293381.70549  -3326984.72845  24806157.105    24806176.123
       197.000         137.000
  20533351.581   -11230179.38349  -8720618.26348  20533351.547    20533359.918
       247.000         215.000
  20379183.578    -6595496.40849  -5106674.70248  20379183.395    20379192.515
       245.000         217.000
  22102181.682     8598621.35049   6983154.09447  22102182.358    22102190.880
       234.000         190.000
  22813036.793     7365062.95749   5752312.59346  22813037.073    22813051.137
       226.000         181.000
  21274337.868   -14056930.21849 -10928865.01947  21274337.353    21274347.712
       240.000         208.000
  24460362.277     9562261.60449   7451372.11245  24460362.903    24460375.093
       205.000         142.000
  22708228.979    -5854869.83249  -4544775.25446  22708228.700    22708240.175
       221.000         170.000
 04  1 22 21 20  0.0000000  0  9G10G 6G 5G24G 4G 9G17G 7G30
  23136234.735    -8869181.73249  -6469409.74846  23136232.919    23136249.194
       220.000         169.000
  24792764.498    -4363757.48149  -3381822.68445  24792763.997    24792784.127
       200.000         138.000
  20526300.876   -11267231.29649  -8749489.84548  20526300.338    20526309.092
       246.000         216.000
  20383032.245    -6575271.13249  -5090914.72448  20383032.101    20383041.187
       245.000         217.000
  22118459.694     8684162.99449   7049809.92147  22118460.039    22118468.439
       233.000         190.000
  22829601.162     7452109.48649   5820140.88846  22829601.506    22829615.350
       226.000         180.000
  21263908.666   -14111735.60349 -10971570.40247  21263908.023    21263918.576
       240.000         208.000
  24472898.710     9628140.00149   7502705.77645  24472899.085    24472911.015
       205.000         141.000
  22690388.112    -5948623.92249  -4617830.25146  22690388.561    22690399.826
       222.000         170.000
 04  1 22 21 20 30.0000000  0  9G10G 6G 5G24G 4G 9G17G 7G30
  23117720.624    -8966472.28449  -6545220.26946  23117719.476    23117735.168
       221.000         170.000
  24779376.431    -4434111.64449  -3436643.81345  24779376.525    24779393.887
       201.000         137.000
  20519334.026   -11303841.91449  -8778017.56148  20519333.611    20519342.345
       247.000         216.000
  20386971.845    -6554568.42949  -5074782.72448  20386972.003    20386980.628
       245.000         217.000
  22134786.008     8769958.62549   7116663.66947  22134786.586    22134795.038
       233.000         189.000
  22846207.620     7539376.35149   5888140.87846  22846207.879    22846221.533
       226.000         180.000
  21253554.855   -14166144.94249 -11013967.17647  21253554.181    21253564.407
       241.000         208.000
  24485442.337     9694056.67649   7554069.24845  24485443.150    24485454.388
       207.000         140.000
  22672579.650    -6042207.51749  -4690752.41346  22672579.870    22672590.265
       220.000         169.000
 04  1 22 21 21  0.0000000  0  9G10G 6G 5G24G 4G 9G17G 7G30
  23099235.007    -9063613.89349  -6620914.73346  23099234.273    23099248.199
       222.000         170.000
  24765992.336    -4504444.65149  -3491448.44445  24765992.200    24766012.579
       201.000         136.000
  20512451.441   -11340010.08849  -8806200.51248  20512450.826    20512459.905
       247.000         216.000
  20391002.025    -6533389.74949  -5058279.83348  20391002.053    20391010.798
       246.000         217.000
  22151160.265     8856005.27749   7183713.02047  22151160.830    22151169.558
       233.000         189.000
  22862855.401     7626860.00049   5956309.78846  22862856.104    22862870.028
       226.000         180.000
  21243276.462   -14220157.83649 -11056055.03947  21243275.796    21243286.199
       241.000         208.000
  24497993.415     9760011.64949   7605462.52445  24497992.792    24498006.167
       206.000         141.000
  22654803.966    -6135618.58949  -4763540.12646  22654803.976    22654814.430
       219.000         167.000
 04  1 22 21 21 30.0000000  0  9G10G 6G 5G24G 4G 9G17G 7G30
  23080778.173    -9160603.83549  -6696491.00746  23080776.771    23080792.566
       220.000         169.000
  24752612.360    -4574756.95249  -3546236.91645  24752612.793    24752630.440
       201.000         137.000
  20505653.380   -11375733.97349  -8834037.26548  20505653.212    20505661.699
       248.000         217.000
  20395122.332    -6511737.33649  -5041407.79648  20395122.311    20395131.030
       246.000         217.000
  22167581.595     8942300.02149   7250955.67747  22167581.543    22167591.040
       232.000         188.000
  22879543.750     7714557.26649   6024645.16046  22879543.632    22879558.181
       224.000         180.000
  21233073.602   -14273773.85549 -11097833.64447  21233072.929    21233083.214
       240.000         209.000
  24510551.596     9826004.91349   7656885.69045  24510551.398    24510563.214
       206.000         140.000
  22637061.441    -6228855.21849  -4836191.89646  22637061.688    22637072.943
       219.000         166.000
 04  1 22 21 22  0.0000000  0  9G10G 6G 5G24G 4G 9G17G 7G30
  23062350.923    -9257437.87549  -6771945.81946  23062349.398    23062364.946
       221.000         169.000
  24739236.192    -4645047.91849  -3601008.77845  24739233.115    24739254.041
       202.000         135.000
  20498940.334   -11411011.29149  -8861526.04348  20498939.929    20498948.758
       246.000         217.000
  20399332.657    -6489612.01849  -5024167.26448  20399332.686    20399341.334
       246.000         217.000
  22184049.813     9028841.16149   7318390.32547  22184050.222    22184059.066
       233.000         188.000
  22896272.179     7802465.83149   6093145.17846  22896272.261    22896286.230
       224.000         179.000
  21222946.614   -14326991.28049 -11139301.65447  21222946.030    21222956.394
       241.000         209.000
  24523117.591     9892037.46249   7708339.45745  24523117.199    24523129.500
       203.000         138.000
  22619352.854    -6321914.08949  -4908705.16346  22619352.078    22619364.400
       220.000         167.000
 04  1 22 21 22 30.0000000  0  9G10G 6G 5G24G 4G 9G17G 7G30
  23043953.947    -9354113.79249  -6847277.42746  23043952.604    23043968.033
       222.000         168.000
  24725863.815    -4715318.70349  -3655764.90645  24725861.772    24725882.265
       201.000         134.000
  20492312.366   -11445841.02349  -8888666.05448  20492312.148    20492320.856
       247.000         217.000
  20403632.415    -6467016.44049  -5006560.30048  20403632.399    20403641.208
       246.000         217.000
  22200564.313     9115625.00749   7386014.11646  22200564.559    22200572.919
       232.000         187.000
  22913040.224     7890581.58649   6161806.63646  22913040.882    22913055.006
       225.000         178.000
  21212895.391   -14379810.39049 -11180459.29647  21212894.799    21212904.889
       241.000         209.000
  24535690.680     9958108.60849   7759823.26345  24535691.574    24535702.059
       205.000         137.000
  22601678.107    -6414793.87349  -4981078.88146  22601678.024    22601689.400
       221.000         166.000
 04  1 22 21 23  0.0000000  0  9G10G 6G 5G24G 4G 9G17G 7G30
  23025587.751    -9450627.71849  -6922482.80846  23025586.658    23025601.274
       219.000         168.000
  24712495.442    -4785569.40049  -3710505.35545  24712495.345    24712512.644
       201.000         134.000
  20485769.994   -11480221.44949  -8915455.95748  20485769.597    20485778.306
       247.000         217.000
  20408021.430    -6443951.88449  -4988587.89848  20408021.061    20408030.367
       245.000         217.000
  22217124.420     9202649.09749   7453825.11346  22217124.765    22217133.703
       232.000         187.000
  22929847.040     7978901.48749   6230627.17046  22929846.947    22929860.787
       225.000         177.000
  21202920.100   -14432230.36949 -11221305.92047  21202919.534    21202929.909
       241.000         209.000
  24548271.178    10024218.62949   7811337.35745  24548271.555    24548283.867
       203.000         136.000
  22584038.039    -6507492.05549  -5053311.09346  22584037.456    22584048.650
       220.000         166.000
 04  1 22 21 23 30.0000000  0  8G10G 6G 5G24G 4G 9G17G30
  23007253.051    -9546976.12849  -6997559.22346  23007251.711    23007266.414
       220.000         168.000
  24699130.658    -4855799.53649  -3765229.78445  24699130.118    24699148.705
       202.000         134.000
  20479313.559   -11514150.24049  -8941893.94048  20479313.326    20479321.993
       247.000         217.000
  20412499.409    -6420419.53549  -4970250.98648  20412499.361    20412508.399
       245.000         217.000
  22233729.794     9289911.26049   7521821.60946  22233730.179    22233738.775
       232.000         186.000
  22946692.219     8067422.98849   6299604.78546  22946692.795    22946706.321
       225.000         177.000
  21193021.019   -14484250.04749 -11261840.62847  21193020.477    21193030.400
       242.000         210.000
  22566433.105    -6600005.72049  -5125399.49046  22566433.583    22566444.149
       223.000         166.000
 04  1 22 21 24  0.0000000  0  8G10G 6G 5G24G 4G 9G17G30
  22988950.460    -9643155.50349  -7072503.92546  22988949.411    22988964.511
       219.000         168.000
  24685769.946    -4926009.14349  -3819938.25144  24685768.368    24685786.116
       202.000         131.000
  20472943.415   -11547625.39249  -8967978.43748  20472942.827    20472951.450
       246.000         217.000
  20417066.159    -6396420.81349  -4951550.66548  20417066.159    20417074.947
       246.000         217.000
  22250380.156     9377409.10549   7590001.75946  22250380.802    22250389.080
       232.000         185.000
  22963575.318     8156143.31549   6368737.32046  22963576.237    22963589.509
       225.000         176.000
  21183198.428   -14535868.25049 -11302062.49847  21183197.837    21183207.741
       242.000         210.000
  22548863.910    -6692332.35549  -5197342.15546  22548864.006    22548875.256
       223.000         168.000
 04  1 22 21 24 30.0000000  0  8G10G 6G 5G24G 4G 9G17G30
  22970680.495    -9739163.69249  -7147315.23446  22970679.130    22970694.135
       220.000         168.000
  24672412.787    -4996200.02649  -3874632.04944  24672411.355    24672428.716
       201.000         129.000
  20466659.584   -11580646.75649  -8993709.32948  20466659.297    20466667.924
       246.000         217.000
  20421721.170    -6371958.95849  -4932489.45748  20421721.157    20421730.054
       246.000         218.000
  22267074.581     9465138.83549   7658362.58846  22267075.225    22267083.459
       232.000         185.000
  22980495.338     8245057.91449   6438021.26446  22980495.834    22980509.569
       225.000         176.000
  21173451.970   -14587085.95949 -11341972.29547  21173451.555    21173461.484
       242.000         210.000
  22531330.527    -6784470.93649  -5269138.28146  22531330.195    22531341.637
       223.000         168.000
 04  1 22 21 25  0.0000000  0  8G10G 6G 5G24G 4G 9G17G30
  22952443.988    -9834996.33749  -7221989.75946  22952442.455    22952457.369
       220.000         167.000
  24659059.176    -5066371.07449  -3929310.41544  24659060.008    24659079.199
       200.000         128.000
  20460462.672   -11613211.54849  -9019084.45148  20460462.377    20460470.979
       246.000         217.000
  20426464.167    -6347034.15449  -4913067.52248  20426463.843    20426472.968
       245.000         217.000
  22283812.837     9553098.73049   7726902.76446  22283812.727    22283821.732
       230.000         185.000
  22997451.895     8334164.94049   6507455.13346  22997451.855    22997466.202
       223.000         176.000
  21163782.077   -14637901.35049 -11381568.60547  21163781.449    21163791.357
       242.000         211.000
  22513833.475    -6876418.01049  -5340785.17746  22513833.467    22513843.925
       223.000         168.000
 04  1 22 21 25 30.0000000  0  8G10G 6G 5G24G 4G 9G17G30
  22934241.164    -9930651.05649  -7296525.66946  22934239.446    22934254.579
       220.000         166.000
  24645709.686    -5136523.64549  -3983974.42444  24645709.800    24645728.272
       201.000         129.000
  20454352.884   -11645318.92749  -9044103.14848  20454352.606    20454361.147
       247.000         218.000
  20431294.626    -6321649.33849  -4893287.13048  20431294.579    20431303.373
       245.000         217.000
  22300594.028     9641285.15749   7795619.46446  22300594.180    22300603.017
       231.000         186.000
  23014444.347     8423460.23349   6577035.70146  23014445.351    23014458.874
       224.000         176.000
  21154188.631   -14688314.72049 -11420851.65647  21154187.910    21154198.108
       242.000         211.000
  22496372.990    -6968172.19449  -5412281.74346  22496372.895    22496383.999
       223.000         169.000
 04  1 22 21 26  0.0000000  0  8G10G 6G 5G24G 4G 9G17G30
  22916073.222   -10026123.54149  -7370919.56346  22916071.634    22916087.157
       218.000         166.000
  24632363.574    -5206656.86349  -4038623.35344  24632362.051    24632380.400
       196.000         128.000
  20448330.507   -11676966.51049  -9068763.56048  20448330.136    20448338.707
       246.000         218.000
  20436212.524    -6295805.49049  -4873149.06048  20436212.285    20436221.552
       245.000         217.000
  22317418.079     9729696.66349   7864511.54346  22317418.293    22317427.062
       230.000         185.000
  23031472.338     8512941.57549   6646761.24246  23031473.083    23031487.597
       225.000         176.000
  21144671.995   -14738324.58649 -11459820.29047  21144671.299    21144681.635
       242.000         211.000
  22478949.885    -7059730.07849  -5483625.35146  22478950.456    22478961.213
       225.000         172.000
 04  1 22 21 26 30.0000000  0  8G10G 6G 5G24G 4G 9G17G30
  22897940.392   -10121410.90349  -7445169.22446  22897939.346    22897954.389
       219.000         166.000
  24619020.852    -5276771.14649  -4093257.54644  24619020.417    24619037.180
       201.000         128.000
  20442395.927   -11708152.80049  -9093064.52648  20442395.594    20442404.144
       247.000         218.000
  20441217.405    -6269504.47949  -4852654.76448  20441217.320    20441226.434
       245.000         217.000
  22334284.379     9818330.13249   7933576.58746  22334284.497    22334293.604
       231.000         184.000
  23048535.046     8602605.57549   6716629.11646  23048535.561    23048549.781
       226.000         176.000
  21135232.170   -14787930.60049 -11498474.23747  21135231.494    21135241.723
       241.000         211.000
  22461564.712    -7151089.78949  -5554814.51646  22461564.592    22461575.371
       227.000         173.000
 04  1 22 21 27  0.0000000  0  8G10G 6G 5G24G 4G 9G17G30
  22879843.346   -10216509.91249  -7519272.12846  22879842.405    22879857.286
       220.000         167.000
  24605681.862    -5346867.17249  -4147877.48944  24605680.312    24605698.890
       200.000         129.000
  20436549.287   -11738876.65349  -9117005.15148  20436548.892    20436557.375
       246.000         217.000
  20446308.899    -6242748.42549  -4831805.88448  20446309.055    20446317.880
       245.000         217.000
  22351192.516     9907182.67149   8002812.33546  22351193.151    22351201.488
       231.000         184.000
  23065631.770     8692448.62549   6786636.52146  23065632.275    23065647.173
       224.000         177.000
  21125869.243   -14837132.66849 -11536813.42247  21125868.586    21125878.756
       242.000         211.000
  22444217.714    -7242249.16549  -5625847.58246  22444217.252    22444228.668
       227.000         175.000
 04  1 22 21 27 30.0000000  0  8G10G 6G 5G24G 4G 9G17G30
  22861782.935   -10311417.28949  -7593225.70446  22861781.828    22861796.840
       222.000         169.000
  24592346.338    -5416944.92749  -4202483.21944  24592345.154    24592362.353
       204.000         127.000
  20430790.981   -11769136.59549  -9140584.29848  20430790.598    20430799.185
       246.000         217.000
  20451486.744    -6215538.78449  -4810603.56548  20451486.800    20451495.650
       245.000         217.000
  22368141.780     9996251.63549   8072216.71646  22368141.888    22368150.840
       231.000         184.000
  23082762.021     8782467.66449   6856781.04846  23082762.716    23082777.412
       226.000         177.000
  21116583.339   -14885929.91849 -11574837.17047  21116582.664    21116592.799
       242.000         211.000
  22426909.077    -7333205.73149  -5696722.61546  22426908.914    22426919.195
       227.000         176.000
 04  1 22 21 28  0.0000000  0  8G10G 6G 5G24G 4G 9G17G30
  22843759.901   -10406128.93749  -7667026.76846  22843758.365    22843773.058
       221.000         170.000
  24579014.569    -5487003.83349  -4257074.23044  24579013.383    24579029.829
       205.000         128.000
  20425121.403   -11798930.02349  -9163799.92648  20425121.103    20425129.695
       246.000         217.000
  20456750.670    -6187876.77249  -4789048.74348  20456750.856    20456759.568
       246.000         217.000
  22385131.907    10085535.41349   8141788.46846  22385132.295    22385140.899
       231.000         184.000
  23099925.427     8872660.61249   6927061.06546  23099926.314    23099940.191
       226.000         178.000
  21107374.776   -14934321.06849 -11612544.47547  21107374.029    21107384.146
       241.000         211.000
  22409639.619    -7423956.34349  -5767437.17746  22409640.419    22409651.037
       228.000         177.000
 04  1 22 21 28 30.0000000  0  8G10G 6G 5G24G 4G 9G17G30
  22825774.340   -10500642.97949  -7740673.84946  22825773.366    22825787.440
       223.000         171.000
  24565685.860    -5557045.50849  -4311651.82244  24565686.169    24565701.721
       203.000         130.000
  20419540.780   -11828256.41649  -9186651.63048  20419540.376    20419549.092
       246.000         217.000
  20462100.075    -6159765.62549  -4767143.94148  20462099.993    20462108.987
       245.000         217.000
  22402162.154    10175030.01149   8211524.51046  22402162.845    22402170.651
       231.000         184.000
  23117121.043     8963022.88249   6997473.04246  23117121.630    23117135.587
       226.000         177.000
  21098243.223   -14982306.99649 -11649936.02047  21098242.770    21098252.502
       242.000         211.000
  22392409.750    -7514499.93249  -5837990.42446  22392409.517    22392420.023
       229.000         177.000
 04  1 22 21 29  0.0000000  0  8G10G 6G 5G24G 4G 9G17G30
  22807827.367   -10594954.51249  -7814163.14046  22807826.171    22807839.964
       222.000         171.000
  24552360.616    -5627068.52049  -4366214.92044  24552359.105    24552375.366
       202.000         130.000
  20414049.593   -11857112.72749  -9209137.03848  20414049.438    20414057.847
       246.000         218.000
  20467534.856    -6131205.52449  -4744889.30248  20467534.661    20467543.905
       245.000         217.000
  22419232.316    10264734.43949   8281424.05846  22419232.968    22419240.972
       231.000         183.000
  23134348.365     9053552.95949   7068015.77446  23134348.993    23134362.862
       224.000         176.000
  21089189.264   -15029885.45349 -11687010.05347  21089188.559    21089198.861
       242.000         211.000
  22375219.992    -7604832.59949  -5908379.33346  22375220.197    22375229.495
       229.000         177.000
 04  1 22 21 29 30.0000000  0  8G10G 6G 5G24G 4G 9G17G30
  22789919.321   -10689060.37849  -7887492.19346  22789917.528    22789932.170
       225.000         171.000
  24539038.885    -5697073.48649  -4420763.95344  24539037.858    24539055.760
       199.000         131.000
  20408648.119   -11885497.64349  -9231255.11648  20408647.687    20408656.410
       247.000         218.000
  20473054.618    -6102198.72049  -4722286.57848  20473054.469    20473063.509
       246.000         216.000
  22436341.985    10354645.89049   8351484.93546  22436341.914    22436351.272
       232.000         183.000
  23151607.028     9144247.22449   7138686.44046  23151607.596    23151621.701
       226.000         176.000
  21080212.845   -15077056.36649 -11723766.51847  21080212.293    21080222.233
       243.000         211.000
  22358070.597    -7694952.20649  -5978602.23146  22358070.690    22358081.174
       230.000         177.000
 04  1 22 21 30  0.0000000  0  8G10G 6G 5G24G 4G 9G17G30
  22772050.960   -10782958.75949  -7960659.55446  22772050.138    22772063.184
       224.000         171.000
  24525720.305    -5767061.98149  -4475300.14145  24525720.747    24525737.879
       201.000         133.000
  20403336.275   -11913411.41649  -9253006.07648  20403335.994    20403344.606
       247.000         218.000
  20478658.805    -6072748.47449  -4699338.32048  20478658.730    20478667.564
       245.000         216.000
  22453490.169    10444760.13649   8421703.82646  22453490.192    22453499.575
       231.000         183.000
  23168896.235     9235101.14449   7209481.51646  23168896.836    23168910.742
       226.000         177.000
  21071313.826   -15123820.73249 -11760206.19147  21071313.044    21071323.262
       242.000         212.000
  22340962.041    -7784858.00549  -6048658.54846  22340961.834    22340972.653
       229.000         178.000
 04  1 22 21 30 30.0000000  0  8G10G 6G 5G24G 4G 9G17G30
  22754223.020   -10876644.65449  -8033661.33046  22754222.050    22754235.361
       224.000         172.000
  24512405.262    -5837032.27349  -4529822.20645  24512405.015    24512423.229
       200.000         134.000
  20398114.709   -11940850.60749  -9274387.22548  20398114.359    20398123.189
       246.000         218.000
  20484347.374    -6042854.69049  -4676044.43948  20484347.351    20484356.248
       246.000         216.000
  22470676.742    10535076.47749   8492080.20046  22470677.264    22470685.911
       231.000         182.000
  23186215.531     9326113.51049   7280400.04346  23186216.596    23186229.793
       226.000         177.000
  21062492.602   -15170176.30349 -11796327.32247  21062492.010    21062502.015
       242.000         212.000
  22323894.907    -7874545.55549  -6118544.79446  22323895.159    22323904.862
       230.000         178.000
 04  1 22 21 31  0.0000000  0  8G10G 6G 5G24G 4G 9G17G30
  22736436.106   -10970114.88549  -8106495.06846  22736435.153    22736448.884
       225.000         173.000
  24499093.573    -5906984.70549  -4584330.31545  24499091.352    24499110.085
       198.000         134.000
  20392983.744   -11967813.94949  -9295397.58548  20392983.202    20392991.920
       246.000         218.000
  20490120.017    -6012519.33049  -4652406.48148  20490119.945    20490128.900
       244.000         217.000
  22487901.299    10625592.34349   8562612.04546  22487901.390    22487910.413
       230.000         183.000
  23203564.400     9417281.00649   7351439.46146  23203565.676    23203578.681
       226.000         176.000
  21053749.250   -15216122.51549 -11832129.47847  21053748.593    21053758.564
       242.000         212.000
  22306869.680    -7964012.60249  -6188259.23146  22306869.376    22306879.898
       227.000         177.000
 04  1 22 21 31 30.0000000  0  8G10G 6G 5G24G 4G 9G17G30
  22718690.987   -11063365.92349  -8179157.99546  22718689.928    22718703.247
       226.000         174.000
  24485784.982    -5976919.59449  -4638824.73245  24485784.074    24485800.541
       200.000         132.000
  20387943.572   -11994299.90349  -9316035.95948  20387943.151    20387951.751
       246.000         218.000
  20495976.211    -5981744.53749  -4628426.10848  20495976.091    20495985.166
       245.000         217.000
  22505163.288    10716304.77349   8633297.05146  22505163.829    22505172.390
       231.000         183.000
  23220942.152     9508600.51649   7422597.31746  23220942.666    23220956.254
       225.000         176.000
  21045083.771   -15261659.21249 -11867612.52747  21045083.092    21045093.265
       242.000         212.000
  22289886.895    -8053256.94649  -6257800.15146  22289887.302    22289897.767
       230.000         178.000
 04  1 22 21 32  0.0000000  0  8G10G 6G 5G24G 4G 9G17G30
  22700988.030   -11156394.81849  -8251647.84046  22700987.034    22701000.768
       225.000         175.000
  24472479.867    -6046837.24649  -4693305.74345  24472479.255    24472495.976
       202.000         134.000
  20382994.568   -12020307.04549  -9336301.23548  20382994.297    20383002.390
       246.000         218.000
  20501915.665    -5950532.46149  -4604104.99648  20501915.579    20501924.787
       245.000         217.000
  22522462.230    10807211.02249   8704133.09146  22522462.724    22522471.613
       231.000         183.000
  23238348.048     9600068.58749   7493870.94646  23238348.046    23238362.668
       223.000         174.000
  21036496.306   -15306786.30849 -11902776.41147  21036495.837    21036505.637
       243.000         212.000
  22272946.996    -8142276.30049  -6327165.76046  22272946.900    22272957.298
       230.000         179.000
 04  1 22 21 32 30.0000000  0  8G10G 6G 5G24G 4G 9G17G30
  22683328.130   -11249197.74949  -8323961.60646  22683327.189    22683340.464
       226.000         175.000
  24459178.216    -6116737.29649  -4747773.01045  24459176.774    24459194.234
       202.000         138.000
  20378136.965   -12045833.74249  -9356192.14548  20378136.670    20378145.073
       246.000         218.000
  20507938.101    -5918884.15549  -4579443.96348  20507938.050    20507947.030
       245.000         216.000
  22539797.777    10898309.30649   8775118.76946  22539798.822    22539807.082
       232.000         183.000
  23255781.667     9691682.86449   7565258.50946  23255782.627    23255795.089
       223.000         172.000
  21027987.043   -15351502.51949 -11937620.12847  21027986.498    21027996.284
       243.000         212.000
  22256050.453    -8231067.68449  -6396353.74546  22256050.537    22256059.900
       230.000         179.000
 04  1 22 21 33  0.0000000  0  8G10G 6G 5G24G 4G 9G17G30
  22665711.688   -11341772.62449  -8396097.66846  22665711.265    22665723.901
       226.000         176.000
  24445879.441    -6186620.95149  -4802227.56145  24445878.371    24445894.233
       206.000         139.000
  20373370.846   -12070879.43149  -9375708.23648  20373370.449    20373378.903
       246.000         217.000
  20514042.932    -5886803.03749  -4554445.67348  20514042.934    20514051.821
       245.000         216.000
  22557169.254    10989595.92049   8846251.19646  22557169.546    22557177.711
       232.000         183.000
  23273242.359     9783439.05949   7636756.65346  23273243.619    23273257.691
       222.000         171.000
  21019555.802   -15395808.86549 -11972144.47148  21019555.225    21019565.214
       243.000         213.000
  22239197.516    -8319629.74049  -6465363.03046  22239197.524    22239207.354
       230.000         179.000
 04  1 22 21 33 30.0000000  0  8G10G 6G 5G24G 4G 9G17G30
  22648139.483   -11434114.93749  -8468052.50946  22648138.990    22648151.769
       227.000         177.000
  24432584.165    -6256487.48949  -4856668.75945  24432583.954    24432599.644
       209.000         144.000
  20368696.818   -12095441.53249  -9394847.51448  20368696.325    20368704.848
       245.000         217.000
  20520229.964    -5854289.77949  -4529110.65248  20520229.870    20520239.029
       245.000         216.000
  22574576.081    11081069.34149   8917529.19746  22574576.126    22574584.391
       232.000         182.000
  23290729.674     9875334.99649   7708363.69046  23290730.243    23290744.388
       221.000         171.000
  21011202.868   -15439703.61249 -12006348.08948  21011202.137    21011211.938
       243.000         213.000
  22222388.865    -8407958.97949  -6534190.89346  22222388.071    22222398.630
       227.000         179.000
 04  1 22 21 34  0.0000000  0  8G10G 6G 5G24G 4G 9G17G30
  22630612.000   -11526221.67149  -8539823.78446  22630610.514    22630624.222
       225.000         177.000
  24419291.842    -6326337.65649  -4911097.13545  24419290.587    24419307.847
       208.000         148.000
  20364114.948   -12119519.09549  -9413609.22548  20364114.657    20364123.278
       246.000         217.000
  20526498.887    -5821346.52249  -4503440.56648  20526498.831    20526507.855
       245.000         216.000
  22592017.885    11172726.54549   8988950.40846  22592017.422    22592026.555
       230.000         181.000
  23308242.790     9967367.12549   7780076.84246  23308242.739    23308257.946
       219.000         170.000
  21002928.175   -15483186.91849 -12040231.10248  21002927.416    21002937.327
       243.000         213.000
  22205624.876    -8496053.26949  -6602835.67046  22205625.026    22205635.299
       228.000         179.000
 04  1 22 21 34 30.0000000  0  8G10G 6G 5G24G 4G 9G17G30
  22613130.118   -11618088.54049  -8611408.12646  22613129.136    22613142.223
       227.000         177.000
  24406002.742    -6396170.60949  -4965512.13045  24406002.316    24406019.025
       212.000         149.000
  20359625.750   -12143109.88449  -9431991.63648  20359625.445    20359634.071
       246.000         218.000
  20532849.399    -5787974.36749  -4477436.27248  20532849.424    20532858.343
       245.000         216.000
  22609494.239    11264566.07849   9060513.68046  22609494.363    22609502.937
       229.000         180.000
  23325781.473    10059533.35249   7851894.48546  23325781.677    23325796.497
       219.000         169.000
  20994732.041   -15526257.60049 -12073792.60248  20994731.450    20994741.486
       243.000         213.000
  22188906.331    -8583909.51749  -6671294.95946  22188906.380    22188916.533
       228.000         179.000
 04  1 22 21 35  0.0000000  0  8G10G 6G 5G24G 4G 9G17G30
  22595694.431   -11709713.08149  -8682803.66546  22595693.267    22595706.387
       226.000         176.000
  24392717.105    -6465987.10449  -5019914.32645  24392717.223    24392732.937
       212.000         149.000
  20355229.317   -12166213.20249  -9449994.20048  20355228.988    20355237.688
       246.000         218.000
  20539281.033    -5754175.90149  -4451099.79148  20539281.022    20539289.931
       245.000         216.000
  22627004.787    11356584.73849   9132216.54646  22627005.660    22627012.682
       229.000         180.000
  23343345.143    10151829.94949   7923813.71646  23343345.768    23343360.557
       222.000         169.000
  20986614.388   -15568915.85149 -12107032.71648  20986613.910    20986623.812
       243.000         214.000
  22172233.402    -8671525.90649  -6739567.34346  22172233.872    22172243.707
       228.000         180.000
 04  1 22 21 35 30.0000000  0  8G10G 6G 5G24G 4G 9G17G30
  22578305.374   -11801092.19549  -8754007.95946  22578304.705    22578316.638
       227.000         176.000
  24379434.364    -6535787.61249  -5074304.04445  24379433.419    24379449.693
       209.000         149.000
  20350925.901   -12188827.88649  -9467616.01548  20350925.677    20350933.980
       246.000         218.000
  20545793.353    -5719953.45949  -4424432.94548  20545793.353    20545802.194
       245.000         216.000
  22644548.822    11448779.58049   9204056.68546  22644548.945    22644556.950
       229.000         179.000
  23360932.874    10244253.62149   7995831.94946  23360933.632    23360948.321
       221.000         169.000
  20978575.190   -15611161.85949 -12139951.61348  20978574.675    20978584.573
       244.000         214.000
  22155606.527    -8758900.19249  -6807651.05646  22155606.423    22155616.906
       228.000         181.000
 04  1 22 21 36  0.0000000  0  8G10G 6G 5G24G 4G 9G17G30
  22560963.795   -11892222.21249  -8825018.14546  22560961.921    22560974.999
       226.000         176.000
  24366154.426    -6605572.02849  -5128681.23345  24366153.363    24366170.597
       207.000         146.000
  20346715.734   -12210952.46749  -9484855.93048  20346715.452    20346724.065
       246.000         218.000
  20552386.003    -5685308.76749  -4397437.06548  20552385.909    20552394.867
       245.000         216.000
  22662126.062    11541148.35949   9276032.37346  22662126.856    22662134.901
       229.000         179.000
  23378544.261    10336801.37749   8067946.88546  23378544.940    23378559.757
       220.000         170.000
  20970614.550   -15652995.06549 -12172548.84248  20970613.956    20970623.733
       244.000         214.000
  22139026.183    -8846029.67949  -6875544.01046  22139026.401    22139036.576
       227.000         181.000
 04  1 22 21 36 30.0000000  0  8G10G 6G 5G24G 4G 9G17G30
  22543670.234   -11983099.80949  -8895831.63046  22543669.083    22543681.660
       227.000         177.000
  24352877.569    -6675340.15349  -5183045.74145  24352876.784    24352893.389
       210.000         147.000
  20342599.111   -12232585.18349  -9501712.57448  20342598.762    20342607.390
       246.000         218.000
  20559058.654    -5650243.54049  -4370113.50548  20559058.720    20559067.683
       245.000         216.000
  22679735.994    11633688.86749   9348141.86846  22679736.755    22679744.594
       227.000         178.000
  23396178.755    10429470.43249   8140156.33146  23396179.932    23396194.179
       222.000         170.000
  20962732.598   -15694414.54549 -12204823.69248  20962732.023    20962741.833
       243.000         214.000
  22122492.919    -8932911.72149  -6943244.14446  22122492.757    22122502.527
       228.000         181.000
 04  1 22 21 37  0.0000000  0  8G10G 6G 5G24G 4G 9G17G30
  22526425.244   -12073721.83149  -8966446.00546  22526423.252    22526437.228
       225.000         177.000
  24339604.070    -6745092.26349  -5237397.74345  24339604.013    24339620.547
       209.000         147.000
  20338576.414   -12253724.62049  -9518184.84548  20338576.207    20338584.746
       246.000         218.000
  20565810.934    -5614760.04649  -4342464.01748  20565810.915    20565819.969
       245.000         216.000
  22697378.105    11726398.58849   9420383.21546  22697378.522    22697386.898
       227.000         178.000
  23413835.712    10522257.47649   8212457.72346  23413836.059    23413852.128
       220.000         171.000
  20954929.401   -15735420.27249 -12236776.13848  20954928.815    20954938.616
       243.000         214.000
  22106007.200    -9019543.84349  -7010749.54846  22106007.619    22106017.416
       229.000         182.000
 04  1 22 21 37 30.0000000  0  8G10G 6G 5G24G 4G 9G17G30
  22509229.519   -12164084.55249  -9036858.31946  22509228.206    22509241.341
       226.000         177.000
  24326333.503    -6814828.29149  -5291737.24145  24326332.381    24326348.616
       209.000         146.000
  20334647.847   -12274369.36949  -9534271.64548  20334647.456    20334655.960
       246.000         218.000
  20572642.483    -5578859.96649  -4314489.91248  20572642.316    20572651.309
       245.000         216.000
  22715051.908    11819275.09649   9492754.52946  22715051.947    22715060.863
       227.000         179.000
  23431514.506    10615159.47949   8284848.68446  23431515.359    23431530.475
       219.000         170.000
  20947204.920   -15776012.00249 -12268405.98448  20947204.422    20947214.186
       244.000         214.000
  22089569.681    -9105923.50549  -7078058.22546  22089569.849    22089580.016
       230.000         184.000
 04  1 22 21 38  0.0000000  0  8G10G 6G 5G24G 4G 9G17G30
  22492083.760   -12254185.22849  -9107066.44646  22492082.325    22492095.655
       224.000         177.000
  24313065.805    -6884548.69049  -5346064.58145  24313065.215    24313082.406
       210.000         149.000
  20330813.520   -12294518.71149  -9549972.41348  20330813.081    20330821.637
       246.000         218.000
  20579552.827    -5542545.84349  -4286193.18448  20579552.862    20579561.510
       246.000         216.000
  22732756.918    11912315.77949   9565253.76446  22732757.629    22732765.603
       226.000         179.000
  23449214.663    10708173.27149   8357326.73646  23449215.886    23449230.275
       221.000         169.000
  20939559.347   -15816189.59549 -12299713.12648  20939558.815    20939568.612
       244.000         214.000
  22073180.566    -9192048.54749  -7145168.50546  22073181.424    22073190.353
       231.000         184.000
 04  1 22 21 38 30.0000000  0  8G10G 6G 5G24G 4G 9G17G30
  22474988.395   -12344019.54449  -9177067.03446  22474987.530    22475000.487
       226.000         177.000
  24299801.308    -6954252.88549  -5400379.26245  24299800.448    24299816.880
       209.000         148.000
  20327073.977   -12314170.20249  -9565285.24548  20327073.710    20327081.965
       246.000         218.000
  20586541.797    -5505818.78649  -4257574.69148  20586541.774    20586550.532
       245.000         216.000
  22750492.724    12005518.60549   9637879.36846  22750493.201    22750501.655
       227.000         178.000
  23466935.691    10801296.35049   8429889.95546  23466936.168    23466951.088
       220.000         168.000
  20931992.735   -15855952.20049 -12330696.90348  20931992.323    20932002.127
       244.000         215.000
  22056840.591    -9277915.80649  -7212077.91546  22056841.267    22056850.336
       231.000         184.000
 04  1 22 21 39  0.0000000  0  8G10G 6G 5G24G 4G 9G17G30
  22457944.537   -12433584.45349  -9246857.69446  22457943.219    22457957.229
       225.000         178.000
  24286539.689    -7023941.25749  -5454681.62345  24286538.919    24286554.952
       210.000         148.000
  20323429.266   -12333323.16749  -9580209.61148  20323428.893    20323437.436
       246.000         218.000
  20593608.873    -5468680.86149  -4228636.04448  20593608.781    20593617.478
       245.000         216.000
  22768258.981    12098881.32449   9710629.56146  22768258.692    22768267.497
       225.000         177.000
  23484676.675    10894525.59349   8502535.90946  23484677.016    23484692.406
       219.000         167.000
  20924505.178   -15895299.67449 -12361357.19048  20924504.827    20924514.227
       243.000         215.000
  22040550.080    -9363522.90249  -7278784.60746  22040549.735    22040559.498
       229.000         184.000
 04  1 22 21 39 30.0000000  0  8G10G 6G 5G24G 4G 9G17G30
  22440952.386   -12522877.06649  -9316436.18646  22440951.582    22440964.475
       225.000         179.000
  24273281.160    -7093614.45249  -5508972.15545  24273280.807    24273296.554
       211.000         149.000
  20319879.520   -12351976.94049  -9594744.99248  20319879.140    20319887.658
       246.000         219.000
  20600753.704    -5431134.43849  -4199379.09048  20600753.465    20600762.420
       245.000         216.000
  22786055.012    12192400.73449   9783501.84746  22786055.212    22786064.656
       224.000         176.000
  23502437.303    10987857.54349   8575261.88446  23502437.891    23502452.967
       219.000         166.000
  20917096.504   -15934232.41049 -12391694.30848  20917095.906    20917105.436
       243.000         215.000
  22024309.369    -9448867.77849  -7345286.96946  22024309.198    22024319.178
       231.000         184.000
 04  1 22 21 40  0.0000000  0  8G10G 6G 5G24G 4G 9G17G30
  22424013.012   -12611893.69049  -9385799.61746  22424012.079    22424025.709
       225.000         179.000
  24260025.731    -7163271.99849  -5563250.49345  24260025.244    24260041.977
       210.000         151.000
  20316425.298   -12370129.20149  -9608889.58848  20316424.992    20316433.677
       246.000         219.000
  20607975.875    -5393181.47249  -4169805.35048  20607975.855    20607984.538
       245.000         216.000
  22803880.464    12286074.96249   9856494.76946  22803880.902    22803889.708
       224.000         176.000
  23520216.913    11081289.52349   8648065.79846  23520218.132    23520232.985
       220.000         166.000
  20909766.883   -15972749.40949 -12421707.47648  20909766.340    20909775.889
       243.000         215.000
  22008119.169    -9533947.54549  -7411582.76646  22008119.236    22008129.026
       230.000         184.000
 04  1 22 21 40 30.0000000  0  8G10G 6G 5G24G 4G 9G17G30
  22407126.646   -12700631.19849  -9454945.56346  22407125.520    22407139.048
       225.000         179.000
  24246773.141    -7232914.40749  -5617517.02145  24246772.319    24246789.057
       209.000         150.000
  20313066.604   -12387779.25449  -9622642.84848  20313066.147    20313074.819
       246.000         219.000
  20615275.069    -5354824.13249  -4139916.51148  20615275.202    20615283.756
       245.000         216.000
  22821734.842    12379901.05449   9929606.00746  22821734.682    22821744.040
       224.000         175.000
  23538014.933    11174818.10649   8720944.98946  23538016.150    23538030.799
       220.000         167.000
  20902516.321   -16010851.19649 -12451397.09148  20902515.769    20902525.278
       244.000         215.000
  21991979.657    -9618760.09149  -7477670.31746  21991979.130    21991989.515
       228.000         183.000
 04  1 22 21 41  0.0000000  0  8G10G 6G 5G24G 4G 9G17G30
  22390294.104   -12789085.97449  -9523871.18846  22390293.073    22390306.139
       226.000         179.000
  24233523.388    -7302541.38349  -5671771.53145  24233522.362    24233538.205
       209.000         149.000
  20309803.753   -12404925.58649  -9636003.60248  20309803.416    20309812.049
       246.000         219.000
  20622650.948    -5316063.98249  -4109713.78748  20622650.906    20622659.540
       245.000         216.000
  22839617.833    12473877.18549  10002834.16846  22839618.561    22839627.059
       225.000         175.000
  23555830.859    11268440.75749   8793897.48246  23555831.257    23555846.744
       219.000         167.000
  20895344.914   -16048537.04549 -12480762.60348  20895344.164    20895353.741
       243.000         215.000
  21975891.480    -9703302.66649  -7543547.51246  21975892.116    21975901.197
       230.000         182.000
 04  1 22 21 41 30.0000000  0  8G10G 6G 5G24G 4G 9G17G30
  22373515.733   -12877256.44849  -9592575.26546  22373514.798    22373527.579
       226.000         179.000
  24220276.320    -7372154.50249  -5726015.24045  24220275.642    24220291.821
       210.000         151.000
  20306636.609   -12421568.76149  -9648972.28248  20306636.228    20306644.871
       247.000         219.000
  20630102.757    -5276904.45549  -4079199.86048  20630102.697    20630111.473
       245.000         216.000
  22857528.799    12567999.40949  10076176.16546  22857529.721    22857538.698
       226.000         176.000
  23573663.864    11362152.87249   8866919.67246  23573664.442    23573679.988
       220.000         168.000
  20888252.298   -16085808.38849 -12509805.12848  20888251.854    20888261.284
       243.000         215.000
  21959855.116    -9787574.16949  -7609213.49246  21959855.169    21959864.654
       231.000         183.000
 04  1 22 21 42  0.0000000  0  8G10G 6G 5G24G 4G 9G17G30
  22356792.289   -12965137.86149  -9661054.09846  22356791.505    22356804.360
       227.000         180.000
  24207031.959    -7441752.52849  -5780247.18845  24207030.362    24207047.831
       209.000         150.000
  20303565.796   -12437705.87149  -9661546.62848  20303565.424    20303573.839
       246.000         219.000
  20637630.377    -5237346.51949  -4048375.48048  20637630.246    20637639.124
       245.000         215.000
  22875467.386    12662266.58649  10149631.11146  22875467.743    22875475.685
       226.000         175.000
  23591513.589    11455952.52749   8940010.07146  23591515.044    23591529.866
       221.000         168.000
  20881238.961   -16122663.66249 -12538523.43948  20881238.359    20881248.098
       244.000         215.000
  21943871.071    -9871570.59449  -7674665.12646  21943871.344    21943880.931
       231.000         185.000
 04  1 22 21 42 30.0000000  0  8G10G 6G 5G24G 4G 9G17G30
  22340124.740   -13052726.54949  -9729304.84346  22340123.614    22340136.056
       228.000         181.000
  24193790.343    -7511335.06549  -5834467.03645  24193789.488    24193805.487
       210.000         150.000
  20300591.601   -12453335.29349  -9673725.37848  20300591.123    20300599.969
       246.000         219.000
  20645233.475    -5197391.73449  -4017241.86748  20645233.252    20645242.312
       245.000         215.000
  22893433.192    12756676.88149  10223197.57646  22893433.706    22893441.928
       226.000         174.000
  23609379.465    11549837.16749   9013166.69246  23609379.946    23609395.739
       221.000         168.000
  20874304.830   -16159102.24849 -12566917.07148  20874304.280    20874313.755
       243.000         215.000
  21927939.830    -9955289.15349  -7739900.23546  21927939.863    21927949.565
       230.000         185.000
 04  1 22 21 43  0.0000000  0  8G10G 6G 5G24G 4G 9G17G30
  22323513.414   -13140019.64449  -9797325.27046  22323512.564    22323525.043
       228.000         181.000
  24180551.967    -7580902.90249  -5888675.44545  24180551.642    24180566.688
       213.000         150.000
  20297714.022   -12468457.03549  -9685508.52948  20297713.865    20297722.091
       247.000         219.000
  20652911.618    -5157042.84349  -3985801.15548  20652911.507    20652920.253
       244.000         215.000
  22911425.639    12851227.22049  10296873.18946  22911425.990    22911434.307
       226.000         173.000
  23627260.922    11643803.45649   9086386.93446  23627261.337    23627277.008
       220.000         168.000
  20867449.922   -16195124.76949 -12594986.49048  20867449.345    20867459.004
       243.000         215.000
  21912061.798   -10038727.91849  -7804917.30846  21912062.555    21912071.604
       231.000         185.000
 04  1 22 21 43 30.0000000  0  8G10G 6G 5G24G 4G 9G17G30
  22306958.932   -13227013.73649  -9865112.69246  22306958.174    22306970.058
       228.000         181.000
  24167316.361    -7650455.76949  -5942872.17745  24167315.895    24167330.988
       210.000         150.000
  20294933.477   -12483069.12149  -9696894.54848  20294933.200    20294941.446
       247.000         219.000
  20660664.365    -5116301.70849  -3954054.79748  20660664.050    20660673.124
       244.000         214.000
  22929444.118    12945915.57549  10370656.32846  22929443.846    22929452.796
       223.000         173.000
  23645157.224    11737848.46249   9159668.51346  23645157.058    23645173.550
       218.000         167.000
  20860674.266   -16230730.62849 -12622731.23948  20860673.736    20860683.047
       244.000         215.000
  21896237.620   -10121884.21749  -7869714.28346  21896237.740    21896247.316
       232.000         186.000
 04  1 22 21 44  0.0000000  0  8G10G 6G 5G24G 4G 9G17G30
  22290462.071   -13313704.94049  -9932664.10546  22290461.105    22290473.431
       228.000         181.000
  24154083.697    -7719993.15149  -5997056.82045  24154082.996    24154098.659
       210.000         150.000
  20292250.033   -12497170.47149  -9707882.59248  20292249.398    20292258.130
       246.000         219.000
  20668491.489    -5075169.58449  -3922003.78048  20668491.421    20668500.077
       244.000         214.000
  22947488.554    13040739.99249  10444545.49646  22947488.504    22947497.224
       225.000         173.000
  23663068.063    11831969.81249   9233009.57946  23663068.668    23663084.475
       219.000         167.000
  20853978.061   -16265919.30049 -12650150.90448  20853977.512    20853986.925
       243.000         215.000
  21880467.813   -10204754.84949  -7934288.67646  21880468.267    21880477.324
       232.000         187.000
 04  1 22 21 44 30.0000000  0  8G10G 6G 5G24G 4G 9G17G30
  22274023.378   -13400090.72849  -9999977.52246  22274022.015    22274034.054
       228.000         181.000
  24140853.667    -7789515.95349  -6051230.11745  24140853.365    24140868.789
       211.000         149.000
  20289663.899   -12510760.25149  -9718472.00748  20289663.688    20289672.044
       246.000         219.000
  20676392.418    -5033649.64049  -3889650.55548  20676392.271    20676401.306
       244.000         214.000
  22965558.377    13135697.35249  10518538.24946  22965559.334    22965568.009
       224.000         173.000
  23680992.746    11926163.76749   9306407.21746  23680993.679    23681009.553
       220.000         167.000
  20847361.063   -16300691.52149 -12677246.06948  20847360.643    20847369.831
       243.000         216.000
  21864752.640   -10287338.21849  -7998639.22047  21864753.086    21864761.767
       233.000         188.000
 04  1 22 21 45  0.0000000  0  8G10G 6G 5G24G 4G 9G17G30
  22257643.306   -13486167.60149 -10067050.22646  22257641.805    22257653.736
       228.000         181.000
  24127626.568    -7859024.32249  -6105392.16145  24127626.762    24127640.427
       215.000         150.000
  20287175.435   -12523837.09549  -9728661.73048  20287175.231    20287183.798
       247.000         219.000
  20684366.786    -4991743.92449  -3856996.73548  20684366.631    20684375.686
       244.000         214.000
  22983653.085    13230785.31149  10592632.75046  22983653.338    22983662.498
       224.000         173.000
  23698930.808    12020427.13549   9379858.93946  23698932.001    23698946.109
       222.000         168.000
  20840823.313   -16335047.32249 -12704016.74448  20840822.679    20840832.183
       243.000         215.000
  21849092.603   -10369631.77849  -8062763.92547  21849092.738    21849101.652
       233.000         188.000
 04  1 22 21 45 30.0000000  0  8G10G 6G 5G24G 4G 9G17G30
  22241322.764   -13571932.17149 -10133879.57046  22241322.033    22241333.478
       228.000         182.000
  24114402.132    -7928517.92549  -6159542.68045  24114400.908    24114416.467
       213.000         150.000
  20284784.868   -12536399.71349  -9738450.75448  20284784.506    20284792.814
       246.000         219.000
  20692414.244    -4949454.16449  -3824043.66148  20692414.230    20692423.118
       244.000         214.000
  23001772.263    13326001.88949  10666827.48646  23001772.524    23001781.810
       223.000         171.000
  23716881.595    12114757.18849   9453362.61146  23716881.565    23716898.212
       219.000         168.000
  20834364.876   -16368986.24649 -12730462.58648  20834364.370    20834373.703
       243.000         215.000
  21833488.231   -10451632.63249  -8126660.55347  21833488.570    21833497.666
       233.000         188.000
 04  1 22 21 46  0.0000000  0  8G10G 6G 5G24G 4G 9G17G30
  22225062.215   -13657380.98449 -10200462.86946  22225061.080    22225073.402
       228.000         183.000
  24101180.559    -7997996.55149  -6213681.57645  24101179.970    24101195.101
       211.000         150.000
  20282492.279   -12548447.11749  -9747838.31848  20282491.813    20282500.327
       246.000         219.000
  20700534.463    -4906781.94549  -3790792.56448  20700534.168    20700543.415
       244.000         214.000
  23019915.478    13421345.18749  10741120.97546  23019916.413    23019923.873
       223.000         171.000
  23734844.248    12209151.44449   9526916.31846  23734845.039    23734860.878
       218.000         166.000
  20827985.889   -16402507.81949 -12756583.22548  20827985.296    20827994.537
       244.000         215.000
  21817940.037   -10533338.08949  -8190326.99247  21817939.835    21817949.452
       231.000         188.000
 04  1 22 21 46 30.0000000  0  8G10G 6G 5G24G 4G 9G17G30
  22208862.497   -13742510.33649 -10266797.23246  22208861.015    22208873.556
       228.000         184.000
  24087961.936    -8067460.01849  -6267808.64045  24087960.832    24087975.370
       209.000         149.000
  20280297.998   -12559978.03849  -9756823.43148  20280297.692    20280306.017
       247.000         219.000
  20708727.143    -4863729.01049  -3757244.81348  20708727.167    20708736.265
       243.000         214.000
  23038082.421    13516813.01349  10815511.48946  23038082.757    23038091.119
       223.000         170.000
  23752818.594    12303607.06749   9600517.84846  23752818.466    23752835.057
       218.000         166.000
  20821686.347   -16435611.87449 -12782378.53148  20821685.817    20821695.122
       244.000         215.000
  21802448.573   -10614745.10849  -8253760.89047  21802448.449    21802458.354
       231.000         188.000
 04  1 22 21 47  0.0000000  0  8G10G 6G 5G24G 4G 9G17G30
  22192724.121   -13827317.37749 -10332880.46646  22192723.247    22192735.231
       229.000         184.000
  24074745.909    -8136908.63949  -6321924.14545  24074745.261    24074760.643
       210.000         149.000
  20278202.121   -12570991.94449  -9765405.67948  20278201.843    20278210.229
       246.000         219.000
  20716991.759    -4820298.21249  -3723402.62448  20716991.815    20717000.710
       243.000         214.000
  23056272.516    13612402.64949  10889996.91446  23056272.485    23056280.107
       223.000         169.000
  23770804.017    12398120.63149   9674164.52846  23770804.245    23770821.008
       217.000         165.000
  20815466.236   -16468298.76149 -12807848.76548  20815465.663    20815474.878
       243.000         216.000
  21787014.347   -10695851.70649  -8316960.69847  21787013.994    21787023.687
       232.000         188.000
 04  1 22 21 47 30.0000000  0  8G10G 6G 5G24G 4G 9G17G30
  22176647.711   -13911799.06549 -10398710.14146  22176647.297    22176658.416
       231.000         185.000
  24061532.763    -8206342.82749  -6376028.36245  24061532.508    24061547.708
       212.000         152.000
  20276204.845   -12581487.67949  -9773584.15448  20276204.536    20276212.957
       247.000         219.000
  20725327.768    -4776491.87249  -3689267.79948  20725327.574    20725336.694
       243.000         214.000
  23074485.391    13708111.64349  10964575.35146  23074485.476    23074493.867
       224.000         169.000
  23788799.812    12492688.97849   9747853.88446  23788799.677    23788816.810
       215.000         164.000
  20809325.335   -16500568.83949 -12832994.21048  20809324.684    20809333.926
       243.000         216.000
  21771637.782   -10776655.67549  -8379924.69147  21771637.669    21771647.579
       233.000         189.000
 04  1 22 21 48  0.0000000  0  8G10G 6G 5G24G 4G 9G17G30
  22160633.696   -13995952.07349 -10464283.70746  22160632.623    22160644.863
       230.000         186.000
  24048322.395    -8275762.58449  -6430121.35845  24048321.344    24048336.790
       212.000         155.000
  20274306.380   -12591464.16649  -9781358.02048  20274305.890    20274314.461
       246.000         219.000
  20733734.866    -4732311.92649  -3654841.84848  20733734.894    20733743.923
       244.000         214.000
  23092720.495    13803937.57749  11039244.93446  23092720.352    23092729.523
       223.000         170.000
  23806805.551    12587309.22649   9821583.67246  23806806.531    23806823.101
       218.000         164.000
  20803263.838   -16532421.88949 -12857814.69848  20803263.211    20803272.651
       243.000         216.000
  21756319.294   -10857154.49349  -8442650.90547  21756319.324    21756329.132
       233.000         189.000
 04  1 22 21 48 30.0000000  0  8G10G 6G 5G24G 4G 9G17G30
  22144682.849   -14079773.36749 -10529598.79246  22144682.166    22144693.829
       232.000         186.000
  24035114.791    -8345168.03449  -6484203.20645  24035113.897    24035129.385
       214.000         156.000
  20272506.776   -12600920.81849  -9788726.82448  20272506.476    20272514.807
       247.000         219.000
  20742212.658    -4687760.65449  -3620126.55448  20742212.665    20742221.775
       243.000         214.000
  23110977.364    13899878.30949  11114003.93946  23110978.073    23110986.653
       223.000         171.000
  23824820.721    12681978.36749   9895351.56546  23824821.150    23824838.315
       216.000         163.000
  20797281.680   -16563858.10649 -12882310.38648  20797281.182    20797290.376
       243.000         216.000
  21741059.374   -10937345.47549  -8505137.24747  21741059.768    21741068.722
       232.000         188.000
 04  1 22 21 49  0.0000000  0  8G10G 6G 5G24G 4G 9G17G30
  22128795.913   -14163259.41049 -10594652.63946  22128794.634    22128806.846
       231.000         187.000
  24021909.803    -8414559.02049  -6538273.80445  24021908.849    24021924.178
       212.000         156.000
  20270806.388   -12609856.62849  -9795689.78248  20270806.053    20270814.546
       246.000         219.000
  20750760.720    -4642840.10249  -3585123.51548  20750760.707    20750769.813
       243.000         214.000
  23129255.761    13995931.59749  11188850.66446  23129255.220    23129264.372
       224.000         170.000
  23842844.626    12776693.49949   9969155.28245  23842845.452    23842861.713
       216.000         162.000
  20791378.813   -16594877.45649 -12906481.24048  20791378.058    20791387.599
       243.000         215.000
  21725858.449   -11017226.27149  -8567381.90647  21725858.731    21725868.081
       234.000         189.000
 04  1 22 21 49 30.0000000  0  8G10G 6G 5G24G 4G 9G17G30
  22112973.307   -14246407.06849 -10659442.82547  22112972.308    22112984.279
       232.000         188.000
  24008707.645    -8483935.69449  -6592333.24545  24008706.948    24008722.061
       215.000         155.000
  20269205.282   -12618270.53949  -9802246.06648  20269204.712    20269213.488
       246.000         219.000
  20759378.664    -4597552.68849  -3549834.60248  20759378.691    20759387.557
       244.000         214.000
  23147555.165    14092095.14149  11263783.28546  23147555.721    23147564.187
       222.000         168.000
  23860876.767    12871451.64449  10042992.51145  23860877.518    23860893.900
       216.000         161.000
  20785555.266   -16625479.95949 -12930327.28248  20785554.650    20785563.921
       243.000         215.000
  21710717.165   -11096794.31249  -8629382.85447  21710717.263    21710726.364
       234.000         190.000
 04  1 22 21 50  0.0000000  0  8G10G 6G 5G24G 4G 9G17G30
  22097215.685   -14329213.54449 -10723967.13547  22097214.227    22097226.326
       232.000         189.000
  23995508.060    -8553298.20449  -6646381.64845  23995507.296    23995521.750
       213.000         155.000
  20267703.566   -12626161.57449  -9808394.90548  20267703.141    20267711.596
       246.000         219.000
  20768065.993    -4551900.37549  -3514261.35248  20768065.957    20768075.065
       244.000         214.000
  23165875.025    14188366.45749  11338799.89146  23165875.558    23165883.786
       224.000         169.000
  23878916.465    12966249.68049  10116860.82445  23878916.630    23878933.958
       214.000         160.000
  20779811.000   -16655665.94749 -12953848.76248  20779810.537    20779819.656
       244.000         216.000
  21695635.713   -11176047.23549  -8691138.24747  21695635.814    21695644.900
       232.000         189.000
 04  1 22 21 50 30.0000000  0  8G10G 6G 5G24G 4G 9G17G30
  22081523.567   -14411675.08149 -10788222.68647  22081522.670    22081534.088
       233.000         189.000
  23982311.222    -8622645.97549  -6700418.57645  23982310.702    23982324.280
       215.000         153.000
  20266301.641   -12633528.71649  -9814135.51948  20266301.222    20266309.802
       246.000         219.000
  20776822.519    -4505884.79449  -3478405.03848  20776822.535    20776831.451
       244.000         214.000
  23184215.140    14284743.81649  11413899.14446  23184215.482    23184222.723
       224.000         170.000
  23896963.237    13061084.98249  10190758.16945  23896964.286    23896980.758
       215.000         160.000
  20774146.146   -16685435.01249 -12977045.37048  20774145.808    20774154.587
       243.000         216.000
  21680614.808   -11254981.97249  -8752645.71647  21680614.923    21680623.996
       234.000         189.000
 04  1 22 21 51  0.0000000  0  8G10G 6G 5G24G 4G 9G17G30
  22065897.873   -14493788.40549 -10852206.85147  22065896.288    22065908.464
       232.000         189.000
  23969117.415    -8691979.33349  -6754444.29745  23969115.696    23969132.457
       213.000         153.000
  20264999.536   -12640371.24649  -9819467.35548  20264999.343    20265007.568
       247.000         219.000
  20785647.646    -4459508.49849  -3442267.65448  20785647.436    20785656.644
       244.000         214.000
  23202574.799    14381224.74049  11489079.07546  23202574.922    23202582.580
       223.000         170.000
  23915016.619    13155954.55549  10264682.22745  23915017.698    23915033.380
       215.000         160.000
  20768560.554   -16714787.43849 -12999917.32848  20768560.195    20768569.124
       244.000         216.000
  21665654.918   -11333596.25949  -8813903.49647  21665655.039    21665663.833
       234.000         190.000
 04  1 22 21 51 30.0000000  0  8G10G 6G 5G24G 4G 9G17G30
  22050339.006   -14575549.78849 -10915916.77547  22050338.199    22050349.300
       232.000         189.000
  23955926.209    -8761297.65049  -6808458.30545  23955925.578    23955939.966
       214.000         155.000
  20263797.619   -12646687.34249  -9824388.97948  20263797.385    20263805.619
       247.000         219.000
  20794541.057    -4412773.10249  -3405850.45448  20794541.049    20794550.019
       244.000         214.000
  23220953.854    14477807.56149  11564338.41846  23220954.148    23220962.124
       223.000         169.000
  23933075.918    13250856.27149  10338631.32645  23933076.236    23933093.658
       214.000         159.000
  20763054.348   -16743722.64649 -13022464.18048  20763053.787    20763062.839
       243.000         216.000
  21650756.646   -11411886.90949  -8874909.09847  21650757.183    21650765.703
       235.000         191.000
 04  1 22 21 52  0.0000000  0  8G10G 6G 5G24G 4G 9G17G30
  22034847.469   -14656957.55049 -10979351.16047  22034846.153    22034857.184
       231.000         189.000
  23942737.941    -8830602.09649  -6862461.49645  23942737.977    23942751.883
       216.000         156.000
  20262695.830   -12652477.51149  -9828900.78348  20262695.708    20262703.782
       247.000         219.000
  20803502.293    -4365681.55249  -3369155.72748  20803502.445    20803511.173
       244.000         214.000
  23239351.689    14574489.05349  11639674.64346  23239351.332    23239360.243
       223.000         169.000
  23951140.673    13345785.83349  10412602.11445  23951141.610    23951158.557
       215.000         159.000
  20757627.226   -16772241.97649 -13044686.96748  20757626.734    20757635.825
       244.000         216.000
  21635920.241   -11489852.55649  -8935661.44347  21635920.454    21635929.087
       234.000         191.000
 04  1 22 21 52 30.0000000  0  8G10G 6G 5G24G 4G 9G17G30
  22019423.956   -14738006.83349 -11042506.25047  22019422.881    22019433.886
       231.000         188.000
  23929552.508    -8899891.54549  -6916453.01745  23929551.696    23929566.240
       215.000         156.000
  20261694.461   -12657739.70049  -9833001.18048  20261694.191    20261702.362
       247.000         219.000
  20812531.064    -4318235.21349  -3332184.54948  20812531.264    20812539.781
       244.000         214.000
  23257768.130    14671268.02949  11715086.83146  23257768.452    23257776.997
       223.000         170.000
  23969210.353    13440741.38849  10486593.16745  23969210.581    23969227.868
       213.000         159.000
  20752279.450   -16800344.52549 -13066584.99148  20752278.856    20752288.037
       243.000         216.000
  21621146.321   -11567489.65449  -8996157.78447  21621146.832    21621155.237
       235.000         191.000
 04  1 22 21 53  0.0000000  0  8G10G 6G 5G24G 4G 9G17G30
  22004069.211   -14818695.38049 -11105380.25746  22004068.141    22004079.636
       231.000         187.000
  23916369.633    -8969166.70449  -6970433.40845  23916369.192    23916382.849
       214.000         155.000
  20260793.513   -12662474.02049  -9836690.24648  20260793.165    20260801.324
       246.000         219.000
  20821626.816    -4270437.01449  -3294939.19148  20821626.758    20821635.485
       245.000         214.000
  23276202.519    14768141.75049  11790572.83146  23276202.690    23276210.273
       221.000         169.000
  23987284.123    13535719.39249  10560601.69345  23987284.409    23987302.401
       213.000         158.000
  20747010.788   -16828031.13949 -13088158.91148  20747010.214    20747019.307
       243.000         215.000
  21606435.292   -11644796.41549  -9056396.71547  21606435.146    21606444.325
       234.000         191.000
 04  1 22 21 53 30.0000000  0  8G10G 6G 5G24G 4G 9G17G30
  21988783.746   -14899020.00949 -11167970.67346  21988782.802    21988793.845
       231.000         187.000
  23903189.482    -9038427.44049  -7024402.53645  23903188.637    23903203.323
       213.000         156.000
  20259993.220   -12666679.59449  -9839967.29648  20259992.839    20260001.249
       247.000         219.000
  20830789.142    -4222288.72449  -3257421.03948  20830789.015    20830797.950
       245.000         214.000
  23294654.444    14865107.99549  11866130.92546  23294654.946    23294662.975
       222.000         169.000
  24005361.498    13630716.94349  10634625.45945  24005362.224    24005380.168
       212.000         158.000
  20741821.279   -16855301.71349 -13109408.64148  20741820.596    20741829.780
       243.000         215.000
  21591787.594   -11721770.03649  -9116376.06947  21591787.856    21591796.858
       236.000         192.000
 04  1 22 21 54  0.0000000  0  8G10G 6G 5G24G 4G 9G17G30
  21973568.211   -14978977.31249 -11230274.87146  21973567.466    21973578.185
       231.000         187.000
  23890012.258    -9107673.67249  -7078360.38745  23890011.829    23890026.131
       214.000         157.000
  20259293.729   -12670355.39249  -9842831.52948  20259293.483    20259301.782
       247.000         219.000
  20840017.660    -4173792.50549  -3219631.76848  20840017.526    20840026.410
       244.000         213.000
  23313123.693    14962164.59649  11941759.45246  23313123.780    23313132.849
       222.000         169.000
  24023442.457    13725731.35849  10708662.35545  24023443.816    24023461.505
       213.000         159.000
  20736710.867   -16882156.51749 -13130334.39048  20736710.424    20736719.405
       243.000         215.000
  21577203.813   -11798407.86349  -9176093.75147  21577204.092    21577213.299
       236.000         193.000
 04  1 22 21 54 30.0000000  0  8G10G 6G 5G24G 4G 9G17G30
  21958423.207   -15058563.97249 -11292290.27246  21958421.981    21958433.442
       231.000         187.000
  23876837.967    -9176905.13049  -7132306.74045  23876837.869    23876850.916
       217.000         158.000
  20258695.197   -12673500.71449  -9845282.41348  20258694.977    20258703.334
       247.000         219.000
  20849311.898    -4124950.63149  -3181573.15648  20849311.722    20849320.741
       244.000         213.000
  23331609.810    15059309.61249  12017456.85146  23331610.182    23331618.243
       222.000         168.000
  24041526.117    13820759.85149  10782710.20745  24041527.087    24041544.672
       214.000         159.000
  20731679.642   -16908595.53249 -13150936.16048  20731679.007    20731688.182
       243.000         215.000
  21562684.419   -11874707.51349  -9235547.92447  21562684.874    21562693.698
       236.000         194.000
 04  1 22 21 55  0.0000000  0  8G10G 6G 5G24G 4G 9G17G30
  21943349.246   -15137777.21549 -11354014.71247  21943347.996    21943359.692
       232.000         189.000
  23863666.417    -9246122.06849  -7186241.75445  23863665.768    23863679.833
       216.000         160.000
  20258197.695   -12676115.15349  -9847319.61848  20258197.502    20258205.620
       247.000         219.000
  20858671.518    -4075765.29249  -3143246.90348  20858671.542    20858680.251
       244.000         213.000
  23350112.265    15156540.60149  12093221.26146  23350112.743    23350121.238
       223.000         167.000
  24059611.747    13915799.14349  10856766.48145  24059612.817    24059630.412
       215.000         160.000
  20726727.386   -16934619.34349 -13171214.39248  20726726.886    20726736.120
       243.000         215.000
  21548229.767   -11950666.63249  -9294736.74147  21548229.991    21548238.344
       236.000         194.000
 04  1 22 21 55 30.0000000  0  8G10G 6G 5G24G 4G 9G17G30
  21928347.121   -15216613.52949 -11415445.42047  21928346.082    21928357.083
       231.000         189.000
  23850497.520    -9315324.39749  -7240165.36145  23850497.084    23850510.881
       214.000         160.000
  20257801.444   -12678197.46149  -9848942.17748  20257801.146    20257809.445
       247.000         219.000
  20868096.155    -4026238.44349  -3104654.53648  20868096.058    20868105.093
       244.000         213.000
  23368630.794    15253855.63149  12169051.17346  23368631.103    23368639.480
       224.000         168.000
  24077698.934    14010846.53249  10930829.08245  24077699.835    24077717.741
       216.000         160.000
  20721854.226   -16960227.86549 -13191169.02148  20721853.999    20721862.861
       243.000         216.000
  21533840.526   -12026282.61549  -9353658.17447  21533840.912    21533849.596
       237.000         194.000
 04  1 22 21 56  0.0000000  0  8G10G 6G 5G24G 4G 9G17G30
  21913417.097   -15295070.19949 -11476580.33547  21913415.818    21913427.639
       231.000         189.000
  23837331.270    -9384512.41149  -7294077.81145  23837330.859    23837344.163
       212.000         157.000
  20257506.461   -12679747.56249  -9850150.03748  20257506.000    20257514.403
       247.000         219.000
  20877585.295    -3976372.59749  -3065798.01848  20877585.358    20877593.997
       244.000         213.000
  23387164.722    15351252.17749  12244944.58446  23387164.633    23387172.708
       221.000         167.000
  24095787.299    14105899.09949  11004895.68645  24095789.282    24095806.188
       218.000         161.000
  20717059.969   -16985421.81349 -13210800.60748  20717059.538    20717068.379
       243.000         216.000
  21519517.031   -12101553.07849  -9412310.38747  21519517.308    21519525.684
       237.000         195.000
 04  1 22 21 56 30.0000000  0  8G10G 6G 5G24G 4G 9G17G30
  21898560.180   -15373142.68749 -11537415.86947  21898559.243    21898570.712
       231.000         189.000
  23824167.734    -9453684.67949  -7347978.02745  23824166.972    23824180.518
       212.000         156.000
  20257313.080   -12680763.45449  -9850941.62948  20257312.844    20257320.818
       247.000         219.000
  20887138.824    -3926168.60049  -3026678.01148  20887138.785    20887147.528
       243.000         213.000
  23405713.842    15448729.30349  12320900.78846  23405713.841    23405722.164
       221.000         165.000
  24113876.348    14200955.05349  11078964.91845  24113877.590    24113893.817
       217.000         161.000
  20712344.821   -17010199.93149 -13230108.17048  20712344.282    20712353.258
       243.000         216.000
  21505259.741   -12176474.41449  -9470690.55347  21505260.048    21505268.802
       236.000         195.000
 04  1 22 21 57  0.0000000  0  8G10G 6G 5G24G 4G 9G17G30
  21883776.787   -15450829.04249 -11597950.51947  21883775.937    21883787.322
       232.000         189.000
  23811007.167    -9522842.22749  -7401866.77645  23811006.893    23811020.764
       215.000         156.000
  20257221.341   -12681245.62149  -9851317.32548  20257221.138    20257229.206
       248.000         220.000
  20896756.067    -3875629.84049  -2987297.15147  20896756.127    20896764.673
       245.000         212.000
  23424277.808    15546284.11649  12396917.53246  23424278.040    23424285.712
       220.000         164.000
  24131965.118    14296010.58449  11153033.83945  24131965.268    24131982.022
       216.000         160.000
  20707708.457   -17034563.73149 -13249092.88548  20707707.692    20707717.265
       244.000         216.000
  21491069.305   -12251044.99749  -9528797.39447  21491069.132    21491077.832
       236.000         194.000
 04  1 22 21 57 30.0000000  0  8G10G 6G 5G24G 4G 9G17G30
  21869067.568   -15528126.11049 -11658181.85447  21869066.770    21869077.407
       232.000         190.000
  23797849.774    -9591984.69949  -7455743.76745  23797848.492    23797862.288
       215.000         158.000
  20257231.379   -12681193.01449  -9851276.31948  20257231.031    20257239.113
       248.000         220.000
  20906436.616    -3824758.31449  -2947656.99347  20906436.485    20906445.132
       243.000         212.000
  23442856.213    15643914.58849  12472993.23346  23442856.478    23442864.881
       221.000         165.000
  24150053.215    14391063.06849  11227100.38245  24150053.786    24150071.261
       214.000         158.000
  20703150.941   -17058513.17749 -13267754.73248  20703150.577    20703159.539
       243.000         216.000
  21476946.182   -12325262.16249  -9586628.84847  21476946.419    21476954.981
       237.000         194.000
 04  1 22 21 58  0.0000000  0  8G10G 6G 5G24G 4G 9G17G30
  21854432.946   -15605031.03649 -11718107.61447  21854432.431    21854443.194
       233.000         191.000
  23784694.923    -9661112.35949  -7509609.24245  23784692.940    23784706.992
       210.000         158.000
  20257343.177   -12680605.41249  -9850818.43048  20257342.853    20257350.901
       248.000         220.000
  20916179.986    -3773556.43849  -2907759.41447  20916179.800    20916188.538
       244.000         212.000
  23461448.777    15741618.25049  12549125.96246  23461448.617    23461457.222
       221.000         165.000
  24168139.980    14486109.25449  11301162.03145  24168140.594    24168158.437
       215.000         158.000
  20698672.243   -17082048.95349 -13286094.22948  20698671.648    20698680.742
       243.000         216.000
  21462890.701   -12399123.71849  -9644183.22147  21462890.770    21462899.464
       237.000         194.000
 04  1 22 21 58 30.0000000  0  8G10G 6G 5G24G 4G 9G17G30
  21839873.727   -15681539.86049 -11777724.71447  21839872.951    21839883.585
       233.000         191.000
  23771542.942    -9730224.34849  -7563462.49745  23771541.884    23771555.545
       211.000         155.000
  20257557.069   -12679481.30249  -9849942.48048  20257556.695    20257564.899
       247.000         219.000
  20925985.943    -3722025.67249  -2867605.55447  20925985.951    20925994.349
       244.000         211.000
  23480054.912    15839393.86849  12625314.72746  23480055.626    23480063.320
       220.000         164.000
  24186225.375    14581147.37949  11375217.39145  24186226.864    24186244.252
       216.000         158.000
  20694272.359   -17105170.41149 -13304110.88848  20694271.924    20694280.710
       243.000         216.000
  21448903.559   -12472626.27549  -9701457.85747  21448904.043    21448912.063
       238.000         195.000
 04  1 22 21 59  0.0000000  0  8G10G 6G 5G24G 4G 9G17G30
  21825390.287   -15757650.40549 -11837031.47647  21825389.287    21825400.707
       233.000         192.000
  23758393.920    -9799321.53049  -7617304.18245  23758392.927    23758407.060
       210.000         155.000
  20257872.889   -12677821.40149  -9848649.02848  20257872.347    20257880.828
       247.000         219.000
  20935853.879    -3670169.21749  -2827197.90547  20935853.650    20935862.414
       244.000         211.000
  23498674.145    15937238.34149  12701557.14846  23498674.896    23498682.938
       220.000         164.000
  24204308.646    14676173.46649  11449263.37945  24204310.165    24204328.302
       216.000         159.000
  20689951.050   -17127878.86349 -13321805.72248  20689950.415    20689959.130
       243.000         216.000
  21434985.105   -12545768.44949  -9758451.68547  21434985.758    21434993.543
       238.000         196.000
 04  1 22 21 59 30.0000000  0  8G10G 6G 5G24G 4G 9G17G30
  21810983.278   -15833359.20249 -11896025.20347  21810982.431    21810993.436
       233.000         192.000
  23745247.653    -9868403.67849  -7671134.16745  23745247.207    23745259.849
       211.000         155.000
  20258290.866   -12675624.57749  -9846937.19348  20258290.407    20258298.714
       249.000         219.000
  20945783.429    -3617988.81349  -2786537.83047  20945783.346    20945792.142
       244.000         211.000
  23517306.173    16035150.06449  12777851.96946  23517307.357    23517315.174
       222.000         164.000
  24222389.037    14771184.92649  11523297.94445  24222389.389    24222407.660
       213.000         158.000
  20685708.336   -17150174.27849 -13339178.70448  20685707.812    20685716.625
       243.000         216.000
  21421135.756   -12618547.20849  -9815162.32447  21421135.616    21421144.378
       237.000         196.000
 04  1 22 22  0  0.0000000  0  8G10G 6G 5G24G 4G 9G17G30
  21796653.220   -15908663.64949 -11954703.84547  21796652.711    21796663.017
       234.000         192.000
  23732104.344    -9937471.00049  -7724952.57445  23732103.916    23732116.810
       212.000         155.000
  20258811.083   -12672890.79449  -9844806.95048  20258810.697    20258818.873
       249.000         219.000
  20955774.232    -3565486.94749  -2745627.25947  20955774.109    20955782.690
       244.000         212.000
  23535950.497    16133126.46549  12854197.21646  23535950.790    23535959.410
       221.000         165.000
  24240465.931    14866178.50349  11597318.55845  24240466.454    24240483.903
       214.000         157.000
  20681544.020   -17172057.57849 -13356230.55448  20681543.365    20681552.285
       243.000         216.000
  21407355.757   -12690960.68649  -9871588.32247  21407356.076    21407364.550
       237.000         197.000
 04  1 22 22  0 30.0000000  0  8G10G 6G 5G24G 4G 9G17G30
  21782400.838   -15983559.87649 -12013064.37647  21782400.008    21782410.770
       235.000         193.000
  23718963.995   -10006522.66549  -7778758.79145  23718962.514    23718976.478
       211.000         156.000
  20259433.656   -12669619.07749  -9842257.54348  20259433.276    20259441.408
       249.000         219.000
  20965825.856    -3512665.12649  -2704467.37647  20965825.791    20965834.653
       243.000         212.000
  23554606.847    16231166.21449  12930591.83646  23554606.695    23554615.780
       220.000         166.000
  24258539.014    14961152.22549  11671323.71645  24258539.323    24258557.680
       214.000         156.000
  20677458.205   -17193528.23349 -13372960.87048  20677457.674    20677466.452
       243.000         216.000
  21393645.930   -12763005.62349  -9927727.14347  21393645.937    21393654.293
       237.000         197.000
 04  1 22 22  1  0.0000000  0  8G10G 6G 5G24G 4G 9G17G30
  21768226.712   -16058044.76549 -12071104.39347  21768225.311    21768236.446
       234.000         192.000
  23705826.697   -10075558.47249  -7832552.65545  23705826.238    23705839.362
       212.000         157.000
  20260158.848   -12665808.35049  -9839288.12048  20260158.714    20260166.599
       249.000         220.000
  20975937.880    -3459525.60549  -2663059.92647  20975937.581    20975946.657
       244.000         212.000
  23573274.804    16329267.52849  13007034.41746  23573274.682    23573284.386
       220.000         166.000
  24276607.709    15056103.27449  11745311.19645  24276608.294    24276626.514
       214.000         156.000
  20673450.853   -17214586.69149 -13389369.98048  20673450.438    20673459.143
       243.000         216.000
  21380006.816   -12834679.42449  -9983576.76147  21380006.969    21380015.702
       237.000         197.000
 04  1 22 22  1 30.0000000  0  8G10G 6G 5G24G 4G 9G17G30
  21754131.306   -16132115.61549 -12128821.78547  21754130.209    21754141.448
       235.000         193.000
  23692692.636   -10144578.61749  -7886334.29745  23692691.491    23692705.523
       212.000         156.000
  20260986.637   -12661458.38349  -9835898.52048  20260986.171    20260994.308
       249.000         220.000
  20986109.965    -3406070.79949  -2621406.80947  20986109.868    20986118.731
       244.000         212.000
  23591953.980    16427427.80349  13083522.90446  23591954.300    23591962.583
       219.000         165.000
  24294671.720    15151028.86649  11819278.83645  24294673.308    24294690.820
       214.000         155.000
  20669521.867   -17235233.53949 -13405458.36348  20669521.358    20669530.098
       243.000         216.000
  21366438.677   -12905979.91749 -10039135.48847  21366439.082    21366447.376
       236.000         197.000
 04  1 22 22  2  0.0000000  0  8G10G 6G 5G24G 4G 9G17G30
  21740115.273   -16205769.83349 -12186214.53447  21740114.432    21740125.337
       234.000         193.000
  23679561.144   -10213583.31649  -7940103.91545  23679560.671    23679573.917
       212.000         156.000
  20261916.968   -12656569.26949  -9832088.80448  20261916.697    20261924.750
       249.000         220.000
  20996341.620    -3352303.12049  -2579509.88947  20996341.335    20996350.404
       244.000         211.000
  23610644.095    16525645.01249  13160055.77646  23610644.831    23610653.613
       221.000         164.000
  24312730.381    15245925.52349  11893223.92245  24312731.366    24312749.527
       215.000         156.000
  20665671.064   -17255469.32149 -13421226.43648  20665670.584    20665679.324
       244.000         216.000
  21352942.018   -12976904.79749 -10094401.53447  21352942.156    21352950.593
       237.000         197.000
 04  1 22 22  2 30.0000000  0  8G10G 6G 5G24G 4G 9G17G30
  21726179.192   -16279003.99349 -12243279.94547  21726178.640    21726189.222
       236.000         194.000
  23666432.654   -10282572.10549  -7993861.13845  23666432.220    23666444.974
       212.000         156.000
  20262950.069   -12651140.18149  -9827858.33048  20262949.512    20262957.871
       248.000         220.000
  21006632.428    -3298224.50749  -2537370.68547  21006632.431    21006641.149
       244.000         211.000
  23629344.809    16623917.37549  13236631.65146  23629345.375    23629354.414
       222.000         165.000
  24330783.027    15340790.78049  11967144.56945  24330783.999    24330801.789
       215.000         155.000
  20661898.496   -17275294.12349 -13436674.26648  20661897.936    20661906.520
       243.000         216.000
  21339517.357   -13047451.23749 -10149372.68247  21339517.479    21339525.811
       236.000         197.000
 04  1 22 22  3  0.0000000  0  8G10G 6G 5G24G 4G 9G17G30
  21712323.589   -16351815.62549 -12300016.14647  21712322.502    21712333.270
       235.000         194.000
  23653307.338   -10351545.15549  -8047606.05445  23653305.867    23653320.121
       213.000         157.000
  20264085.934   -12645171.05449  -9823207.04548  20264085.635    20264093.692
       249.000         220.000
  21016981.885    -3243837.90349  -2494991.48747  21016981.896    21016990.494
       244.000         211.000
  23648055.530    16722242.31949  13313248.49946  23648055.572    23648064.476
       221.000         165.000
  24348828.863    15435621.55149  12041038.34345  24348829.976    24348846.737
       212.000         155.000
  20658203.920   -17294708.94649 -13451802.63148  20658203.293    20658212.073
       243.000         216.000
  21326165.151   -13117617.38149 -10204047.49547  21326165.713    21326173.858
       238.000         198.000
 04  1 22 22  3 30.0000000  0  8G10G 6G 5G24G 4G 9G17G30
  21698548.902   -16424201.03849 -12356420.19647  21698547.788    21698558.707
       235.000         193.000
  23640185.044   -10420501.77849  -8101338.20745  23640184.491    23640196.533
       214.000         158.000
  20265324.673   -12638661.44549  -9818134.60648  20265324.378    20265332.505
       249.000         220.000
  21027389.651    -3189144.83549  -2452373.48747  21027389.341    21027398.361
       243.000         211.000
  23666775.972    16820618.66349  13389905.37046  23666776.352    23666786.836
       219.000         165.000
  24366867.732    15530415.72349  12114903.57845  24366868.338    24366886.436
       212.000         154.000
  20654587.288   -17313713.96049 -13466611.66248  20654586.807    20654595.585
       243.000         216.000
  21312885.911   -13187400.22249 -10258423.63547  21312886.526    21312894.294
       238.000         199.000
 04  1 22 22  4  0.0000000  0  8G10G 6G 5G24G 4G 9G17G30
  21684855.880   -16496157.59649 -12412490.07747  21684854.917    21684865.624
       235.000         193.000
  23627065.837   -10489442.46649  -8155057.93845  23627065.273    23627078.575
       215.000         160.000
  20266666.303   -12631611.08949  -9812640.81248  20266665.919    20266674.191
       249.000         220.000
  21037855.263    -3134147.61149  -2409518.48047  21037855.096    21037863.748
       244.000         211.000
  23685505.495    16919043.75449  13466600.23846  23685505.316    23685514.564
       218.000         164.000
  24384899.161    15625170.19749  12188737.86245  24384900.854    24384918.764
       213.000         155.000
  20651048.607   -17332309.55049 -13481101.66648  20651047.997    20651056.674
       242.000         216.000
  21299680.048   -13256797.61449 -10312499.43047  21299680.428    21299688.566
       239.000         199.000
 04  1 22 22  4 30.0000000  0  8G10G 6G 5G24G 4G 9G17G30
  21671245.236   -16567681.79649 -12468223.06547  21671244.400    21671255.187
       235.000         194.000
  23613950.046   -10558366.39849  -8208764.62946  23613950.073    23613962.573
       218.000         163.000
  20268110.998   -12624018.94049  -9806724.83948  20268110.589    20268118.763
       248.000         220.000
  21048378.439    -3078847.81449  -2366427.70847  21048378.261    21048387.028
       243.000         211.000
  23704244.083    17017516.32349  13543332.10846  23704244.593    23704252.984
       219.000         163.000
  24402922.791    15719882.76649  12262539.50945  24402924.107    24402941.975
       214.000         155.000
  20647587.788   -17350495.78049 -13495272.68848  20647587.043    20647595.859
       242.000         216.000
  21286548.037   -13325806.53949 -10366272.53247  21286548.079    21286556.559
       238.000         200.000
 04  1 22 22  5  0.0000000  0  8G10G 6G 5G24G 4G 9G17G30
  21657716.944   -16638772.81749 -12523618.50447  21657715.995    21657726.300
       236.000         194.000
  23600837.119   -10627275.40049  -8262459.70246  23600836.581    23600849.229
       218.000         165.000
  20269658.444   -12615886.76249  -9800388.06248  20269658.058    20269666.403
       248.000         219.000
  21058958.346    -3023249.80749  -2323104.56947  21058958.386    21058966.711
       243.000         210.000
  23722991.126    17116032.59049  13620097.99945  23722992.234    23722999.936
       220.000         161.000
  24420937.452    15814548.68049  12336304.79345  24420938.786    24420956.485
       214.000         156.000
  20644204.447   -17368274.96149 -13509126.53148  20644204.005    20644212.629
       243.000         216.000
  21273489.965   -13394426.44549 -10419742.50047  21273489.959    21273498.252
       238.000         199.000
 04  1 22 22  5 30.0000000  0  8G10G 6G 5G24G 4G 9G17G30
  21644272.094   -16709425.27049 -12578672.21247  21644271.173    21644281.053
       236.000         194.000
  23587727.325   -10696166.96349  -8316141.16746  23587726.687    23587739.666
       217.000         165.000
  20271309.226   -12607211.68949  -9793628.24848  20271308.775    20271317.013
       249.000         219.000
  21069595.062    -2967353.51549  -2279548.99547  21069594.963    21069603.379
       243.000         209.000
  23741746.660    17214592.80349  13696898.17645  23741747.011    23741754.866
       217.000         160.000
  24438942.984    15909167.51149  12410033.40445  24438943.481    24438962.389
       213.000         155.000
  20640899.011   -17385645.25949 -13522661.76348  20640898.523    20640907.239
       243.000         216.000
  21260506.916   -13462652.57649 -10472905.63347  21260506.937    21260515.426
       238.000         200.000
 04  1 22 22  6  0.0000000  0  8G10G 6G 5G24G 4G 9G17G30
  21630911.231   -16779636.42249 -12633382.05547  21630910.232    21630920.740
       236.000         194.000
  23574620.925   -10765040.93449  -8369808.94346  23574620.120    23574633.062
       217.000         164.000
  20273063.340   -12597993.62549  -9786445.32648  20273062.981    20273071.381
       249.000         220.000
  21080288.117    -2911160.95449  -2235762.56747  21080287.810    21080296.616
       242.000         209.000
  23760510.067    17313195.18249  13773731.20545  23760510.631    23760520.226
       215.000         159.000
  24456939.020    16003736.64949  12483723.27145  24456939.363    24456959.358
       210.000         155.000
  20637671.166   -17402607.32649 -13535878.89648  20637670.958    20637679.441
       243.000         216.000
  21247599.217   -13530482.44449 -10525760.00247  21247599.523    21247607.508
       238.000         200.000
 04  1 22 22  6 30.0000000  0  8G10G 6G 5G24G 4G 9G17G30
  21617634.897   -16849403.31849 -12687745.71547  21617633.893    21617644.295
       235.000         195.000
  23561517.809   -10833897.34549  -8423463.04746  23561517.541    23561529.647
       216.000         163.000
  20274920.827   -12588232.42749  -9778839.18248  20274920.525    20274928.734
       249.000         220.000
  21091037.118    -2854674.40649  -2191747.06047  21091037.229    21091045.551
       243.000         209.000
  23779280.989    17411837.37049  13850595.22845  23779281.926    23779290.312
       215.000         158.000
  24474925.016    16098253.16849  12557372.12145  24474925.682    24474945.982
       211.000         155.000
  20634521.000   -17419161.67049 -13548778.32148  20634520.409    20634529.143
       243.000         216.000
  21234767.405   -13597913.87949 -10578303.90547  21234767.776    21234775.936
       239.000         200.000
 04  1 22 22  7  0.0000000  0  8G10G 6G 5G24G 4G 9G17G30
  21604443.533   -16918723.80849 -12741761.57647  21604442.576    21604452.719
       235.000         195.000
  23548418.040   -10902736.54149  -8477103.74345  23548417.450    23548429.788
       214.000         162.000
  20276881.630   -12577928.60449  -9770810.21648  20276881.467    20276889.454
       249.000         220.000
  21101841.566    -2797896.97249  -2147504.89347  21101841.599    21101849.915
       243.000         209.000
  23798059.181    17510516.87749  13927488.33545  23798058.677    23798067.831
       215.000         156.000
  24492900.598    16192713.60449  12630977.28845  24492902.377    24492921.835
       213.000         156.000
  20631448.083   -17435309.63349 -13561361.08348  20631447.656    20631456.283
       243.000         216.000
  21222011.759   -13664945.14649 -10630535.99047  21222011.997    21222020.081
       238.000         200.000
 04  1 22 22  7 30.0000000  0  8G10G 6G 5G24G 4G 9G17G30
  21591337.662   -16987595.10949 -12795427.40547  21591336.938    21591347.512
       236.000         196.000
  23535321.236   -10971558.59749  -8530731.08545  23535320.357    23535333.283
       216.000         161.000
  20278945.722   -12567081.86649  -9762358.19548  20278945.298    20278953.622
       248.000         220.000
  21112700.901    -2740830.91849  -2103037.82347  21112700.951    21112709.361
       243.000         209.000
  23816844.056    17609231.68749  14004408.96245  23816844.062    23816852.693
       212.000         155.000
  24510864.879    16287114.86449  12704536.35045  24510866.031    24510886.178
       212.000         155.000
  20628452.443   -17451051.76549 -13573627.61248  20628452.070    20628460.430
       244.000         217.000
  21209332.604   -13731573.97549 -10682454.47447  21209332.635    21209341.184
       237.000         199.000
 04  1 22 22  8  0.0000000  0  8G10G 6G 5G24G 4G 9G17G30
  21578318.008   -17056013.79049 -12848740.55147  21578316.862    21578327.719
       235.000         197.000
  23522228.012   -11040362.92549  -8584344.60946  23522227.761    23522239.911
       217.000         163.000
  20281113.119   -12555691.98749  -9753482.94648  20281112.648    20281120.773
       249.000         219.000
  21123614.809    -2683478.06049  -2058347.27047  21123614.686    21123623.046
       242.000         209.000
  23835635.157    17707980.41249  14081356.00745  23835634.364    23835644.620
       212.000         155.000
  24528817.449    16381454.83849  12778047.65045  24528819.072    24528838.341
       212.000         155.000
  20625533.966   -17466388.55549 -13585578.28548  20625533.320    20625541.877
       243.000         217.000
  21196730.667   -13797797.44549 -10734057.09747  21196731.128    21196739.246
       240.000         200.000
 04  1 22 22  8 30.0000000  0  8G10G 6G 5G24G 4G 9G17G30
  21565384.816   -17123977.72449 -12901699.36247  21565384.295    21565394.198
       237.000         197.000
  23509138.131   -11109150.27849  -8637944.92346  23509137.443    23509149.908
       217.000         163.000
  20283383.819   -12543759.29049  -9744184.72248  20283383.486    20283391.564
       249.000         219.000
  21134582.687    -2625841.39249  -2013435.56547  21134582.533    21134590.695
       243.000         208.000
  23854432.107    17806760.33649  14158327.37045  23854432.460    23854441.717
       214.000         154.000
  24546757.816    16475730.14349  12851508.54045  24546758.653    24546778.913
       213.000         155.000
  20622692.370   -17481320.88949 -13597213.80748  20622692.067    20622700.239
       243.000         217.000
  21184206.261   -13863613.91949 -10785342.58347  21184206.549    21184214.420
       239.000         200.000
 04  1 22 22  9  0.0000000  0  8G10G 6G 5G24G 4G 9G17G30
  21552538.807   -17191484.10949 -12954301.63947  21552538.248    21552548.428
       237.000         197.000
  23496051.439   -11177920.09249  -8691531.56945  23496049.823    23496062.580
       217.000         162.000
  20285757.933   -12531283.40249  -9734463.24148  20285757.752    20285765.490
       249.000         219.000
  21145604.225    -2567922.81349  -1968304.18447  21145604.103    21145612.654
       242.000         208.000
  23873235.024    17905569.66149  14235321.65645  23873236.013    23873243.407
       215.000         154.000
  24564685.398    16569938.23449  12924917.07245  24564687.021    24564706.011
       212.000         155.000
  20619927.720   -17495849.24549 -13608534.53748  20619927.141    20619935.522
       243.000         216.000
  21171759.632   -13929020.91149 -10836308.98847  21171759.826    21171768.076
       239.000         200.000
 04  1 22 22  9 30.0000000  0  8G10G 6G 5G24G 4G 9G17G30
  21539780.552   -17258529.40549 -13006544.61747  21539779.741    21539789.846
       237.000         198.000
  23482968.234   -11246671.44149  -8745103.80045  23482967.540    23482980.810
       217.000         161.000
  20288235.558   -12518263.45949  -9724317.81448  20288235.087    20288243.097
       249.000         219.000
  21156679.103    -2509723.90849  -1922954.36547  21156679.006    21156687.414
       243.000         209.000
  23892043.349    18004407.34549  14312338.00945  23892044.062    23892051.948
       214.000         152.000
  24582599.902    16664077.44349  12998271.90545  24582601.629    24582620.494
       211.000         154.000
  20617239.895   -17509973.55949 -13619540.42948  20617239.352    20617247.842
       243.000         216.000
  21159391.620   -13994015.03049 -10886953.66847  21159391.888    21159400.131
       240.000         201.000
 04  1 22 22 10  0.0000000  0  8G10G 6G 5G24G 4G 9G17G30
  21527110.281   -17325111.92049 -13058426.98347  21527109.522    21527119.325
       236.000         198.000
  23469888.471   -11315405.25249  -8798662.37946  23469888.344    23469899.741
       219.000         163.000
  20290816.471   -12504700.80149  -9713749.50048  20290816.300    20290824.003
       249.000         219.000
  21167806.763    -2451247.80149  -1877388.54447  21167806.882    21167814.740
       243.000         208.000
  23910856.532    18103270.28749  14389374.07945  23910856.459    23910865.263
       215.000         152.000
  24600500.275    16758143.60249  13071569.81045  24600501.307    24600520.687
       211.000         152.000
  20614628.576   -17523695.84449 -13630233.05548  20614627.920    20614636.330
       243.000         216.000
  21147102.338   -14058595.42149 -10937275.96247  21147102.496    21147110.622
       239.000         201.000
 04  1 22 22 10 30.0000000  0  8G10G 6G 5G24G 4G 9G17G30
  21514528.687   -17391228.20449 -13109946.02547  21514527.293    21514537.932
       235.000         197.000
  23456812.395   -11384120.87149  -8852206.78746  23456811.967    23456822.891
       219.000         164.000
  20293500.828   -12490594.65549  -9702757.68548  20293500.402    20293508.454
       249.000         219.000
  21178986.843    -2392496.39649  -1831608.20147  21178987.012    21178995.045
       244.000         208.000
  23929674.073    18202157.50249  14466429.05745  23929674.011    23929683.110
       215.000         152.000
  24618386.591    16852134.64649  13144809.20545  24618387.495    24618407.392
       210.000         151.000
  20612093.788   -17537015.75649 -13640612.13948  20612093.175    20612101.456
       243.000         216.000
  21134892.345   -14122758.90049 -10987273.38147  21134892.518    21134900.556
       240.000         201.000
 04  1 22 22 11  0.0000000  0  8G10G 6G 5G24G 4G 9G17G30
  21502036.141   -17456876.01449 -13161100.08447  21502034.881    21502045.372
       236.000         198.000
  23443739.742   -11452818.20649  -8905736.94746  23443738.737    23443750.552
       218.000         164.000
  20296288.551   -12475945.07349  -9691342.41248  20296288.142    20296296.057
       249.000         219.000
  21190218.858    -2333472.06649  -1785615.18947  21190218.887    21190227.056
       243.000         209.000
  23948496.054    18301066.72249  14543501.17445  23948496.991    23948505.576
       213.000         152.000
  24636258.068    16946047.76249  13217987.85945  24636259.173    24636278.342
       210.000         151.000
  20609635.419   -17549934.43949 -13650678.58348  20609634.877    20609643.010
       243.000         216.000
  21122762.174   -14186503.43349 -11036944.35947  21122762.526    21122770.368
       240.000         202.000
 04  1 22 22 11 30.0000000  0  8G10G 6G 5G24G 4G 9G17G30
  21489633.460   -17522051.66649 -13211886.18347  21489632.617    21489642.852
       236.000         197.000
  23430670.660   -11521496.18149  -8959252.01946  23430670.125    23430681.950
       219.000         164.000
  20299179.812   -12460751.12649  -9679502.96048  20299179.550    20299187.388
       249.000         219.000
  21201502.445    -2274176.27349  -1739410.65347  21201502.235    21201510.604
       242.000         208.000
  23967321.964    18399996.83049  14620589.56045  23967322.278    23967330.631
       215.000         153.000
  24654114.234    17039881.17449  13291104.40545  24654114.572    24654133.721
       209.000         150.000
  20607253.490   -17562451.34849 -13660431.95548  20607252.876    20607261.204
       242.000         215.000
  21110712.200   -14249825.81149 -11086286.37847  21110712.248    21110720.112
       239.000         202.000
 04  1 22 22 12  0.0000000  0  8G10G 6G 5G24G 4G 9G17G30
  21477321.280   -17586752.24749 -13262302.09147  21477320.051    21477330.673
       235.000         197.000
  23417605.232   -11590154.53649  -9012751.80246  23417605.019    23417615.664
       218.000         164.000
  20302174.800   -12445012.70449  -9667239.24348  20302174.477    20302182.389
       249.000         219.000
  21212837.260    -2214610.90349  -1692996.04447  21212837.058    21212845.552
       242.000         208.000
  23986151.496    18498946.26549  14697693.00645  23986151.913    23986160.020
       215.000         154.000
  24671954.647    17133632.20849  13364156.73845  24671954.351    24671973.958
       210.000         148.000
  20604947.843   -17574567.34349 -13669872.92848  20604947.322    20604955.728
       242.000         215.000
  21098743.092   -14312723.50549 -11135297.48447  21098743.484    21098751.045
       241.000         202.000
 04  1 22 22 12 30.0000000  0  8G10G 6G 5G24G 4G 9G17G30
  21465099.865   -17650975.50749 -13312346.06447  21465098.591    21465108.748
       235.000         198.000
  23404543.454   -11658793.93849  -9066236.81746  23404542.792    23404554.247
       217.000         163.000
  20305273.169   -12428730.79249  -9654552.02748  20305272.712    20305280.781
       249.000         219.000
  21224222.866    -2154779.06149  -1646373.80247  21224222.606    21224231.209
       242.000         208.000
  24004984.207    18597912.43249  14774809.48245  24004984.875    24004991.921
       214.000         153.000
  24689778.848    17227297.68149  13437142.41745  24689779.232    24689799.305
       208.000         148.000
  20602718.261   -17586283.62549 -13679002.43748  20602717.525    20602725.950
       242.000         215.000
  21086855.142   -14375194.99249 -11183976.49147  21086855.214    21086863.372
       240.000         203.000
 04  1 22 22 13  0.0000000  0  8G10G 6G 5G24G 4G 9G17G30
  21452969.756   -17714718.60249 -13362015.87047  21452968.809    21452979.014
       235.000         197.000
  23391485.169   -11727413.75049  -9119706.56646  23391483.773    23391497.017
       216.000         163.000
  20308474.962   -12411905.08649  -9641441.07848  20308474.586    20308482.395
       249.000         219.000
  21235658.833    -2094682.56049  -1599545.34047  21235658.639    21235666.910
       242.000         208.000
  24023819.839    18696893.69149  14851937.73245  24023820.505    24023827.716
       214.000         153.000
  24707586.273    17320875.04949  13510059.43045  24707587.683    24707606.644
       213.000         148.000
  20600564.634   -17597600.82249 -13687820.97248  20600564.146    20600572.381
       244.000         215.000
  21075048.728   -14437237.70549 -11232321.37747  21075048.907    21075056.704
       241.000         203.000
 04  1 22 22 13 30.0000000  0  8G10G 6G 5G24G 4G 9G17G30
  21440931.737   -17777978.61049 -13411309.24147  21440931.362    21440940.601
       237.000         198.000
  23378430.772   -11796013.19649  -9173160.45446  23378429.760    23378442.477
       217.000         163.000
  20311780.424   -12394534.87549  -9627905.84348  20311780.007    20311787.922
       248.000         219.000
  21247144.770    -2034323.04649  -1552511.93147  21247144.618    21247152.828
       242.000         207.000
  24042657.983    18795888.95749  14929076.87545  24042657.425    24042665.397
       213.000         153.000
  24725376.976    17414362.07449  13582906.05145  24725379.346    24725398.041
       213.000         149.000
  20598486.953   -17608519.02349 -13696328.60148  20598486.435    20598494.796
       244.000         216.000
  21063324.505   -14498848.72749 -11280329.89747  21063324.894    21063332.267
       242.000         203.000
 04  1 22 22 14  0.0000000  0  8G10G 6G 5G24G 4G 9G17G30
  21428986.090   -17840753.32649 -13460224.45647  21428985.202    21428995.113
       237.000         198.000
  23365380.253   -11864592.73449  -9226598.82046  23365379.644    23365391.369
       216.000         164.000
  20315189.272   -12376621.07149  -9613947.02748  20315188.737    20315196.794
       247.000         219.000
  21258680.332    -1973703.36649  -1505275.79547  21258680.332    21258688.816
       242.000         207.000
  24061498.257    18894895.65049  15006224.93245  24061498.481    24061506.536
       214.000         154.000
  24743149.593    17507755.63649  13655679.85145  24743151.762    24743170.277
       210.000         147.000
  20596484.901   -17619039.43249 -13704526.26148  20596484.241    20596492.650
       243.000         216.000
  21051682.710   -14560026.38649 -11328000.71847  21051682.663    21051690.777
       240.000         203.000
 04  1 22 22 14 30.0000000  0  8G10G 6G 5G24G 4G 9G17G30
  21417133.537   -17903038.39949 -13508758.14947  21417132.398    21417142.510
       236.000         199.000
  23352333.895   -11933150.55049  -9280020.27746  23352333.456    23352345.459
       219.000         165.000
  20318701.837   -12358162.13049  -9599563.42648  20318701.646    20318709.443
       247.000         219.000
  21270265.235    -1912824.32149  -1457837.56847  21270265.092    21270273.619
       241.000         207.000
  24080340.761    18993913.60249  15083381.75245  24080340.497    24080348.463
       213.000         153.000
  24760904.084    17601054.81549  13728380.08245  24760904.602    24760925.094
       206.000         145.000
  20594558.699   -17629161.29049 -13712413.36448  20594558.224    20594566.522
       244.000         216.000
  21040124.087   -14620766.81249 -11375330.83947  21040124.435    21040131.883
       241.000         203.000
 04  1 22 22 15  0.0000000  0  8G10G 6G 5G24G 4G 9G17G30
  21405374.712   -17964830.74349 -13556907.89347  21405373.758    21405383.909
       237.000         199.000
  23339291.990   -12001685.81849  -9333424.18846  23339291.585    23339303.265
       220.000         167.000
  20322318.272   -12339157.64349  -9584754.72348  20322318.072    20322325.971
       248.000         219.000
  21281899.086    -1851687.63449  -1410198.58747  21281899.138    21281907.522
       242.000         206.000
  24099185.067    19092941.60949  15160546.41545  24099185.301    24099193.450
       213.000         152.000
  24778639.857    17694257.39549  13801005.04145  24778640.744    24778660.257
       206.000         144.000
  20592708.283   -17638885.01149 -13719990.23048  20592707.815    20592716.229
       244.000         216.000
  21028649.278   -14681067.32049 -11422318.17847  21028649.579    21028657.083
       241.000         203.000
 04  1 22 22 15 30.0000000  0  8G10G 6G 5G24G 4G 9G17G30
  21393709.739   -18026130.29249 -13604673.63047  21393708.983    21393718.714
       237.000         199.000
  23326253.918   -12070200.76749  -9386812.26646  23326253.041    23326264.778
       219.000         167.000
  20326037.923   -12319610.98549  -9569523.55248  20326037.747    20326045.547
       247.000         219.000
  21293581.184    -1790298.09149  -1362362.56647  21293581.330    21293589.488
       241.000         206.000
  24118030.371    19191975.29949  15237715.52145  24118031.454    24118038.880
       213.000         149.000
  24796356.657    17787358.45849  13873550.93045  24796358.928    24796378.003
       210.000         143.000
  20590933.034   -17648213.87249 -13727259.40348  20590932.504    20590941.137
       244.000         216.000
  21017258.107   -14740927.92849 -11468962.72847  21017258.365    21017265.912
       241.000         203.000
 04  1 22 22 16  0.0000000  0  8G10G 6G 5G24G 4G 9G17G30
  21382139.727   -18086930.87949 -13652050.54847  21382138.973    21382148.451
       237.000         200.000
  23313220.441   -12138691.70549  -9440181.62146  23313219.834    23313231.004
       220.000         168.000
  20329861.500   -12299517.82549  -9553866.53248  20329861.120    20329869.171
       247.000         219.000
  21305311.686    -1728653.84849  -1314328.07847  21305311.550    21305320.142
       241.000         206.000
  24136877.464    19291016.58049  15314890.53145  24136877.997    24136886.045
       213.000         148.000
  24814054.577    17880358.92749  13946018.45045  24814056.246    24814075.915
       209.000         142.000
  20589233.516   -17657144.67349 -13734218.40648  20589233.131    20589241.684
       245.000         217.000
  21005951.801   -14800343.01449 -11515260.12447  21005952.202    21005959.845
       241.000         203.000
 04  1 22 22 16 30.0000000  0  8G10G 6G 5G24G 4G 9G17G30
  21370664.103   -18147235.27549 -13699040.84947  21370663.308    21370672.645
       239.000         200.000
  23300190.609   -12207163.54949  -9493536.08746  23300190.014    23300201.332
       222.000         169.000
  20333788.003   -12278883.62249  -9537787.92148  20333787.562    20333795.782
       248.000         219.000
  21317089.227    -1666762.55949  -1266101.08847  21317089.196    21317097.813
       243.000         206.000
  24155724.624    19390058.36549  15392065.90945  24155725.349    24155733.318
       212.000         147.000
  24831731.427    17973250.88449  14018401.34545  24831733.059    24831753.250
       206.000         140.000
  20587608.584   -17665683.73849 -13740872.15148  20587608.375    20587616.388
       247.000         217.000
  20994729.703   -14859315.43849 -11561212.57647  20994729.981    20994737.723
       242.000         203.000
 04  1 22 22 17  0.0000000  0  8G10G 6G 5G24G 4G 9G17G30
  21359284.068   -18207037.43149 -13745639.79947  21359282.976    21359292.818
       238.000         200.000
  23287165.144   -12275612.45749  -9546872.68946  23287164.751    23287175.595
       223.000         170.000
  20337818.046   -12257705.49149  -9521285.46548  20337817.792    20337825.761
       248.000         219.000
  21328914.020    -1604623.00149  -1217680.64047  21328913.940    21328922.248
       242.000         206.000
  24174572.165    19489102.64249  15469243.24245  24174572.312    24174580.973
       211.000         147.000
  24849387.870    18066035.06649  14090700.28245  24849389.546    24849408.417
       209.000         139.000
  20586058.761   -17673828.15449 -13747218.37848  20586058.238    20586066.450
       245.000         217.000
  20983592.812   -14917839.45949 -11606815.62147  20983592.601    20983600.492
       241.000         203.000
 04  1 22 22 17 30.0000000  0  8G10G 6G 5G24G 4G 9G17G30
  21347999.200   -18266338.98949 -13791848.65047  21347998.278    21348007.985
       237.000         200.000
  23274143.220   -12344042.64749  -9600194.70846  23274142.996    23274153.094
       221.000         170.000
  20341950.851   -12235987.66749  -9504362.47348  20341950.401    20341958.394
       247.000         219.000
  21340784.836    -1542241.54249  -1169071.69247  21340784.492    21340793.027
       241.000         205.000
  24193419.038    19588143.31249  15546417.80045  24193420.174    24193427.664
       212.000         146.000
  24867022.743    18158704.68549  14162909.95845  24867023.848    24867044.650
       210.000         142.000
  20584582.963   -17681583.23349 -13753261.23148  20584582.450    20584590.683
       244.000         217.000
  20972540.865   -14975917.21649 -11652070.93147  20972541.022    20972548.852
       240.000         203.000
 04  1 22 22 18  0.0000000  0  8G10G 6G 5G24G 4G 9G17G30
  21336811.250   -18325131.56449 -13837660.88447  21336810.084    21336819.512
       237.000         200.000
  23261125.928   -12412448.01649  -9653497.37846  23261125.048    23261136.061
       222.000         170.000
  20346187.270   -12213725.03649  -9487014.95748  20346187.128    20346194.833
       247.000         219.000
  21352702.281    -1479614.70349  -1120271.54647  21352702.142    21352710.397
       242.000         205.000
  24212265.832    19687184.06949  15623592.40645  24212265.577    24212275.380
       209.000         144.000
  24884636.296    18251262.93249  14235032.87745  24884636.954    24884660.091
       210.000         143.000
  20583182.240   -17688944.09649 -13758996.90048  20583181.910    20583190.033
       245.000         217.000
  20961575.352   -15033540.88349 -11696972.40947  20961575.603    20961583.397
       242.000         204.000
 04  1 22 22 18 30.0000000  0  8G10G 6G 5G24G 4G 9G17G30
  21325720.066   -18383415.22649 -13883076.55947  21325719.352    21325728.881
       238.000         200.000
  23248112.986   -12480830.61349  -9706782.30746  23248112.587    23248123.416
       222.000         170.000
  20350526.875   -12190920.39649  -9469245.09648  20350526.444    20350534.515
       247.000         219.000
  21364665.663    -1416746.87449  -1071283.61847  21364665.510    21364674.081
       241.000         205.000
  24231111.864    19786221.29349  15700764.27645  24231111.850    24231120.895
       208.000         144.000
  24902227.642    18343704.86249  14307065.15245  24902227.307    24902250.163
       206.000         143.000
  20581855.945   -17695913.72549 -13764427.71648  20581855.418    20581863.670
       245.000         217.000
  20950696.329   -15090710.40249 -11741519.99747  20950696.585    20950704.432
       241.000         205.000
 04  1 22 22 19  0.0000000  0  8G10G 6G 5G24G 4G 9G17G30
  21314726.154   -18441188.42749 -13928094.47947  21314725.123    21314734.811
       238.000         200.000
  23235104.273   -12549190.96349  -9760049.92246  23235103.722    23235114.676
       223.000         172.000
  20354969.453   -12167574.52549  -9451053.49148  20354969.098    20354977.103
       247.000         219.000
  21376674.275    -1353641.17849  -1022110.33747  21376674.266    21376682.434
       241.000         205.000
  24249956.815    19885252.13149  15777931.13045  24249956.804    24249965.739
       210.000         143.000
  24919796.253    18436027.28149  14379004.28545  24919796.854    24919818.965
       208.000         141.000
  20580603.738   -17702494.00649 -13769555.14348  20580603.245    20580611.355
       245.000         217.000
  20939903.967   -15147424.55349 -11785712.76547  20939904.506    20939911.733
       242.000         205.000
 04  1 22 22 19 30.0000000  0  8G10G 6G 5G24G 4G 9G17G30
  21303829.897   -18498447.80049 -13972712.02547  21303828.896    21303838.256
       238.000         200.000
  23222100.053   -12617528.00449  -9813299.38146  23222099.505    23222110.753
       222.000         173.000
  20359515.088   -12143687.08649  -9432439.89848  20359514.911    20359522.813
       246.000         219.000
  21388727.846    -1290299.31649   -972753.03747  21388727.962    21388735.864
       242.000         205.000
  24268800.595    19984275.68449  15855092.28645  24268801.998    24268808.044
       209.000         143.000
  24937341.765    18528228.41949  14450848.97245  24937342.747    24937365.365
       209.000         142.000
  20579425.661   -17708684.82249 -13774379.09348  20579425.090    20579433.114
       244.000         217.000
  20929198.866   -15203680.28349 -11829548.33847  20929199.277    20929206.465
       242.000         205.000
 04  1 22 22 20  0.0000000  0  8G10G 6G 5G24G 4G 9G17G30
  21293031.761   -18555191.80449 -14016927.99047  21293030.732    21293040.066
       238.000         200.000
  23209100.118   -12685842.35049  -9866531.14446  23209099.215    23209111.035
       222.000         174.000
  20364163.598   -12119259.00449  -9413405.01448  20364163.013    20364171.153
       247.000         218.000
  21400825.881    -1226724.08649   -923213.88647  21400825.817    21400834.094
       241.000         204.000
  24287642.430    20083289.66649  15932245.99445  24287642.905    24287648.743
       207.000         143.000
  24954863.595    18620304.68349  14522596.30945  24954864.837    24954886.453
       207.000         141.000
  20578321.303   -17714488.02049 -13778901.00148  20578320.595    20578328.861
       245.000         216.000
  20918581.189   -15259476.38349 -11873025.74147  20918581.587    20918589.329
       241.000         206.000
 04  1 22 22 20 30.0000000  0  8G10G 6G 5G24G 4G 9G17G30
  21282332.431   -18611416.84149 -14060739.57847  21282331.678    21282340.978
       238.000         200.000
  23196104.846   -12754132.32949  -9919743.94646  23196104.501    23196115.559
       223.000         174.000
  20368915.034   -12094289.93249  -9393948.58648  20368914.694    20368922.692
       247.000         218.000
  21412968.078    -1162916.47449   -873493.65947  21412967.771    21412976.228
       241.000         204.000
  24306481.998    20182293.46949  16009391.77745  24306482.822    24306490.007
       208.000         143.000
  24972361.699    18712254.66649  14594245.21545  24972363.063    24972384.308
       210.000         142.000
  20577290.747   -17719903.29549 -13783120.64148  20577290.088    20577298.385
       245.000         216.000
  20908051.616   -15314809.39849 -11916142.31947  20908052.067    20908059.312
       242.000         205.000
 04  1 22 22 21  0.0000000  0  8G10G 6G 5G24G 4G 9G17G30
  21271732.485   -18667119.44749 -14104144.08047  21271731.707    21271740.614
       238.000         200.000
  23183114.461   -12822396.76349  -9972936.84746  23183114.434    23183125.126
       224.000         175.000
  20373769.578   -12068779.13749  -9374070.03548  20373769.323    20373777.277
       247.000         218.000
  21425154.223    -1098877.79449   -823593.38147  21425154.154    21425162.282
       241.000         204.000
  24325319.731    20281286.30349  16086529.02045  24325320.311    24325328.008
       210.000         143.000
  24989835.344    18804077.00349  14665794.67045  24989837.066    24989857.543
       208.000         141.000
  20576334.026   -17724930.60549 -13787037.97148  20576333.601    20576341.480
       244.000         216.000
  20897610.785   -15369676.29149 -11958895.68147  20897611.165    20897618.420
       241.000         205.000
 04  1 22 22 21 30.0000000  0  8G10G 6G 5G24G 4G 9G17G30
  21261231.800   -18722300.18549 -14147141.92347  21261230.846    21261239.830
       239.000         201.000
  23170128.655   -12890637.96149 -10026111.63246  23170128.114    23170137.754
       224.000         175.000
  20378726.689   -12042729.61049  -9353771.68948  20378726.391    20378734.446
       247.000         219.000
  21437383.487    -1034612.57849   -773516.58047  21437383.198    21437391.705
       241.000         204.000
  24344154.699    20380264.20049  16163654.64945  24344154.053    24344162.622
       210.000         143.000
  25007283.586    18895766.52949  14737240.59345  25007283.848    25007306.489
       208.000         141.000
  20575450.568   -17729573.29549 -13790655.59648  20575449.872    20575457.851
       245.000         216.000
  20887258.613   -15424077.32449 -12001286.02847  20887258.912    20887266.054
       241.000         205.000
 04  1 22 22 22  0.0000000  0  8G10G 6G 5G24G 4G 9G17G30
  21250831.326   -18776954.70049 -14189729.72147  21250830.536    21250839.665
       238.000         201.000
  23157147.436   -12958853.82949 -10079266.67246  23157146.591    23157156.954
       221.000         174.000
  20383786.576   -12016139.92749  -9333052.45048  20383786.318    20383794.157
       247.000         219.000
  21449655.791     -970121.29449   -723263.62647  21449655.832    21449663.853
       241.000         203.000
  24362986.756    20479226.99449  16240768.53145  24362987.495    24362995.077
       212.000         144.000
  25024706.402    18987322.47549  14808582.43545  25024707.875    25024729.249
       209.000         140.000
  20574640.359   -17733830.59849 -13793972.91948  20574639.713    20574647.911
       244.000         216.000
  20876995.713   -15478008.83149 -12043310.51547  20876995.817    20877003.143
       241.000         205.000
 04  1 22 22 22 30.0000000  0  8G10G 6G 5G24G 4G 9G17G30
  21240531.423   -18831080.52349 -14231905.57047  21240530.477    21240539.441
       238.000         201.000
  23144171.078   -13027043.83749 -10132401.54946  23144170.224    23144181.363
       221.000         173.000
  20388949.132   -11989010.39449  -9311912.54648  20388948.595    20388956.716
       247.000         219.000
  21461970.781     -905405.90449   -672836.03947  21461970.647    21461978.817
       241.000         203.000
  24381815.855    20578173.43349  16317869.63845  24381817.699    24381824.718
       212.000         143.000
  25042103.486    19078742.49149  14879818.38345  25042105.071    25042123.972
       212.000         139.000
  20573903.344   -17737703.28849 -13796990.55348  20573902.704    20573910.862
       244.000         216.000
  20866822.601   -15531468.35349 -12084967.22847  20866822.779    20866830.242
       241.000         205.000
 04  1 22 22 23  0.0000000  0  8G10G 6G 5G24G 4G 9G17G30
  21230332.352   -18884676.51149 -14273668.54547  21230331.267    21230340.537
       238.000         201.000
  23131199.570   -13095208.60249 -10185516.77846  23131199.284    23131209.819
       222.000         173.000
  20394214.098   -11961342.61749  -9290353.23348  20394213.610    20394221.701
       247.000         218.000
  21474327.718     -840469.75149   -622236.41947  21474327.582    21474335.432
       240.000         203.000
  24400641.294    20677100.68349  16394955.83445  24400641.847    24400649.002
       211.000         144.000
  25059474.042    19170023.01249  14950945.59445  25059474.867    25059496.345
       209.000         138.000
  20573239.234   -17741193.10849 -13799709.83848  20573238.573    20573246.654
       244.000         216.000
  20856739.558   -15584454.89449 -12126255.38147  20856740.039    20856747.423
       242.000         205.000
 04  1 22 22 23 30.0000000  0  8G10G 6G 5G24G 4G 9G17G30
  21220234.819   -18937738.70449 -14315015.57947  21220234.168    21220242.790
       238.000         201.000
  23118233.171   -13163346.36049 -10238610.95046  23118231.911    23118243.146
       220.000         172.000
  20399581.636   -11933135.95249  -9268374.00548  20399581.394    20399589.239
       247.000         219.000
  21486726.542     -775313.36449   -571465.19347  21486726.459    21486734.575
       240.000         202.000
  24419462.599    20776008.58349  16472026.93145  24419462.278    24419471.701
       208.000         144.000
  25076817.753    19261163.15549  15021963.43145  25076818.640    25076840.682
       212.000         139.000
  20572648.018   -17744299.71249 -13802130.51348  20572647.443    20572655.376
       244.000         216.000
  20846747.251   -15636964.98649 -12167172.28147  20846747.627    20846754.704
       243.000         206.000
 04  1 22 22 24  0.0000000  0  8G10G 6G 5G24G 4G 9G17G30
  21210239.360   -18990264.93949 -14355944.98647  21210238.637    21210247.863
       239.000         202.000
  23105271.956   -13231456.85849 -10291683.88146  23105271.134    23105282.682
       219.000         171.000
  20405051.743   -11904390.64749  -9245975.05648  20405051.497    20405059.475
       247.000         219.000
  21499166.826     -709939.01149   -520524.11247  21499166.317    21499174.728
       239.000         202.000
  24438280.004    20874895.71449  16549081.82345  24438280.490    24438287.999
       208.000         144.000
  25094134.559    19352160.23349  15092869.78545  25094136.241    25094157.830
       210.000         142.000
  20572129.510   -17747024.06249 -13804253.32748  20572128.922    20572137.047
       243.000         216.000
  20836845.911   -15688996.45549 -12207716.22247  20836846.261    20836853.797
       244.000         206.000
 04  1 22 22 24 30.0000000  0  7G10G 6G 5G24G 4G17G30
  21200349.593   -19042235.65449 -14396441.53247  21200348.514    21200357.822
       239.000         202.000
  23092319.331   -13299522.41349 -10344721.80446  23092318.960    23092329.984
       221.000         172.000
  20410627.444   -11875090.15749  -9223143.50248  20410627.007    20410634.889
       247.000         219.000
  21511651.280     -644331.90449   -469401.66347  21511650.844    21511659.468
       239.000         202.000
  24457096.597    20973777.59749  16626132.62445  24457097.234    24457105.526
       209.000         144.000
  20571686.899   -17749349.79349 -13806065.53248  20571686.458    20571694.427
       242.000         216.000
  20827039.359   -15740530.10149 -12247872.24847  20827039.361    20827047.275
       243.000         207.000
 04  1 22 22 25  0.0000000  0  7G10G 6G 5G24G 4G17G30
  21190561.792   -19093670.58449 -14436520.56347  21190560.650    21190569.895
       240.000         202.000
  23079371.233   -13367564.99249 -10397741.82446  23079370.414    23079381.624
       222.000         173.000
  20416304.368   -11845257.54549  -9199897.30648  20416304.027    20416311.972
       247.000         219.000
  21524175.560     -578516.09449   -418116.59147  21524175.094    21524183.667
       239.000         201.000
  24475907.633    21072630.41449  16703160.79545  24475908.311    24475916.849
       209.000         143.000
  20571315.743   -17751300.16649 -13807585.24748  20571315.225    20571323.224
       243.000         216.000
  20817323.647   -15791586.06049 -12287656.04947  20817323.897    20817331.441
       244.000         207.000
 04  1 22 22 25 30.0000000  0  7G10G 6G 5G24G 4G17G30
  21180876.006   -19144569.51249 -14476181.93647  21180875.225    21180884.051
       241.000         203.000
  23066427.230   -13435586.04149 -10450745.06046  23066426.455    23066437.483
       221.000         173.000
  20422082.255   -11814894.64049  -9176237.89048  20422081.987    20422089.841
       247.000         219.000
  21536738.828     -512495.28249   -366671.76947  21536738.676    21536747.114
       239.000         201.000
  24494712.493    21171450.71549  16780163.56345  24494713.003    24494720.896
       210.000         143.000
  20571015.498   -17752877.92949 -13808814.61648  20571015.103    20571022.769
       243.000         216.000
  20807698.966   -15842164.10249 -12327067.45347  20807699.389    20807706.761
       245.000         208.000
 04  1 22 22 26  0.0000000  0  7G10G 6G 5G24G 4G17G30
  21171293.331   -19194926.49849 -14515421.01847  21171292.089    21171301.058
       240.000         203.000
  23053487.997   -13503581.28749 -10503728.20146  23053487.413    23053498.644
       223.000         174.000
  20427961.566   -11783998.58649  -9152163.04148  20427961.157    20427969.273
       247.000         219.000
  21549341.469     -446268.07849   -315066.13847  21549341.711    21549349.797
       239.000         202.000
  24513511.646    21270240.91149  16857142.87445  24513512.389    24513520.029
       209.000         143.000
  20570786.615   -17754080.46649 -13809751.61148  20570786.151    20570794.138
       243.000         216.000
  20798166.331   -15892258.32749 -12366101.86347  20798166.529    20798174.025
       245.000         207.000
 04  1 22 22 26 30.0000000  0  7G10G 6G 5G24G 4G17G30
  21161814.374   -19244738.08249 -14554235.11247  21161813.491    21161822.469
       239.000         203.000
  23040554.165   -13571548.82749 -10556689.75146  23040553.587    23040564.567
       225.000         175.000
  20433942.462   -11752568.55849  -9127672.10148  20433941.926    20433950.263
       246.000         219.000
  21561983.162     -379835.52449   -263300.50247  21561983.060    21561991.272
       239.000         201.000
  24532304.957    21369000.95849  16934098.74645  24532305.209    24532314.415
       209.000         143.000
  20570629.264   -17754907.13149 -13810395.72148  20570628.730    20570636.829
       243.000         216.000
  20788726.336   -15941865.37249 -12404756.65147  20788726.574    20788734.373
       244.000         208.000
 04  1 22 22 27  0.0000000  0  7G10G 6G 5G24G 4G17G30
  21152439.513   -19294002.69849 -14592623.00147  21152438.412    21152447.353
       239.000         203.000
  23027625.623   -13639488.71949 -10609629.78746  23027625.666    23027635.288
       223.000         174.000
  20440024.788   -11720605.52949  -9102765.84248  20440024.565    20440032.532
       247.000         218.000
  21574663.486     -313200.12149   -211376.79947  21574663.321    21574671.426
       239.000         201.000
  24551092.256    21467728.77149  17011029.50245  24551091.373    24551101.402
       212.000         144.000
  20570543.114   -17755359.56349 -13810748.22348  20570542.630    20570550.634
       243.000         216.000
  20779379.353   -15990983.79749 -12443030.68947  20779379.585    20779387.276
       244.000         208.000
 04  1 22 22 27 30.0000000  0  7G10G 6G 5G24G 4G17G30
  21143169.434   -19342716.19249 -14630581.45947  21143168.559    21143177.413
       239.000         203.000
  23014702.547   -13707398.96949 -10662546.72846  23014702.153    23014712.246
       224.000         174.000
  20446208.715   -11688108.74049  -9077443.66248  20446208.414    20446216.356
       247.000         218.000
  21587382.333     -246361.97549   -159295.11547  21587381.986    21587390.588
       238.000         200.000
  24569873.558    21566424.64749  17087935.38345  24569873.820    24569882.848
       211.000         143.000
  20570528.385   -17755436.72249 -13810808.30548  20570527.970    20570535.783
       243.000         216.000
  20770126.071   -16039609.79949 -12480921.02247  20770126.491    20770134.179
       244.000         208.000
 04  1 22 22 28  0.0000000  0  7G10G 6G 5G24G 4G17G30
  21134004.746   -19390876.57249 -14668108.93247  21134003.874    21134012.821
       240.000         203.000
  23001785.254   -13775279.24049 -10715440.30646  23001785.086    23001795.278
       222.000         174.000
  20452494.161   -11655078.59349  -9051705.89148  20452493.833    20452501.798
       247.000         218.000
  21600139.312     -179323.22549   -107057.12447  21600139.325    21600147.418
       238.000         200.000
  24588648.361    21665086.69749  17164814.89845  24588649.432    24588657.340
       210.000         141.000
  20570584.876   -17755139.97649 -13810577.03148  20570584.361    20570592.163
       243.000         217.000
  20760966.940   -16087741.38749 -12518426.09947  20760967.172    20760974.736
       245.000         209.000
 04  1 22 22 28 30.0000000  0  7G10G 6G 5G24G 4G17G30
  21124945.607   -19438482.01349 -14705203.97247  21124944.565    21124954.037
       240.000         204.000
  22988873.672   -13843129.14049 -10768310.18446  22988873.114    22988883.679
       222.000         174.000
  20458880.853   -11621515.98849  -9025553.20948  20458880.522    20458888.620
       247.000         218.000
  21612934.146     -112085.95549    -54664.43447  21612934.137    21612942.663
       238.000         200.000
  24607416.475    21763713.55749  17241666.98245  24607416.950    24607425.112
       207.000         141.000
  20570712.219   -17754470.59149 -13810055.39048  20570711.773    20570719.752
       244.000         217.000
  20751902.163   -16135376.85449 -12555544.59647  20751902.587    20751910.099
       245.000         209.000
 04  1 22 22 29  0.0000000  0  7G10G 6G 5G24G 4G17G30
  21115992.288   -19485531.18849 -14741865.57847  21115991.323    21116000.463
       239.000         204.000
  22975967.757   -13910949.08849 -10821156.75146  22975967.019    22975977.564
       224.000         174.000
  20465368.637   -11587422.57449  -8998986.92048  20465368.540    20465376.499
       248.000         219.000
  21625766.138      -44653.24049     -2119.45747  21625766.124    21625774.453
       238.000         200.000
  24626177.538    21862302.93349  17318489.87345  24626177.902    24626185.522
       209.000         141.000
  20570910.232   -17753430.02249 -13809244.51648  20570909.696    20570917.611
       244.000         217.000
  20742932.064   -16182514.99149 -12592275.56847  20742932.497    20742939.770
       244.000         209.000
 04  1 22 22 29 30.0000000  0  7G10G 6G 5G24G 4G17G30
  21107145.547   -19532020.75449 -14778091.12347  21107144.808    21107153.653
       239.000         204.000
  22963067.924   -13978737.15649 -10873978.46646  22963067.759    22963077.753
       223.000         175.000
  20471957.607   -11552797.79449  -8972006.57748  20471957.499    20471965.281
       247.000         219.000
  21638635.155       22974.11849     50577.20047  21638635.075    21638643.698
       238.000         199.000
  24644931.225    21960854.86949  17395283.61245  24644931.419    24644939.670
       206.000         141.000
  20571178.889   -17752017.94349 -13808144.14548  20571178.340    20571186.442
       244.000         217.000
  20734057.225   -16229152.37649 -12628616.33247  20734057.471    20734065.191
       243.000         208.000
 04  1 22 22 30  0.0000000  0  7G10G 6G 5G24G 4G17G30
  21098405.668   -19577948.59249 -14813878.95547  21098404.748    21098413.748
       240.000         204.000
  22950174.283   -14046493.04349 -10926775.08646  22950173.595    22950183.644
       223.000         175.000
  20478647.451   -11517642.50249  -8944612.84848  20478647.248    20478655.239
       247.000         219.000
  21651540.787       90793.82349    103423.72947  21651540.930    21651549.277
       238.000         199.000
  24663677.516    22059367.64949  17472046.81645  24663678.431    24663685.319
       210.000         140.000
  20571517.991   -17750235.65049 -13806755.29848  20571517.495    20571525.468
       243.000         217.000
  20725277.992   -16275287.12149 -12664565.42847  20725278.258    20725285.808
       243.000         208.000
 04  1 22 22 30 30.0000000  0  7G10G 6G 5G24G 4G17G30
  21089773.048   -19623313.06849 -14849227.79847  21089772.404    21089781.027
       240.000         205.000
  22937286.744   -14114216.60549 -10979546.52046  22937285.698    22937296.280
       222.000         176.000
  20485438.018   -11481957.72249  -8916806.53248  20485437.787    20485445.652
       247.000         219.000
  21664482.771      158803.72949    156418.46747  21664482.881    21664491.276
       238.000         199.000
  24682416.101    22157839.52849  17548778.18145  24682415.190    24682423.410
       208.000         138.000
  20571927.257   -17748084.48049 -13805079.00948  20571926.771    20571934.730
       243.000         217.000
  20716594.671   -16320917.91449 -12700121.83447  20716594.800    20716602.344
       242.000         208.000
 04  1 22 22 31  0.0000000  0  7G10G 6G 5G24G 4G17G30
  21081248.117   -19668111.62649 -14884135.65447  21081247.356    21081256.434
       241.000         205.000
  22924405.607   -14181906.74449 -11032291.91846  22924405.534    22924415.443
       224.000         175.000
  20492329.335   -11445743.68049  -8888587.80348  20492329.056    20492337.086
       247.000         219.000
  21677460.572      227002.22649    209560.16947  21677460.506    21677468.809
       238.000         199.000
  24701146.926    22256269.85949  17625477.11245  24701148.351    24701155.392
       209.000         139.000
  20572406.718   -17745564.83249 -13803115.59448  20572406.469    20572414.084
       244.000         217.000
  20708007.781   -16366041.91649 -12735283.33247  20708008.144    20708015.559
       243.000         208.000
 04  1 22 22 31 30.0000000  0  7G10G 6G 5G24G 4G17G30
  21072831.080   -19712343.01749 -14918601.57147  21072830.323    21072839.033
       241.000         205.000
  22911530.880   -14249563.63049 -11085011.40546  22911530.767    22911540.136
       223.000         175.000
  20499321.021   -11409002.00949  -8859957.93848  20499320.606    20499328.681
       247.000         218.000
  21690473.710      295386.69749    262846.78147  21690473.538    21690481.891
       237.000         198.000
  24719869.414    22354656.20649  17702141.78845  24719869.940    24719878.260
       209.000         139.000
  20572955.963   -17742678.71049 -13800866.62348  20572955.389    20572963.451
       242.000         217.000
  20699517.566   -16410658.23149 -12770049.23547  20699517.722    20699525.461
       242.000         209.000
 04  1 22 22 32  0.0000000  0  7G10G 6G 5G24G 4G17G30
  21064522.297   -19756005.93449 -14952624.52747  21064521.455    21064530.337
       241.000         205.000
  22898662.391   -14317187.44849 -11137705.13346  22898662.506    22898672.199
       225.000         176.000
  20506412.870   -11371734.07949  -8830918.00248  20506412.466    20506420.302
       247.000         218.000
  21703521.711      363954.59349    316276.31047  21703521.495    21703530.106
       238.000         198.000
  24738583.196    22452996.91149  17778770.94845  24738583.195    24738590.037
       206.000         136.000
  20573574.510   -17739427.56449 -13798333.21848  20573573.861    20573582.179
       242.000         217.000
  20691124.189   -16454765.40549 -12804418.40147  20691124.523    20691131.865
       243.000         209.000
 04  1 22 22 32 30.0000000  0  7G10G 6G 5G24G 4G17G30
  21056322.193   -19799097.47949 -14986202.25847  21056321.442    21056330.363
       241.000         205.000
  22885800.516   -14384776.66349 -11190371.90846  22885799.790    22885809.357
       226.000         176.000
  20513604.795   -11333939.96849  -8801468.05648  20513604.457    20513612.547
       247.000         218.000
  21716604.349      432704.50249    369847.67147  21716604.198    21716612.884
       238.000         198.000
  24757287.836    22551291.27049  17855363.98245  24757286.797    24757294.305
       204.000         133.000
  20574262.511   -17735811.59949 -13795515.53748  20574262.065    20574270.099
       242.000         216.000
  20682828.233   -16498360.72449 -12838388.71947  20682828.516    20682835.925
       243.000         210.000
 04  1 22 22 33  0.0000000  0  7G10G 6G 5G24G 4G17G30
  21048231.201   -19841615.56949 -15019333.13747  21048230.583    21048239.022
       241.000         206.000
  22872945.343   -14452330.63849 -11243011.23146  22872944.750    22872955.428
       226.000         177.000
  20520896.828   -11295620.29449  -8771608.58348  20520896.639    20520904.787
       247.000         218.000
  21729721.338      501634.93649    423559.70447  21729721.137    21729729.837
       238.000         198.000
  24775983.500    22649538.07649  17931919.92545  24775985.842    24775991.004
       210.000         132.000
  20575019.785   -17731831.78749 -13792414.34448  20575019.370    20575027.318
       242.000         216.000
  20674630.120   -16541442.14749 -12871958.60247  20674630.661    20674637.839
       244.000         210.000
 04  1 22 22 33 30.0000000  0  7G10G 6G 5G24G 4G17G30
  21040249.529   -19883559.06649 -15052016.27747  21040248.549    21040257.352
       241.000         205.000
  22860096.726   -14519849.47349 -11295623.16046  22860095.795    22860105.956
       223.000         176.000
  20528288.493   -11256776.81449  -8741340.94348  20528288.262    20528296.434
       247.000         218.000
  21742872.154      570743.13949    477410.24947  21742871.953    21742880.809
       238.000         198.000
  24794669.821    22747735.30649  18008437.26345  24794668.938    24794681.736
       207.000         134.000
  20575846.111   -17727489.50349 -13789030.70348  20575845.808    20575853.685
       243.000         217.000
  20666530.003   -16584008.47349 -12905127.10647  20666530.089    20666537.477
       243.000         210.000
 04  1 22 22 34  0.0000000  0  7G10G 6G 5G24G 4G17G30
  21032377.995   -19924924.06649 -15084248.63447  21032376.898    21032385.983
       240.000         205.000
  22847255.214   -14587330.72549 -11348205.78646  22847254.785    22847265.430
       223.000         175.000
  20535780.173   -11217407.89249  -8710663.87348  20535780.105    20535787.891
       248.000         218.000
  21756056.783      640029.02549    531399.26947  21756056.585    21756065.292
       238.000         199.000
  24813346.519    22845883.72149  18084916.49945  24813346.608    24813358.132
       203.000         134.000
  20576741.509   -17722784.22049 -13785364.20648  20576740.959    20576748.685
       243.000         216.000
  20658528.550   -16626055.87749 -12937891.25547  20658528.988    20658536.055
       243.000         210.000
 04  1 22 22 34 30.0000000  0  6G10G 6G 5G24G17G30
  21024617.778   -19965703.26849 -15116024.53747  21024616.891    21024625.955
       241.000         205.000
  22834422.041   -14654768.22149 -11400754.31646  22834421.179    22834432.453
       221.000         175.000
  20543372.654   -11177509.53449  -8679574.25848  20543372.589    20543380.383
       247.000         218.000
  21769275.947      709496.16249    585529.51347  21769275.844    21769284.237
       238.000         198.000
  20577706.779   -17717711.25649 -13781411.20548  20577706.290    20577714.141
       242.000         216.000
  20650627.327   -16667577.08249 -12970245.38347  20650627.568    20650634.821
       243.000         209.000
 04  1 22 22 35  0.0000000  0  6G10G 6G 5G24G17G30
  21016968.453   -20005900.42449 -15147346.89447  21016967.416    21016976.686
       240.000         205.000
  22821596.115   -14722167.24449 -11453272.87146  22821595.518    22821606.144
       222.000         174.000
  20551064.516   -11137088.70349  -8648077.51948  20551064.454    20551072.083
       248.000         218.000
  21782528.046      779136.57249    639794.78747  21782527.930    21782536.551
       237.000         198.000
  20578740.701   -17712277.66649 -13777177.19548  20578740.035    20578748.027
       243.000         216.000
  20642825.360   -16708576.05349 -13002192.57247  20642825.709    20642832.680
       243.000         209.000
 04  1 22 22 35 30.0000000  0  6G10G 6G 5G24G17G30
  21009429.244   -20045518.39149 -15178217.94347  21009428.685    21009436.801
       241.000         206.000
  22808776.858   -14789531.75049 -11505764.51946  22808776.333    22808787.212
       222.000         174.000
  20558854.798   -11096150.63049  -8616177.73848  20558854.561    20558862.584
       247.000         218.000
  21795811.881      848943.74849    694190.00547  21795811.704    21795820.142
       237.000         198.000
  20579842.141   -17706489.40649 -13772666.81648  20579841.802    20579849.606
       243.000         216.000
  20635122.343   -16749055.57049 -13033734.99647  20635122.362    20635129.665
       242.000         209.000
 04  1 22 22 36  0.0000000  0  6G10G 6G 5G24G17G30
  21002000.912   -20084554.66849 -15208635.72247  21002000.158    21002008.617
       242.000         206.000
  22795964.556   -14856860.16949 -11558228.07546  22795964.282    22795974.791
       223.000         175.000
  20566743.498   -11054695.14049  -8583874.77248  20566743.180    20566751.173
       247.000         218.000
  21809127.225      918916.76649    748714.44547  21809127.375    21809135.677
       237.000         198.000
  20581011.105   -17700346.22049 -13767879.87448  20581010.663    20581018.315
       243.000         217.000
  20627518.611   -16789012.94449 -13064870.55347  20627518.786    20627526.077
       243.000         209.000
 04  1 22 22 36 30.0000000  0  6G10G 6G 5G24G17G30
  20994683.707   -20123006.72449 -15238598.25647  20994683.093    20994691.501
       242.000         206.000
  22783159.257   -14924151.27749 -11610662.56146  22783159.187    22783168.334
       225.000         176.000
  20574730.540   -11012722.80449  -8551169.07448  20574730.221    20574738.270
       247.000         218.000
  21822473.960      989054.40249    803367.16847  21822474.195    21822482.210
       238.000         197.000
  20582247.489   -17693848.72149 -13762816.84448  20582247.157    20582254.874
       243.000         217.000
  20620014.747   -16828445.67149 -13095597.30147  20620014.921    20620022.388
       243.000         210.000
 04  1 22 22 37  0.0000000  0  6G10G 6G 5G24G17G30
  20987478.123   -20160871.88149 -15268103.47947  20987477.252    20987485.803
       242.000         206.000
  22770361.582   -14991403.42049 -11663066.68346  22770362.036    22770371.427
       225.000         176.000
  20582815.998   -10970233.24549  -8518060.34248  20582815.653    20582823.692
       247.000         217.000
  21835851.866     1059355.61149    858147.34647  21835851.804    21835860.086
       237.000         197.000
  20583551.352   -17686996.75149 -13757477.60848  20583551.044    20583558.857
       243.000         217.000
  20612611.189   -16867350.97649 -13125913.06747  20612611.456    20612618.625
       243.000         210.000
 04  1 22 22 37 30.0000000  0  6G10G 6G 5G24G17G30
  20980384.581   -20198148.40749 -15297150.02447  20980383.833    20980392.023
       242.000         207.000
  22757571.381   -15058615.95649 -11715439.94146  22757571.841    22757580.589
       224.000         176.000
  20590999.616   -10927227.90449  -8484549.70448  20590999.418    20591007.427
       246.000         217.000
  21849260.498     1129818.43549    913053.44647  21849260.712    21849268.711
       236.000         197.000
  20584922.402   -17679791.77449 -13751863.29748  20584921.935    20584929.687
       243.000         217.000
  20605308.413   -16905727.24949 -13155816.61647  20605308.782    20605316.078
       243.000         210.000
 04  1 22 22 38  0.0000000  0  7G10G 6G21G 5G24G17G30
  20973398.485   -20234860.34349 -15325756.62747  20973397.589    20973405.840
       241.000         206.000
  22744783.987   -15125814.22349 -11767802.08446  22744784.823    22744793.630
       227.000         177.000
  24893016.348    -5540834.46259  -3852794.34245  24893014.505    24893034.412
       203.000         137.000
  20599276.289   -10883733.86849  -8450658.26148  20599276.058    20599284.188
       247.000         217.000
  21862694.550     1200415.01049    968063.77347  21862694.352    21862702.733
       237.000         196.000
  20586355.559   -17672260.65449 -13745994.85048  20586355.183    20586362.730
       244.000         217.000
  20598101.680   -16943598.66049 -13185326.76347  20598102.221    20598109.143
       245.000         211.000
 04  1 22 22 38 30.0000000  0  7G10G 6G21G 5G24G17G30
  20966525.248   -20270978.79949 -15353900.78147  20966524.517    20966532.901
       242.000         206.000
  22732004.680   -15192970.29249 -11820131.34446  22732005.330    22732014.957
       228.000         179.000
  24876162.462    -5629399.29949  -3921805.38445  24876160.472    24876180.493
       205.000         137.000
  20607650.949   -10839724.68449  -8416365.41248  20607650.730    20607658.743
       246.000         217.000
  21876158.982     1271170.77249   1023198.14147  21876159.170    21876167.566
       237.000         197.000
  20587855.726   -17664377.11749 -13739851.79548  20587855.224    20587862.884
       243.000         216.000
  20590996.608   -16980936.09549 -13214420.82747  20590996.959    20591004.225
       243.000         211.000
 04  1 22 22 39  0.0000000  0  7G10G 6G21G 5G24G17G30
  20959767.303   -20306491.65849 -15381573.04347  20959766.805    20959774.923
       242.000         207.000
  22719235.479   -15260072.97149 -11872419.00346  22719235.610    22719244.296
       228.000         179.000
  24859336.943    -5717815.30649  -3990700.47245  24859334.951    24859354.918
       202.000         137.000
  20616125.477   -10795190.99849  -8381663.85848  20616125.353    20616133.391
       247.000         217.000
  21889655.286     1342094.34549   1078463.25747  21889655.377    21889663.642
       236.000         197.000
  20589424.738   -17656131.81449 -13733426.85348  20589424.398    20589431.976
       243.000         216.000
  20583995.387   -17017727.49649 -13243089.41547  20583995.756    20584003.080
       244.000         211.000
 04  1 22 22 39 30.0000000  0  7G10G 6G21G 5G24G17G30
  20953124.024   -20341402.08449 -15408775.88047  20953123.345    20953131.429
       241.000         207.000
  22706475.672   -15327126.03149 -11924668.00146  22706475.754    22706485.008
       227.000         179.000
  24842539.123    -5806086.20349  -4059482.49145  24842538.568    24842556.222
       206.000         137.000
  20624698.685   -10750138.39449  -8346557.95248  20624698.338    20624706.584
       246.000         217.000
  21903182.325     1413179.27949   1133854.11247  21903182.222    21903190.584
       237.000         197.000
  20591061.489   -17647530.37249 -13726724.39648  20591061.205    20591068.903
       243.000         217.000
  20577097.551   -17053975.60149 -13271334.64647  20577097.712    20577105.257
       243.000         211.000
 04  1 22 22 40  0.0000000  0  7G10G 6G21G 5G24G17G30
  20946594.929   -20375712.37849 -15435511.08847  20946593.895    20946602.593
       241.000         207.000
  22693724.531   -15394132.82649 -11976880.93446  22693724.441    22693733.187
       227.000         178.000
  24825768.713    -5894214.79349  -4128153.59645  24825767.009    24825784.507
       210.000         138.000
  20633369.756   -10704571.81649  -8311051.54848  20633369.565    20633377.642
       246.000         217.000
  21916738.976     1484419.84349   1189366.24347  21916739.017    21916747.035
       236.000         196.000
  20592765.095   -17638577.96349 -13719748.46148  20592764.656    20592772.332
       243.000         217.000
  20570302.720   -17089682.62049 -13299158.25647  20570303.245    20570310.364
       244.000         211.000
 04  1 22 22 40 30.0000000  0  7G10G 6G21G 5G24G17G30
  20940180.222   -20409421.27849 -15461777.68847  20940179.355    20940187.760
       241.000         207.000
  22680982.187   -15461093.22349 -12029057.72746  22680981.823    22680990.986
       228.000         179.000
  24809025.170    -5982201.09049  -4196713.83545  24809023.600    24809042.147
       208.000         137.000
  20642138.135   -10658493.43749  -8275146.33748  20642137.955    20642145.995
       247.000         217.000
  21930324.744     1555813.60049   1244997.72647  21930324.742    21930332.666
       236.000         196.000
  20594535.098   -17629276.46449 -13712500.50448  20594534.420    20594542.274
       243.000         217.000
  20563611.041   -17124847.71849 -13326559.58447  20563611.578    20563618.464
       245.000         211.000
 04  1 22 22 41  0.0000000  0  7G10G 6G21G 5G24G17G30
  20933879.735   -20442530.16749 -15487576.74847  20933878.827    20933887.088
       241.000         208.000
  22668248.444   -15528009.32149 -12081199.99946  22668248.468    22668257.085
       228.000         180.000
  24792308.482    -6070046.85949  -4265164.62745  24792307.892    24792323.754
       210.000         139.000
  20651003.438   -10611906.51349  -8238844.85648  20651003.268    20651011.288
       246.000         217.000
  21943938.727     1627355.68149   1300744.79547  21943938.737    21943947.276
       236.000         195.000
  20596370.799   -17619629.36149 -13704983.24248  20596370.290    20596378.089
       243.000         217.000
  20557022.281   -17159471.78149 -13353539.32547  20557022.829    20557029.839
       245.000         212.000
 04  1 22 22 41 30.0000000  0  7G10G 6G21G 5G24G17G30
  20927694.069   -20475035.96149 -15512905.85947  20927693.359    20927701.642
       242.000         208.000
  22655523.393   -15594879.13249 -12133306.20146  22655523.358    22655532.806
       227.000         180.000
  24775618.849    -6157750.20849  -4333504.44045  24775617.517    24775634.725
       210.000         138.000
  20659965.393   -10564811.12749  -8202147.17548  20659964.964    20659973.264
       246.000         217.000
  21957580.847     1699045.48049   1356606.98347  21957580.793    21957589.421
       235.000         195.000
  20598272.249   -17609636.90049 -13697196.87548  20598271.783    20598279.487
       243.000         217.000
  20550536.991   -17193552.09949 -13380095.37047  20550537.179    20550544.186
       245.000         212.000
 04  1 22 22 42  0.0000000  0  7G10G 6G21G 5G24G17G30
  20921623.276   -20506938.13649 -15537764.61847  20921622.442    20921630.821
       242.000         208.000
  22642807.132   -15661702.80949 -12185376.46146  22642807.241    22642816.039
       228.000         180.000
  24758956.196    -6245310.98849  -4401733.16045  24758954.093    24758972.287
       206.000         139.000
  20669023.604   -10517209.73549  -8165055.19748  20669023.223    20669031.451
       246.000         216.000
  21971250.617     1770880.40849   1412582.24947  21971250.640    21971259.430
       235.000         195.000
  20600239.125   -17599300.78849 -13689142.72948  20600238.572    20600246.315
       243.000         217.000
  20544155.338   -17227087.89249 -13406227.11147  20544155.827    20544162.581
       245.000         212.000
 04  1 22 22 42 30.0000000  0  7G10G 6G21G 5G24G17G30
  20915667.640   -20538234.84349 -15562151.58847  20915666.585    20915675.252
       242.000         208.000
  22630099.948   -15728478.99549 -12237409.71846  22630099.668    22630108.991
       228.000         181.000
  24742320.783    -6332727.80549  -4469849.72845  24742318.220    24742336.897
       205.000         138.000
  20678178.031   -10469102.99649  -8127569.44048  20678177.685    20678185.707
       246.000         216.000
  21984947.799     1842859.34749   1468669.73947  21984947.438    21984955.917
       236.000         194.000
  20602271.240   -17588621.85249 -13680821.44448  20602270.715    20602278.241
       244.000         217.000
  20537877.707   -17260076.87049 -13431932.76347  20537877.963    20537884.951
       244.000         212.000
 04  1 22 22 43  0.0000000  0  7G10G 6G21G 5G24G17G30
  20909827.194   -20568925.84149 -15586066.57547  20909826.239    20909834.853
       241.000         208.000
  22617401.775   -15795208.22249 -12289406.37746  22617402.198    22617410.661
       229.000         182.000
  24725712.722    -6420001.26549  -4537854.57845  24725711.126    24725729.203
       204.000         139.000
  20687428.178   -10420493.06949  -8089691.59248  20687428.022    20687435.736
       246.000         216.000
  21998671.780     1914979.34249   1524867.14547  21998671.936    21998679.725
       236.000         194.000
  20604368.119   -17577602.54049 -13672234.93048  20604367.643    20604375.112
       243.000         217.000
  20531704.156   -17292518.96249 -13457212.27247  20531704.697    20531711.408
       245.000         212.000
